     2.10           OBSERVATION DATA    G (GPS)             RINEX VERSION / TYPE
teqc 2000Jul20 Karen Wendt 20040726 18:38:51UTC             PGM / RUN BY / DATE
Linux 2.0.36|Pentium II|gcc -static|Linux|486/DX+           COMMENT
teqc 2000Jul20 Karen Wendt 20040726 18:38:50UTC             COMMENT
BIT 2 OF LLI FLAGS DATA COLLECTED UNDER A/S CONDITION       COMMENT
cw16 CW16_S_CentralWashington                               MARKER NAME
JLS USGS                                                    OBSERVER / AGENCY
LP00108.707 ASHTECH Z-XII3 CD00                             REC # / TYPE / VERS
CR619992805 ASH701945B_M NONE                               ANT # / TYPE
 -2719193.0000 -4095527.0000  4051988.0000                  APPROX POSITION XYZ
        1.1904        0.0000        0.0000                  ANTENNA: DELTA H/E/N
     1     1                                                WAVELENGTH FACT L1/2
     5    C1    L1    L2    P1    P2                        # / TYPES OF OBSERV
    30.0000                                                 INTERVAL
                                                            COMMENT
National Earthquake Hazard Reduction Program                COMMENT
Crustal Strain Project                                      COMMENT
345 Middlefield Road, MS/977                                COMMENT
U.S. Geological Survey, Menlo Park, California 94025        COMMENT
Contact: kwendt@usgs.gov (Ph: 650-329-4866)                 COMMENT
Antenna height is vertical to base of antenna               COMMENT
                                                            COMMENT
SNR is mapped to RINEX snr flag value [1-9]                 COMMENT
L1: 1 -> 1; 90 -> 5; 210 -> 9                               COMMENT
L2: 1 -> 1; 150 -> 5; 250 -> 9                              COMMENT
  2004     7    14     0     0   30.0000000     GPS         TIME OF FIRST OBS
                                                            END OF HEADER
 04  7 14  0  0 30.0000000  0  9G 3G27G 1G23G16G13G 4G 8G20
  24447055.057    -4769977.69549  -3553510.50245  24447054.476    24447063.623
  22435625.568   -14818021.06849 -11531884.61147  22435625.170    22435632.145
  21048302.346   -22704787.14049 -17479800.47347  21048301.884    21048308.462
  21248636.483   -23453461.61549 -18052989.54247  21248635.965    21248639.143
  22246372.104   -16118156.40849 -12551324.33046  22246371.648    22246377.097
  20846005.282   -21978606.24649 -17116963.74248  20846005.341    20846010.277
  24621615.356     -514322.56449   -391078.68145  24621615.350    24621623.924
  24761123.097    -5152339.89549  -3997437.80645  24761122.293    24761132.135
  22371147.874   -16586217.03449 -12915299.70646  22371147.187    22371154.006
 04  7 14  0  1  0.0000000  0  9G 3G27G 1G23G16G13G 4G 8G20
  24433527.672    -4841063.28749  -3608901.76845  24433527.272    24433536.394
  22424666.778   -14875609.57449 -11576758.73147  22424666.377    22424673.328
  21055568.137   -22666604.99749 -17450048.16547  21055567.694    21055574.297
  21258735.071   -23400393.20649 -18011637.55247  21258734.524    21258737.742
  22257501.063   -16059673.21449 -12505753.02646  22257500.643    22257506.190
  20837402.150   -22023815.71549 -17152191.88548  20837402.227    20837407.160
  24632237.177     -458505.36649   -347584.86145  24632237.156    24632245.634
  24743656.810    -5244124.60249  -4068958.24945  24743656.093    24743665.956
  22390065.416   -16486805.24549 -12837836.03346  22390064.661    22390071.547
 04  7 14  0  1 30.0000000  0  9G 3G27G 1G23G16G13G 4G 8G20
  24420034.501    -4911969.06349  -3664152.91845  24420034.242    24420043.324
  22413745.933   -14932999.01949 -11621477.73547  22413745.497    22413752.404
  21062889.875   -22628129.33249 -17420067.14347  21062889.395    21062896.019
  21268892.415   -23347016.42449 -17970045.27247  21268891.833    21268895.039
  22268721.222   -16000711.02849 -12459808.47646  22268720.795    22268726.261
  20828847.831   -22068769.01049 -17187220.41648  20828847.889    20828852.803
  24642916.926     -402383.22249   -303853.37545  24642916.894    24642925.341
  24726211.498    -5335799.33949  -4140392.97445  24726210.810    24726220.423
  22409036.767   -16387109.81349 -12760151.33746  22409036.087    22409043.044
 04  7 14  0  2  0.0000000  0  9G 3G27G 1G23G16G13G 4G 8G20
  24406576.411    -4982692.49849  -3719261.97945  24406575.989    24406585.075
  22402862.760   -14990190.10849 -11666042.18147  22402862.331    22402869.249
  21070267.346   -22589360.51649 -17389857.69247  21070266.868    21070273.484
  21279108.179   -23293332.14549 -17928213.38547  21279107.650    21279110.852
  22280032.041   -15941272.28149 -12413492.58846  22280031.565    22280037.118
  20820342.418   -22113465.34149 -17222048.72148  20820342.467    20820347.351
  24653653.922     -345959.74949   -259887.09045  24653653.941    24653662.451
  24708787.367    -5427364.43549  -4211742.27245  24708786.743    24708796.243
  22428061.557   -16287133.85349 -12682248.04846  22428060.916    22428067.899
 04  7 14  0  2 30.0000000  0  9G 3G27G 1G23G16G13G 4G 8G20
  24393153.370    -5053230.21449  -3774226.31545  24393152.882    24393162.242
  22392017.456   -15047182.51949 -11710451.80647  22392017.019    22392023.936
  21077700.729   -22550297.84449 -17359419.25847  21077700.222    21077706.899
  21289382.539   -23239340.05049 -17886141.64147  21289381.988    21289385.226
  22291433.160   -15881358.79449 -12366806.77146  22291432.762    22291438.355
  20811886.283   -22157902.61949 -17256675.16148  20811886.321    20811891.231
  24664447.966     -289236.87649   -215687.51645  24664448.008    24664456.570
  24691384.080    -5518818.53749  -4283005.09945  24691383.531    24691393.062
  22447139.401   -16186879.58449 -12604127.89446  22447138.699    22447145.706
 04  7 14  0  3  0.0000000  0  9G 3G27G 1G23G16G13G 4G 8G20
  24379766.170    -5123579.16049  -3829043.56645  24379765.800    24379775.001
  22381209.932   -15103976.19649 -11754706.58347  22381209.501    22381216.403
  21085190.095   -22510941.08049 -17328751.67147  21085189.597    21085196.284
  21299715.453   -23185040.19349 -17843830.08347  21299714.914    21299718.175
  22302924.296   -15820972.59649 -12319752.60246  22302923.857    22302929.369
  20803479.683   -22202079.73549 -17291098.87948  20803479.711    20803484.639
  24675298.411     -232217.38549   -171256.79945  24675298.516    24675307.086
  24674002.084    -5610160.99049  -4354180.92045  24674001.604    24674010.878
  22466269.658   -16086349.72949 -12525793.00646  22466268.925    22466275.932
 04  7 14  0  3 30.0000000  0  9G 3G27G 1G23G16G13G 4G 8G20
  24366415.583    -5193737.14149  -3883711.99445  24366415.082    24366424.380
  22370440.081   -15160571.89949 -11798807.08347  22370439.687    22370446.561
  21092735.370   -22471290.37349 -17297855.02847  21092734.874    21092741.626
  21310106.768   -23130433.34749 -17801279.31347  21310106.260    21310109.541
  22314504.856   -15760116.39349 -12272332.19846  22314504.440    22314509.904
  20795122.789   -22245995.60449 -17325319.02748  20795122.806    20795127.745
  24686204.752     -174904.86649   -126597.73245  24686204.867    24686213.410
  24656641.427    -5701392.00749  -4425269.90545  24656640.803    24656650.060
  22485451.738   -15985547.37849 -12447245.75946  22485451.026    22485458.014
 04  7 14  0  4  0.0000000  0  9G 3G27G 1G23G16G13G 4G 8G20
  24353101.784    -5263700.03549  -3938228.43845  24353101.529    24353110.751
  22359707.951   -15216969.14449 -11842752.94747  22359707.557    22359714.466
  21100336.817   -22431344.68049 -17266728.53247  21100336.321    21100343.051
  21320556.613   -23075518.94549 -17758488.89147  21320556.136    21320559.410
  22326174.657   -15698791.87449 -12224546.87246  22326174.171    22326179.614
  20786815.868   -22289648.51449 -17359334.27248  20786815.897    20786820.869
  24697166.327     -117301.12549    -81711.76745  24697166.557    24697175.013
  24639302.106    -5792510.06449  -4496270.89545  24639301.536    24639310.826
  22504685.316   -15884474.54449 -12368487.77446  22504684.641    22504691.581
 04  7 14  0  4 30.0000000  0  9G 3G27G 1G23G16G13G 4G 8G20
  24339826.184    -5333465.44649  -3992590.96145  24339825.679    24339834.565
  22349013.461   -15273168.64849 -11886544.73347  22349013.080    22349020.035
  21107994.316   -22391104.37749 -17235372.46447  21107993.850    21108000.577
  21331064.941   -23020297.62749 -17715459.31247  21331064.441    21331067.679
  22337932.880   -15637001.62149 -12176398.64946  22337932.441    22337937.889
  20778559.241   -22333037.46549 -17393143.83848  20778559.283    20778564.249
  24708182.786      -59409.61549    -36601.57245  24708182.871    24708191.290
  24621984.387    -5883515.34949  -4567183.98845  24621983.835    24621992.911
  22523969.755   -15783134.56449 -12289521.61446  22523969.061    22523975.991
 04  7 14  0  5  0.0000000  0  9G 3G27G 1G23G16G13G 4G 8G20
  24326588.176    -5403029.80449  -4046796.87045  24326587.933    24326596.867
  22338356.742   -15329169.55649 -11930181.76347  22338356.378    22338363.386
  21115708.088   -22350568.35049 -17203785.96547  21115707.630    21115714.271
  21341631.754   -22964768.89949 -17672190.18947  21341631.246    21341634.457
  22349779.540   -15574747.06149 -12127888.61646  22349779.109    22349784.592
  20770353.270   -22376160.29049 -17426746.03248  20770353.274    20770358.222
  24719253.662       -1232.00749      8731.56745  24719253.687    24719261.932
  24604688.177    -5974406.19049  -4638007.91545  24604687.680    24604696.904
  22543304.789   -15681529.32049 -12210348.75546  22543304.015    22543310.874
 04  7 14  0  5 30.0000000  0  9G 3G27G 1G23G16G13G 4G 8G20
  24313389.421    -5472390.61949  -4100844.14345  24313389.011    24313397.798
  22327737.704   -15384972.90249 -11973664.84647  22327737.359    22327744.336
  21123478.048   -22309737.09449 -17171969.41147  21123477.581    21123484.179
  21352256.914   -22908933.70549 -17628682.26247  21352256.360    21352259.542
  22361714.111   -15512031.00849 -12079018.98446  22361713.638    22361719.171
  20762197.982   -22419016.49649 -17460140.47148  20762198.039    20762202.911
  24730378.461       57227.96249     54284.73745  24730378.465    24730386.708
  24587413.888    -6065182.76349  -4708742.82245  24587413.358    24587422.658
  22562689.538   -15579662.10549 -12130971.75646  22562688.755    22562695.603
 04  7 14  0  6  0.0000000  0  9G 3G27G 1G23G16G13G 4G 8G20
  24300229.758    -5541544.76849  -4154730.40245  24300229.222    24300238.240
  22317156.280   -15440578.47949 -12016993.83147  22317155.905    22317162.916
  21131304.236   -22268610.27049 -17139922.54347  21131303.763    21131310.345
  21362940.322   -22852791.99349 -17584935.49247  21362939.775    21362942.969
  22373735.937   -15448855.55749 -12029791.38746  22373735.485    22373741.024
  20754093.836   -22461604.47549 -17493325.90748  20754093.870    20754098.709
  24741556.395      115967.92849    100056.07245  24741556.376    24741564.615
  24570161.261    -6155844.78149  -4779388.45345  24570160.722    24570170.109
  22582123.633   -15477535.46049 -12051392.61846  22582122.862    22582129.729
 04  7 14  0  6 30.0000000  0  9G 3G27G 1G23G16G13G 4G 8G20
  24287109.908    -5610488.74049  -4208452.89145  24287109.544    24287118.615
  22306612.492   -15495985.99349 -12060168.48347  22306612.154    22306619.226
  21139186.796   -22227187.13549 -17107644.79047  21139186.326    21139192.927
  21373682.112   -22796343.50949 -17540949.68147  21373681.588    21373684.778
  22385844.967   -15385222.67149 -11980207.33146  22385844.512    22385849.988
  20746041.025   -22503922.22349 -17526300.76748  20746041.035    20746045.926
  24752787.095      174985.46749    146043.68845  24752787.122    24752795.285
  24552930.884    -6246390.93049  -4849943.80145  24552930.360    24552939.869
  22601606.711   -15375151.61549 -11971613.05446  22601605.894    22601612.791
 04  7 14  0  7  0.0000000  0  9G 3G27G 1G23G16G13G 4G 8G20
  24274030.895    -5679219.72049  -4262009.39645  24274030.478    24274039.456
  22296106.369   -15551195.98249 -12103189.21747  22296106.037    22296113.069
  21147125.672   -22185467.74949 -17075136.19647  21147125.250    21147131.865
  21384482.213   -22739588.72749 -17496725.19647  21384481.701    21384484.925
  22398040.466   -15321134.63949 -11930268.62746  22398040.020    22398045.554
  20738039.856   -22545968.67049 -17559064.23048  20738039.884    20738044.759
  24764069.881      234277.45749    192245.16145  24764070.041    24764078.321
  24535722.459    -6336820.71749  -4920408.48845  24535721.924    24535731.559
  22621138.096   -15272513.59849 -11891635.43146  22621137.312    22621144.211
 04  7 14  0  7 30.0000000  0  9G 3G27G 1G23G16G13G 4G 8G20
  24260992.820    -5747734.66449  -4315397.59645  24260992.465    24261001.451
  22285637.909   -15606208.08349 -12146055.76047  22285637.604    22285644.567
  21155121.140   -22143451.41949 -17042396.21047  21155120.685    21155127.347
  21395340.684   -22682527.45249 -17452261.88447  21395340.114    21395343.378
  22410322.198   -15256593.37349 -11879976.76346  22410321.817    22410327.368
  20730090.552   -22587742.15649 -17591614.99148  20730090.567    20730095.492
  24775404.661      293841.75149    238658.84145  24775404.854    24775413.152
  24518536.432    -6427133.28349  -4990781.81445  24518535.922    24518545.430
  22640717.477   -15169623.78849 -11811461.62446  22640716.648    22640723.547
 04  7 14  0  8  0.0000000  0  9G 3G27G 1G23G16G13G 4G 8G20
  24247996.371    -5816031.49949  -4368615.83145  24247995.932    24248004.779
  22275206.891   -15661023.48749 -12188769.02747  22275206.535    22275213.517
  21163172.953   -22101138.91249 -17009425.43947  21163172.491    21163179.180
  21406257.184   -22625160.83449 -17407560.64447  21406256.627    21406259.903
  22422689.784   -15191602.11749 -11829334.24746  22422689.335    22422694.770
  20722193.414   -22629242.03049 -17623952.54848  20722193.424    20722198.345
  24786790.478      353674.36949    285281.60645  24786790.663    24786798.875
  24501372.588    -6517329.14649  -5061064.24245  24501372.024    24501381.866
  22660343.942   -15066485.75349 -11731094.38346  22660343.201    22660350.135
 04  7 14  0  8 30.0000000  0  9G 3G27G 1G23G16G13G 4G 8G20
  24235042.009    -5884106.29949  -4421661.05545  24235041.590    24235050.418
  22264813.353   -15715641.71749 -12231328.65347  22264812.991    22264819.967
  21171281.318   -22058529.36549 -16976223.21047  21171280.827    21171287.545
  21417231.838   -22567488.55849 -17362621.22747  21417231.309    21417234.596
  22435142.558   -15126162.52449 -11778342.38346  22435142.134    22435147.535
  20714348.656   -22670466.52749 -17656075.52548  20714348.655    20714353.573
  24798227.013      413772.97049    332111.62345  24798227.074    24798235.505
  24484231.443    -6607406.76749  -5131254.50345  24484230.810    24484240.366
  22680017.390   -14963101.33049 -11650535.16146  22680016.652    22680023.620
 04  7 14  0  9  0.0000000  0  9G 3G27G 1G23G16G13G 4G 8G20
  24222130.696    -5951956.63449  -4474531.37045  24222130.088    24222138.824
  22254457.265   -15770063.12649 -12273734.91447  22254456.930    22254463.853
  21179446.166   -22015622.86049 -16942789.58847  21179445.695    21179452.399
  21428264.640   -22509511.11749 -17317444.02547  21428264.061    21428267.318
  22447680.095   -15060277.32249 -11727003.29046  22447679.685    22447685.070
  20706556.472   -22711414.56149 -17687983.07748  20706556.509    20706561.443
  24809713.618      474134.85849    379146.80945  24809713.702    24809722.040
  24467112.723    -6697366.00649  -5201352.52945  24467112.110    24467121.602
  22699737.012   -14859473.91549 -11569786.59046  22699736.270    22699743.287
 04  7 14  0  9 30.0000000  0  9G 3G27G 1G23G16G13G 4G 8G20
  24209262.429    -6019578.61849  -4527223.76845  24209261.927    24209270.721
  22244138.742   -15824287.33649 -12315987.51247  22244138.393    22244145.280
  21187667.686   -21972418.31449 -16909123.72447  21187667.243    21187673.958
  21439355.640   -22451227.97049 -17272028.61047  21439355.023    21439358.252
  22460302.142   -14993948.03849 -11675318.16046  22460301.707    22460307.088
  20698817.408   -22752083.78849 -17719673.38048  20698817.427    20698822.326
  24821249.828      534757.76249    426385.38145  24821249.836    24821258.317
  24450016.748    -6787205.82549  -5271357.49145  24450016.145    24450025.672
  22719502.535   -14755605.32449 -11488850.10046  22719501.806    22719508.892
 04  7 14  0 10  0.0000000  0  9G 3G27G 1G23G16G13G 4G 8G20
  24196438.191    -6086969.80149  -4579736.29645  24196437.725    24196446.506
  22233857.661   -15878314.77249 -12358086.78347  22233857.281    22233864.157
  21195945.932   -21928916.07349 -16875225.88747  21195945.472    21195952.180
  21450504.542   -22392639.82249 -17226375.52547  21450503.965    21450507.188
  22473008.299   -14927177.24149 -11623289.00146  22473007.831    22473013.200
  20691131.556   -22792473.22549 -17751145.66248  20691131.568    20691136.447
  24832835.224      595638.42149    473824.80845  24832835.157    24832843.470
  24432943.590    -6876925.90849  -5341269.16045  24432942.926    24432952.453
  22739313.399   -14651498.64249 -11407728.07346  22739312.681    22739319.776
 04  7 14  0 10 30.0000000  0  9G 3G27G 1G23G16G13G 4G 8G20
  24183658.480    -6154126.78849  -4632066.35345  24183658.072    24183666.891
  22223614.089   -15932145.15049 -12400032.50747  22223613.702    22223620.536
  21204280.894   -21885115.50349 -16841095.59147  21204280.432    21204287.137
  21461711.606   -22333746.31149 -17180484.49747  21461711.027    21461714.233
  22485797.987   -14859966.96649 -11570917.37946  22485797.516    22485802.952
  20683499.283   -22832580.99749 -17782398.46248  20683499.301    20683504.216
  24844468.993      656774.50149    521463.24945  24844468.951    24844477.343
  24415893.214    -6966525.15849  -5411086.68445  24415892.599    24415902.197
  22759169.064   -14547156.23049 -11326422.37146  22759168.386    22759175.561
 04  7 14  0 11  0.0000000  0  9G 3G27G 1G23G16G13G 4G 8G20
  24170923.977    -6221047.23449  -4684212.07745  24170923.568    24170932.244
  22213407.893   -15985779.25849 -12441825.28247  22213407.508    22213414.275
  21212672.638   -21841017.02349 -16806733.15147  21212672.113    21212678.819
  21472976.511   -22274548.61749 -17134356.44847  21472975.968    21472979.207
  22498670.703   -14792319.77949 -11518205.30846  22498670.315    22498675.845
  20675920.720   -22872406.63049 -17813431.41848  20675920.738    20675925.634
  24856150.869      718162.68549    569298.11645  24856150.935    24856159.193
  24398865.989    -7056004.05649  -5480810.41045  24398865.347    24398874.760
  22779069.015   -14442581.33149 -11244935.50246  22779068.329    22779075.547
 04  7 14  0 11 30.0000000  0  9G 3G27G 1G23G16G13G 4G 8G20
  24158235.119    -6287727.76849  -4736170.86345  24158234.712    24158243.336
  22203239.076   -16039216.87149 -12483464.94747  22203238.698    22203245.416
  21221121.056   -21796620.11249 -16772138.17547  21221120.594    21221127.278
  21484299.357   -22215046.42749 -17087991.13147  21484298.820    21484302.110
  22511626.323   -14724237.72749 -11465154.38446  22511625.876    22511631.433
  20668396.205   -22911948.12149 -17844242.96048  20668396.217    20668401.103
  24867880.092      779800.42449    617327.47445  24867880.145    24867888.551
  24381861.913    -7145361.20849  -5550439.27645  24381861.199    24381870.546
  22799012.719   -14337776.45049 -11163269.43246  22799012.072    22799019.256
 04  7 14  0 12  0.0000000  0  9G 3G27G 1G23G16G13G 4G 8G20
  24145592.118    -6354165.43149  -4787940.40245  24145591.885    24145600.646
  22193107.538   -16092458.22449 -12524951.69047  22193107.152    22193113.917
  21229626.389   -21751924.48449 -16737310.42747  21229625.916    21229632.621
  21495680.128   -22155240.03549 -17041388.77147  21495679.581    21495682.896
  22524664.227   -14655723.29249 -11411766.53746  22524663.750    22524669.280
  20660926.098   -22951203.99549 -17874831.94448  20660926.089    20660930.969
  24879656.377      841684.69049    665548.90445  24879656.452    24879664.658
  24364880.990    -7234596.56649  -5619973.24045  24364880.265    24364889.540
  22818999.872   -14232743.97449 -11081426.01246  22818999.166    22819006.316
 04  7 14  0 12 30.0000000  0  9G 3G27G 1G23G16G13G 4G 8G20
  24132996.175    -6420357.08549  -4839518.24745  24132995.955    24133004.636
  22183013.347   -16145503.23249 -12566285.43947  22183012.980    22183019.800
  21238188.580   -21706929.95849 -16702249.77847  21238188.098    21238194.795
  21507118.786   -22095129.55049 -16994549.45947  21507118.242    21507121.553
  22537783.905   -14586778.58149 -11358043.41646  22537783.457    22537789.016
  20653510.559   -22990172.71949 -17905197.17248  20653510.562    20653515.430
  24891479.000      903813.39649    713960.84245  24891479.137    24891487.587
  24347923.347    -7323709.07049  -5689411.49145  24347922.635    24347931.792
  22839029.773   -14127486.73849 -10999407.45246  22839029.049    22839036.130
 04  7 14  0 13  0.0000000  0  9G 3G27G 1G23G16G13G 4G 8G20
  24120447.692    -6486299.55449  -4890901.92245  24120447.472    24120456.151
  22172956.537   -16198352.17449 -12607466.40847  22172956.182    22172962.972
  21246807.661   -21661636.38849 -16666956.10547  21246807.191    21246813.852
  21518615.231   -22034715.29549 -16947473.43847  21518614.713    21518618.064
  22550985.014   -14517406.15449 -11303987.00646  22550984.598    22550990.134
  20646149.961   -23028852.92749 -17935337.58748  20646149.988    20646154.830
  24903347.549      966183.31849    762560.71945  24903347.801    24903356.370
  24330989.089    -7412698.47049  -5758753.78245  24330988.428    24330997.482
  22859101.937   -14022007.49849 -10917215.89146  22859101.214    22859108.201
 04  7 14  0 13 30.0000000  0  9G 3G27G 1G23G16G13G 4G 8G20
  24107947.052    -6551990.42849  -4942089.54445  24107946.786    24107955.647
  22162936.899   -16251005.75949 -12648495.14947  22162936.548    22162943.271
  21255483.727   -21616043.91749 -16631429.51747  21255483.185    21255489.797
  21530169.367   -21973997.91849 -16900161.22747  21530168.874    21530172.231
  22564267.052   -14447608.68849 -11249599.39046  22564266.613    22564272.072
  20638844.461   -23067243.60749 -17965252.38848  20638844.455    20638849.336
  24915261.547     1028790.93449    811345.80845  24915261.673    24915270.264
  24314078.358    -7501564.53149  -5827999.97445  24314077.734    24314086.523
  22879215.855   -13916309.26349 -10834853.71546  22879214.989    22879222.012
 04  7 14  0 14  0.0000000  0  9G 3G27G 1G23G16G13G 4G 8G20
  24095494.888    -6617426.78049  -4993078.84945  24095494.686    24095503.432
  22152954.428   -16303463.80749 -12689371.52347  22152954.059    22152960.774
  21264216.626   -21570152.29549 -16595669.82747  21264216.090    21264222.684
  21541781.199   -21912977.71749 -16852613.04047  21541780.665    21541784.056
  22577629.535   -14377388.49349 -11194882.38446  22577629.073    22577634.565
  20631594.320   -23105343.25349 -17994940.41448  20631594.364    20631599.189
  24927220.275     1091634.05249    860314.43745  24927220.464    24927228.915
  24297191.336    -7590306.49449  -5897149.46545  24297190.734    24297199.505
  22899370.813   -13810394.76849 -10752323.00146  22899369.986    22899376.939
 04  7 14  0 14 30.0000000  0  9G 3G27G 1G23G16G13G 4G 8G20
  24083091.896    -6682605.44449  -5043867.35045  24083091.603    24083100.369
  22143009.170   -16355726.41349 -12730095.60347  22143008.804    22143015.520
  21273006.499   -21523961.19649 -16559676.78047  21273005.964    21273012.564
  21553450.590   -21851654.79649 -16804828.97047  21553450.057    21553453.424
  22591072.021   -14306747.74749 -11139837.67246  22591071.587    22591077.131
  20624399.913   -23143150.29349 -18024400.43548  20624399.925    20624404.728
  24939223.224     1154709.57849    909464.15445  24939223.275    24939231.749
  24280327.984    -7678923.69349  -5966201.73245  24280327.429    24280336.114
  22919566.283   -13704266.55349 -10669625.75746  22919565.585    22919572.514
 04  7 14  0 15  0.0000000  0  8G 3G27G 1G23G16G13G 8G20
  24070738.929    -6747521.16349  -5094450.96545  24070738.634    24070747.228
  22133101.548   -16407791.54549 -12770665.80947  22133101.163    22133107.827
  21281853.837   -21477468.22549 -16523448.50847  21281853.270    21281859.858
  21565177.922   -21790027.12249 -16756807.43247  21565177.418    21565180.818
  22604594.520   -14235686.61149 -11084465.38746  22604594.095    22604599.640
  20617261.805   -23180661.08449 -18053629.60748  20617261.847    20617266.681
  24263488.848    -7767413.64049  -6035154.83945  24263488.356    24263496.894
  22939802.447   -13597925.05049 -10586762.32046  22939801.756    22939808.724
 04  7 14  0 15 30.0000000  0  8G 3G27G 1G23G16G13G 8G20
  24058436.102    -6812173.19249  -5144829.09645  24058435.742    24058444.175
  22123231.052   -16459661.34349 -12811083.80847  22123230.646    22123237.312
  21290758.233   -21430675.13549 -16486986.37847  21290757.705    21290764.303
  21576962.872   -21728097.00349 -16708550.21847  21576962.350    21576965.737
  22618196.289   -14164209.53749 -11028768.98446  22618195.799    22618201.339
  20610179.981   -23217876.19749 -18082628.39248  20610179.999    20610184.793
  24246673.731    -7855777.73049  -6104009.87545  24246673.188    24246681.763
  22960078.247   -13491375.23449 -10503736.55846  22960077.549    22960084.597
 04  7 14  0 16  0.0000000  0  8G 3G27G 1G23G16G13G 8G20
  24046183.768    -6876559.76349  -5195000.38945  24046183.334    24046191.742
  22113397.342   -16511337.61949 -12851351.01547  22113396.954    22113403.612
  21299719.523   -21383583.33549 -16450291.48547  21299718.981    21299725.591
  21588805.039   -21665866.33249 -16660058.81047  21588804.502    21588807.895
  22631876.282   -14092320.28849 -10972751.41846  22631875.799    22631881.440
  20603154.398   -23254795.54649 -18111396.70748  20603154.443    20603159.267
  24229882.386    -7944016.62649  -6172767.37845  24229881.822    24229890.387
  22980392.866   -13384621.19649 -10420551.66846  22980392.185    22980399.273
 04  7 14  0 16 30.0000000  0  8G 3G27G 1G23G16G13G 8G20
  24033982.541    -6940676.92249  -5244961.75045  24033982.220    24033990.656
  22103600.798   -16562819.07949 -12891466.41247  22103600.376    22103607.035
  21308737.945   -21336191.39949 -16413362.72347  21308737.418    21308743.988
  21600704.529   -21603334.07949 -16611332.40447  21600703.994    21600707.370
  22645634.521   -14020020.11649 -10916413.64246  22645634.084    22645639.747
  20596185.670   -23291416.73849 -18139932.69148  20596185.687    20596190.515
  24213115.106    -8032128.88249  -6241426.17745  24213114.460    24213123.048
  23000746.138   -13277664.44349 -10337208.81146  23000745.375    23000752.517
 04  7 14  0 17  0.0000000  0  8G 3G27G 1G23G16G13G 8G20
  24021833.094    -7004521.77349  -5294710.92245  24021832.701    24021841.426
  22093841.058   -16614106.46149 -12931430.58547  22093840.623    22093847.320
  21317813.459   -21288499.32049 -16376200.08547  21317812.955    21317819.516
  21612661.467   -21540500.73249 -16562371.38347  21612660.836    21612664.195
  22659470.606   -13947311.72549 -10859757.78246  22659470.095    22659475.699
  20589273.815   -23327738.35249 -18168235.24348  20589273.862    20589278.700
  24196371.857    -8120114.13949  -6309986.01645  24196371.271    24196380.025
  23021137.352   -13170507.77649 -10253710.18546  23021136.609    23021143.803
 04  7 14  0 17 30.0000000  0  8G 3G27G 1G23G16G13G 8G20
  24009736.093    -7068091.21349  -5344245.48045  24009735.816    24009744.491
  22084118.332   -16665199.15949 -12971243.05047  22084117.933    22084124.728
  21326946.209   -21240506.71949 -16338803.27147  21326945.683    21326952.242
  21624675.576   -21477366.31849 -16513175.75647  21624674.929    21624678.273
  22673383.805   -13874196.97049 -10802785.27146  22673383.383    22673389.045
  20582419.457   -23363758.49249 -18196302.87648  20582419.487    20582424.313
  24179653.025    -8207971.37949  -6378446.10245  24179652.425    24179661.177
  23041566.168   -13063153.69249 -10170057.72146  23041565.456    23041572.700
 04  7 14  0 18  0.0000000  0  8G 3G27G 1G23G16G13G 8G20
  23997692.181    -7131382.16149  -5393563.04145  23997691.824    23997700.505
  22074432.657   -16716097.52449 -13010904.08947  22074432.279    22074439.093
  21336136.105   -21192213.33349 -16301172.08047  21336135.581    21336142.192
  21636746.915   -21413931.25649 -16463745.85947  21636746.272    21636749.585
  22687374.117   -13800678.17749 -10745497.93146  22687373.647    22687379.313
  20575622.664   -23399475.84049 -18224134.56248  20575622.673    20575627.509
  24162958.673    -8295700.26749  -6446806.16845  24162958.162    24162966.865
  23062032.084   -12955604.88649 -10086253.54846  23062031.287    23062038.601
 04  7 14  0 18 30.0000000  0  8G 3G27G 1G23G16G13G 8G20
  23985701.784    -7194392.40749  -5442661.87445  23985701.384    23985709.869
  22064783.810   -16766802.26949 -13050414.25247  22064783.448    22064790.300
  21345383.172   -21143619.63449 -16263306.87847  21345382.649    21345389.304
  21648875.253   -21350196.29249 -16414082.27347  21648874.646    21648877.940
  22701440.503   -13726758.69549 -10687898.36446  22701440.050    22701445.740
  20568883.682   -23434889.50549 -18251729.61848  20568883.688    20568888.482
  24146288.765    -8383301.06349  -6515066.42045  24146288.213    24146296.985
  23082534.285   -12847864.50249 -10002300.07846  23082533.615    23082540.974
 04  7 14  0 19  0.0000000  0  8G 3G27G 1G23G16G13G 8G20
  23973765.219    -7257117.99249  -5491538.89745  23973764.898    23973773.356
  22055171.964   -16817312.90449 -13089773.16347  22055171.583    22055178.449
  21354687.613   -21094724.66249 -16225206.91947  21354687.078    21354693.748
  21661060.713   -21286161.06149 -16364184.71647  21661060.140    21661063.460
  22715582.844   -13652440.01449 -10629987.73346  22715582.409    22715588.103
  20562202.832   -23469997.34349 -18279086.36548  20562202.843    20562207.705
  24129643.637    -8470771.50849  -6583225.12145  24129643.135    24129651.811
  23103072.584   -12739934.56149  -9918198.90446  23103072.046    23103079.426
 04  7 14  0 19 30.0000000  0  8G 3G27G 1G23G16G13G 8G20
  23961883.301    -7319557.37349  -5540192.89645  23961883.014    23961891.570
  22045596.753   -16867630.86949 -13128981.94947  22045596.351    22045603.210
  21364049.103   -21045529.65149 -16186873.16047  21364048.607    21364055.270
  21673303.096   -21221826.99849 -16314054.30247  21673302.525    21673305.857
  22729800.614   -13577725.74149 -10571768.84246  22729800.127    22729805.860
  20555580.285   -23504799.00349 -18306204.53148  20555580.318    20555585.169
  24113023.223    -8558113.38849  -6651283.63045  24113022.592    24113031.230
  23123646.431   -12631819.12949  -9833953.20446  23123645.783    23123653.146
 04  7 14  0 20  0.0000000  0  8G 3G27G 1G23G16G13G 8G20
  23950056.844    -7381706.30149  -5588620.55845  23950056.461    23950064.993
  22036058.413   -16917754.98349 -13168039.67547  22036058.025    22036064.870
  21373467.971   -20996033.32149 -16148304.61047  21373467.446    21373474.101
  21685602.530   -21157193.45749 -16263690.53047  21685601.930    21685605.253
  22744093.341   -13502617.16749 -10513242.70646  22744092.802    22744098.586
  20549016.580   -23539291.68649 -18333081.93448  20549016.572    20549021.395
  24096427.147    -8645324.81749  -6719240.49545  24096426.651    24096435.465
  23144255.163   -12523519.83549  -9749564.21546  23144254.526    23144261.897
 04  7 14  0 20 30.0000000  0  8G 3G27G 1G23G16G13G 8G20
  23938286.073    -7443561.78749  -5636819.58245  23938285.879    23938294.151
  22026556.893   -16967685.50149 -13206946.55247  22026556.512    22026563.341
  21382944.159   -20946235.41949 -16109501.07147  21382943.686    21382950.308
  21697958.872   -21092260.47349 -16213093.43247  21697958.276    21697961.625
  22758460.616   -13427116.65849 -10454411.17146  22758460.146    22758465.832
  20542511.909   -23573474.12649 -18359717.59148  20542511.895    20542516.698
  24079856.526    -8732404.96049  -6787095.04045  24079855.962    24079864.476
  23164898.435   -12415039.22949  -9665033.95546  23164897.835    23164905.173
 04  7 14  0 21  0.0000000  0  8G 3G27G 1G23G16G13G 8G20
  23926571.576    -7505122.07549  -5684788.57045  23926571.250    23926579.573
  22017092.112   -17017423.30349 -13245703.25547  22017091.745    22017098.485
  21392477.659   -20896136.72449 -16070463.14747  21392477.156    21392483.764
  21710371.899   -21027029.61949 -16162264.22547  21710371.303    21710374.703
  22772901.883   -13351227.53049 -10395276.81146  22772901.368    22772907.027
  20536066.364   -23607345.59849 -18386110.93948  20536066.367    20536071.151
  24063310.499    -8819354.39749  -6854847.75845  24063309.927    24063318.439
  23185575.694   -12306380.84449  -9580365.16946  23185574.930    23185582.343
 04  7 14  0 21 30.0000000  0  8G 3G27G 1G23G16G13G 8G20
  23914913.909    -7566383.07349  -5732524.34445  23914913.580    23914921.936
  22007664.184   -17066967.57349 -13284309.16247  22007663.762    22007670.435
  21402068.633   -20845736.08249 -16031189.94347  21402068.097    21402074.685
  21722841.714   -20961499.94549 -16111202.17247  21722841.190    21722844.564
  22787416.819   -13274951.32049 -10335840.81946  22787416.260    22787422.005
  20529680.447   -23640903.78549 -18412260.16648  20529680.468    20529685.233
  24046789.706    -8906171.55649  -6922497.39345  24046789.105    24046797.504
  23206286.363   -12197546.26149  -9495559.08046  23206285.582    23206292.983
 04  7 14  0 22  0.0000000  0  8G 3G27G 1G23G16G13G 8G20
  23903313.657    -7627342.61749  -5780025.22145  23903313.281    23903321.654
  21998272.769   -17116319.46149 -13322765.15947  21998272.363    21998279.044
  21411716.861   -20795034.26749 -15991682.05747  21411716.347    21411722.940
  21735368.242   -20895672.69349 -16059908.23947  21735367.728    21735371.061
  22802004.743   -13198291.01949 -10276105.56746  22802004.211    22802010.114
  20523354.352   -23674147.66149 -18438164.47848  20523354.367    20523359.106
  24030293.951    -8992856.16449  -6990043.75945  24030293.315    24030301.802
  23227029.822   -12088539.25249  -9410618.64046  23227028.982    23227036.405
 04  7 14  0 22 30.0000000  0  8G 3G27G 1G23G16G13G 8G20
  23891771.443    -7687997.07349  -5827288.37145  23891771.102    23891779.543
  21988918.143   -17165478.21149 -13361070.66247  21988917.779    21988924.477
  21421422.596   -20744030.44049 -15951938.83747  21421422.078    21421428.668
  21747951.518   -20829547.35749 -16008382.03647  21747950.977    21747954.254
  22816665.430   -13121248.51349 -10216072.47146  22816664.912    22816670.798
  20517088.466   -23707075.20949 -18463822.30248  20517088.475    20517093.209
  24013823.471    -9079407.62649  -7057486.38745  24013822.926    24013831.491
  23247805.566   -11979361.75249  -9325545.33946  23247804.870    23247812.283
 04  7 14  0 23  0.0000000  0  8G 3G27G 1G23G16G13G 8G20
  23880287.794    -7748343.97749  -5874311.87945  23880287.481    23880295.886
  21979600.192   -17214444.44049 -13399226.14447  21979599.800    21979606.556
  21431185.737   -20692724.74249 -15911960.39347  21431185.219    21431191.847
  21760591.355   -20763124.63849 -15956624.10247  21760590.836    21760594.114
  22831398.244   -13043826.60449 -10155743.73546  22831397.792    22831403.639
  20510882.921   -23739685.36149 -18489232.80948  20510882.951    20510887.671
  23997378.467    -9165825.88749  -7124825.20345  23997377.981    23997386.592
  23268613.119   -11870016.71849  -9240341.49946  23268612.535    23268620.029
 04  7 14  0 23 30.0000000  0  8G 3G27G 1G23G16G13G 8G20
  23868863.267    -7808380.82349  -5921093.77645  23868862.811    23868871.115
  21970318.751   -17263218.63949 -13437231.98847  21970318.365    21970325.151
  21441006.282   -20641117.52849 -15871747.00847  21441005.771    21441012.395
  21773287.580   -20696405.64949 -15904635.30847  21773287.077    21773290.365
  22846202.792   -12966028.27849 -10095121.70046  22846202.353    22846208.241
  20504738.109   -23771976.64849 -18514394.84848  20504738.125    20504742.864
  23980958.986    -9252110.36949  -7192059.78145  23980958.488    23980967.119
  23289452.173   -11760507.27449  -9155009.56246  23289451.548    23289459.078
 04  7 14  0 24  0.0000000  0  8G 3G27G 1G23G16G13G 8G20
  23857498.142    -7868104.75549  -5967631.84345  23857497.618    23857505.930
  21961073.844   -17311801.10449 -13475088.43447  21961073.435    21961080.248
  21450884.123   -20589208.87549 -15831298.72547  21450883.692    21450890.348
  21786040.093   -20629390.66849 -15852415.86847  21786039.609    21786042.941
  22861078.632   -12887855.83349 -10034208.13146  22861078.145    22861084.093
  20498654.077   -23803948.34349 -18539307.85148  20498654.107    20498658.845
  23964565.090    -9338260.55449  -7259189.71345  23964564.657    23964573.231
  23310322.178   -11650836.09849  -9069551.58346  23310321.370    23310328.934
 04  7 14  0 24 30.0000000  0  8G 3G27G 1G23G16G13G 8G20
  23846193.039    -7927512.99849  -6013923.93645  23846192.485    23846200.885
  21951865.360   -17360192.19049 -13512795.74747  21951864.950    21951871.718
  21460819.386   -20536998.84049 -15790615.60947  21460818.934    21460825.612
  21798848.908   -20562080.15849 -15799966.15147  21798848.371    21798851.780
  22876025.084   -12809311.93149  -9973005.11646  22876024.548    22876030.572
  20492631.145   -23835598.93749 -18563970.65048  20492631.167    20492635.873
  23948196.703    -9424276.55149  -7326215.05745  23948196.289    23948204.956
  23331222.068   -11541006.41549  -8983970.09946  23331221.371    23331228.921
 04  7 14  0 25  0.0000000  0  8G 3G27G 1G23G16G13G 8G20
  23834948.639    -7986602.11849  -6059967.34645  23834948.159    23834956.631
  21942693.396   -17408391.34249 -13550353.50447  21942692.970    21942699.650
  21470812.151   -20484486.73349 -15749697.10747  21470811.676    21470818.392
  21811713.943   -20494473.90749 -15747285.98747  21811713.405    21811716.922
  22891041.692   -12730398.66249  -9911514.29846  22891041.222    22891047.313
  20486669.754   -23866926.11649 -18588381.43548  20486669.794    20486674.509
  23931854.128    -9510157.21649  -7393134.97245  23931853.722    23931862.354
  23352151.941   -11431020.11249  -8898266.57646  23352151.192    23352158.668
 04  7 14  0 25 30.0000000  0  8G 3G27G 1G23G16G13G 8G20
  23823765.540    -8045370.10449  -6105760.53445  23823765.050    23823773.379
  21933557.757   -17456399.68049 -13587762.57447  21933557.284    21933563.898
  21480862.240   -20431673.06449 -15708543.62147  21480861.779    21480868.528
  21824634.960   -20426573.25949 -15694376.42147  21824634.470    21824638.043
  22906128.212   -12651119.28349  -9849738.20146  22906127.757    22906133.737
  20480770.079   -23897929.33549 -18612539.78448  20480770.098    20480774.782
  23915537.354    -9595902.62449  -7459949.48745  23915536.878    23915545.496
  23373110.977   -11320880.57549  -8812443.64246  23373110.122    23373117.590
 04  7 14  0 26  0.0000000  0  8G 3G27G 1G23G16G13G 8G20
  23812644.064    -8103813.61649  -6151300.88545  23812643.570    23812651.847
  21924458.380   -17504216.90549 -13625022.72547  21924457.954    21924464.605
  21490969.825   -20378557.40449 -15667154.82047  21490969.381    21490976.131
  21837612.183   -20358377.97549 -15641237.26647  21837611.646    21837615.185
  22921284.048   -12571475.63349  -9787678.24746  22921283.496    22921289.450
  20474932.400   -23928606.56749 -18636444.12048  20474932.429    20474937.110
  23899246.248    -9681512.48949  -7526658.39545  23899245.797    23899254.347
  23394098.585   -11210589.97849  -8726502.99646  23394097.744    23394105.307
 04  7 14  0 26 30.0000000  0  8G 3G27G 1G23G16G13G 8G20
  23801584.840    -8161929.46249  -6196585.89845  23801584.416    23801592.772
  21915395.421   -17551842.74049 -13662133.73747  21915394.978    21915401.676
  21501134.992   -20325139.36149 -15625530.39147  21501134.534    21501141.253
  21850645.388   -20289888.10849 -15587868.57047  21850644.873    21850648.399
  22936508.579   -12491469.76549  -9725336.05146  22936508.096    22936514.037
  20469157.150   -23958955.90949 -18660092.95448  20469157.147    20469161.882
  23882981.270    -9766985.01949  -7593260.29045  23882980.816    23882989.356
  23415114.381   -11100150.87049  -8640446.63546  23415113.625    23415121.206
 04  7 14  0 27  0.0000000  0  8G 3G27G 1G23G16G13G 8G20
  23790588.536    -8219715.13849  -6241613.65445  23790588.029    23790596.479
  21906368.732   -17599277.74949 -13699096.05747  21906368.337    21906375.045
  21511357.624   -20271419.22749 -15583670.56647  21511357.137    21511363.848
  21863734.521   -20221104.44249 -15534270.93447  21863733.982    21863737.531
  22951801.587   -12411104.64349  -9662713.91246  22951801.089    22951806.975
  20463444.443   -23988976.38349 -18683485.52648  20463444.452    20463449.148
  23866742.311    -9852320.58549  -7659755.48345  23866741.778    23866750.525
  23436158.010   -10989566.36149  -8554276.99045  23436157.176    23436164.795
 04  7 14  0 27 30.0000000  0  8G 3G27G 1G23G16G13G 8G20
  23779655.468    -8277168.01349  -6286382.07745  23779654.988    23779663.609
  21897378.360   -17646522.27149 -13735909.94447  21897377.971    21897384.711
  21521637.580   -20217397.29249 -15541575.57947  21521637.151    21521643.844
  21876879.430   -20152027.65149 -15480444.89547  21876878.902    21876882.477
  22967162.419   -12330382.87649  -9599813.87046  22967161.964    22967167.814
  20457794.640   -24018666.37749 -18706620.57848  20457794.634    20457799.321
  23850529.523    -9937518.95649  -7726143.74745  23850528.982    23850537.708
  23457228.669   -10878839.16349  -8467996.14545  23457227.860    23457235.528
 04  7 14  0 28  0.0000000  0  8G 3G27G 1G23G16G13G 8G20
  23768786.406    -8334284.74849  -6330888.58045  23768786.002    23768794.623
  21888424.309   -17693575.92049 -13772575.10247  21888423.909    21888430.669
  21531975.180   -20163073.13449 -15499245.09447  21531974.734    21531981.437
  21890080.125   -20082657.73149 -15426390.44347  21890079.583    21890083.176
  22982590.742   -12249306.60049  -9536637.58646  22982590.274    22982596.251
  20452207.980   -24048024.43549 -18729496.98348  20452207.971    20452212.641
  23834343.146   -10022578.85849  -7792424.09945  23834342.538    23834351.262
  23478325.997   -10767971.68249  -8381605.98745  23478325.264    23478332.939
 04  7 14  0 28 30.0000000  0  8G 3G27G 1G23G16G13G 8G20
  23757981.889    -8391063.18849  -6375131.46645  23757981.472    23757989.986
  21879506.388   -17740439.87849 -13809092.44047  21879505.993    21879512.754
  21542370.105   -20108447.47649 -15456679.66847  21542369.638    21542376.426
  21903336.372   -20012995.83749 -15372108.47747  21903335.786    21903339.420
  22998085.842   -12167879.17349  -9473187.68546  22998085.387    22998091.327
  20446684.680   -24077049.65649 -18752114.03148  20446684.665    20446689.354
  23818182.922   -10107500.60049  -7858596.80045  23818182.386    23818191.126
  23499449.478   -10656967.21649  -8295109.10945  23499448.710    23499456.475
 04  7 14  0 29  0.0000000  0  8G 3G27G 1G23G16G13G 8G20
  23747242.311    -8447500.28949  -6419108.38045  23747241.896    23747250.272
  21870624.587   -17787114.08349 -13845461.93047  21870624.172    21870630.890
  21552822.443   -20053520.15449 -15413879.18147  21552821.972    21552828.773
  21916648.080   -19943042.26449 -15317599.23047  21916647.511    21916651.146
  23013647.405   -12086102.77349  -9409465.84346  23013646.933    23013652.760
  20441224.981   -24105740.30349 -18774470.37248  20441225.004    20441229.700
  23802049.160   -10192283.45549  -7924661.28845  23802048.615    23802057.416
  23520598.619   -10545828.34649  -8208507.48445  23520597.789    23520605.602
 04  7 14  0 29 30.0000000  0  8G 3G27G 1G23G16G13G 8G20
  23736568.064    -8503593.82049  -6462817.57745  23736567.647    23736576.008
  21861778.808   -17833598.98849 -13881683.91847  21861778.406    21861785.120
  21563332.175   -19998291.49449 -15370843.88847  21563331.676    21563338.475
  21930015.157   -19872797.69049 -15262863.23447  21930014.617    21930018.226
  23029274.815   -12003980.47049  -9345474.48246  23029274.285    23029280.088
  20435829.145   -24134095.46149 -18796565.29748  20435829.160    20435833.877
  23785941.861   -10276927.79849  -7990617.85945  23785941.316    23785950.090
  23541772.625   -10434558.20449  -8121803.58745  23541771.800    23541779.713
 04  7 14  0 30  0.0000000  0  8G 3G27G 1G23G16G13G 8G20
  23725959.736    -8559340.41749  -6506256.42645  23725959.340    23725967.737
  21852969.107   -17879894.26449 -13917758.13647  21852968.705    21852975.434
  21573899.349   -19942760.82749 -15327573.25747  21573898.851    21573905.646
  21943437.585   -19802262.22449 -15207900.56447  21943437.075    21943440.691
  23044967.571   -11921513.85349  -9281214.81246  23044967.071    23044972.998
  20430497.573   -24162112.99649 -18818397.13648  20430497.611    20430502.317
  23769861.214   -10361432.48049  -8056465.54545  23769860.618    23769869.318
  23562971.208   -10323158.77649  -8034998.93845  23562970.515    23562978.422
 04  7 14  0 30 30.0000000  0  8G 3G27G 1G23G16G13G 8G20
  23715417.877    -8614737.80349  -6549423.16245  23715417.448    23715425.824
  21844195.366   -17926000.47049 -13953685.02747  21844194.939    21844201.640
  21584523.909   -19886928.50249 -15284067.57347  21584523.396    21584530.209
  21956915.309   -19731436.52349 -15152711.73547  21956914.784    21956918.393
  23060725.358   -11838706.23749  -9216689.42646  23060724.872    23060730.882
  20425230.451   -24189791.93649 -18839965.13448  20425230.457    20425235.180
  23753807.097   -10445797.49849  -8122204.41346  23753806.382    23753815.048
  23584193.989   -10211633.43149  -7948096.18845  23584193.193    23584201.155
 04  7 14  0 31  0.0000000  0  8G 3G27G 1G23G16G13G 8G20
  23704942.907    -8669783.14449  -6592315.58045  23704942.640    23704951.010
  21835457.578   -17971917.87249 -13989464.80647  21835457.148    21835463.800
  21595205.827   -19830794.68549 -15240326.96547  21595205.330    21595212.095
  21970448.167   -19660321.32249 -15097297.32547  21970447.635    21970451.211
  23076547.750   -11755560.13949  -9151900.28246  23076547.188    23076553.128
  20420028.065   -24217130.62949 -18861268.00348  20420028.109    20420032.807
  23737779.492   -10530022.34349  -8187834.06546  23737778.868    23737787.472
  23605440.085   -10099984.96749  -7861097.48345  23605439.304    23605447.253
 04  7 14  0 31 30.0000000  0  8G 3G27G 1G23G16G13G 8G20
  23694535.907    -8724473.32549  -6634931.25145  23694535.504    23694543.721
  21826755.672   -18017646.33349 -14025097.35547  21826755.262    21826761.941
  21605945.209   -19774358.81049 -15196350.98447  21605944.736    21605951.520
  21984036.054   -19588916.64849 -15041657.35147  21984035.519    21984039.083
  23092433.992   -11672077.51149  -9086848.93246  23092433.361    23092439.399
  20414890.772   -24244127.29749 -18882304.36548  20414890.795    20414895.496
  23721778.861   -10614105.79949  -8253353.54346  23721778.255    23721786.745
  23626709.156    -9988215.42049  -7774004.42546  23626708.480    23626716.331
 04  7 14  0 32  0.0000000  0  8G 3G27G 1G23G16G13G 8G20
  23684196.727    -8778805.88949  -6677268.26545  23684196.372    23684204.556
  21818089.670   -18063186.36149 -14060583.07347  21818089.261    21818095.940
  21616742.027   -19717621.32649 -15152139.98147  21616741.551    21616748.308
  21997678.873   -19517223.26849 -14985792.41947  21997678.304    21997681.887
  23108383.460   -11588261.38149  -9021537.70746  23108382.939    23108389.134
  20409818.720   -24270781.08049 -18903073.53848  20409818.746    20409823.434
  23705805.041   -10698048.23349  -8318763.15846  23705804.513    23705812.878
  23648000.788    -9876327.90249  -7686819.45746  23648000.100    23648007.885
 04  7 14  0 32 30.0000000  0  8G 3G27G 1G23G16G13G 8G20
  23673926.275    -8832777.12249  -6719323.70445  23673925.883    23673934.100
  21809459.716   -18108537.12949 -14095921.31647  21809459.315    21809465.944
  21627596.342   -19660581.43249 -15107693.33747  21627595.887    21627602.647
  22011376.609   -19445240.89549 -14929702.29047  22011376.101    22011379.737
  23124396.408   -11504113.18349  -8955967.71746  23124395.973    23124402.087
  20404812.456   -24297089.32649 -18923573.46448  20404812.452    20404817.111
  23689858.368   -10781848.16249  -8384061.72546  23689857.873    23689866.194
  23669314.467    -9764324.33649  -7599544.05646  23669313.845    23669321.556
 04  7 14  0 33  0.0000000  0  8G 3G27G 1G23G16G13G 8G20
  23663724.837    -8886386.05649  -6761096.83845  23663724.424    23663732.646
  21800865.429   -18153700.44549 -14131113.49047  21800865.005    21800871.632
  21638507.964   -19603240.82349 -15063012.36847  21638507.463    21638514.244
  22025129.082   -19372971.55349 -14873388.55747  22025128.551    22025132.163
  23140471.918   -11419637.32449  -8890142.40946  23140471.365    23140477.385
  20399871.860   -24323052.35349 -18943804.39448  20399871.863    20399876.478
  23673938.553   -10865506.75349  -8449250.14946  23673938.044    23673946.398
  23690649.303    -9652208.91049  -7512181.49446  23690648.745    23690656.507
 04  7 14  0 33 30.0000000  0  8G 3G27G 1G23G16G13G 8G20
  23653593.010    -8939629.07149  -6802584.85245  23653592.529    23653600.719
  21792306.857   -18198675.84449 -14166159.23447  21792306.460    21792313.109
  21649476.913   -19545598.79249 -15018096.52847  21649476.429    21649483.221
  22038936.223   -19300415.05049 -14816851.05947  22038935.642    22038939.195
  23156609.128   -11334835.32249  -8824062.97446  23156608.614    23156614.759
  20394997.382   -24348667.85249 -18963764.52048  20394997.407    20395002.013
  23658045.896   -10949022.67649  -8514327.41046  23658045.376    23658053.843
  23712005.251    -9539983.57249  -7424733.28646  23712004.611    23712012.408
 04  7 14  0 34  0.0000000  0  8G 3G27G 1G23G16G13G 8G20
  23643531.129    -8992503.81349  -6843785.90545  23643530.724    23643538.908
  21783784.015   -18243463.67149 -14201058.81947  21783783.600    21783790.280
  21660503.120   -19487655.69849 -14972946.09047  21660502.616    21660509.383
  22052797.804   -19227572.05649 -14760090.32247  22052797.246    22052800.777
  23172807.881   -11249709.89649  -8757731.51846  23172807.419    23172813.597
  20390189.291   -24373934.59449 -18983452.89048  20390189.286    20390193.905
  23642180.423   -11032396.04049  -8579293.56946  23642179.889    23642188.397
  23733381.553    -9427651.30649  -7337201.75546  23733380.892    23733388.663
 04  7 14  0 34 30.0000000  0  8G 3G27G 1G23G16G13G 8G20
  23633540.125    -9045007.17449  -6884697.55545  23633539.591    23633547.725
  21775296.999   -18288063.51749 -14235811.92247  21775296.576    21775303.191
  21671586.746   -19429410.94949 -14927560.59747  21671586.253    21671593.021
  22066713.985   -19154442.44749 -14703106.24547  22066713.402    22066716.924
  23189067.772   -11164263.25449  -8691149.75246  23189067.382    23189073.561
  20385447.850   -24398850.70049 -19002868.03548  20385447.888    20385452.532
  23626342.361   -11115625.55749  -8644147.66046  23626341.814    23626350.226
  23754777.753    -9315214.29549  -7249588.61645  23754777.050    23754784.839
 04  7 14  0 35  0.0000000  0  8G 3G27G 1G23G16G13G 8G20
  23623620.099    -9097136.99749  -6925318.14645  23623619.608    23623627.694
  21766845.481   -18332476.53949 -14270419.45647  21766845.037    21766851.645
  21682727.616   -19370865.48949 -14881940.79247  21682727.120    21682733.906
  22080684.217   -19081027.74649 -14645900.01947  22080683.761    22080687.379
  23205388.508   -11078498.62249  -8624320.21146  23205387.964    23205393.982
  20380773.376   -24423415.44349 -19022009.39448  20380773.374    20380778.033
  23610531.575   -11198711.47049  -8708889.85146  23610531.069    23610539.364
  23776193.066    -9202675.96249  -7161896.53045  23776192.475    23776200.213
 04  7 14  0 35 30.0000000  0  8G 3G27G 1G23G16G13G 8G20
  23613771.588    -9148891.14449  -6965646.00445  23613771.076    23613779.148
  21758429.380   -18376703.09849 -14304881.69147  21758428.973    21758435.596
  21693925.609   -19312019.68049 -14836086.94347  21693925.108    21693931.909
  22094708.700   -19007328.79349 -14588472.30547  22094708.222    22094711.881
  23221769.038   -10992418.88549  -8557245.13146  23221768.425    23221774.390
  20376165.958   -24447627.57149 -19040875.98648  20376165.974    20376170.621
  23594748.167   -11281653.90949  -8773520.24046  23594747.606    23594755.863
  23797627.296    -9090039.14749  -7074127.69845  23797626.586    23797634.461
 04  7 14  0 36  0.0000000  0  8G 3G27G 1G23G16G13G 8G20
  23603995.260    -9200265.87049  -7005678.20545  23603994.844    23604002.805
  21750048.891   -18420742.56649 -14339198.13547  21750048.475    21750055.118
  21705180.896   -19252872.73049 -14789998.44047  21705180.436    21705187.252
  22108787.374   -18933345.31249 -14530822.87547  22108786.885    22108790.514
  23238208.888   -10906025.82949  -8489925.90946  23238208.453    23238214.337
  20371626.074   -24471484.91749 -19059466.12148  20371626.067    20371630.728
  23578992.305   -11364451.55649  -8838037.80046  23578991.764    23578999.880
  23819079.760    -8977305.76349  -6986283.60845  23819079.114    23819087.049
 04  7 14  0 36 30.0000000  0  8G 3G27G 1G23G16G13G 8G20
  23594291.283    -9251261.15649  -7045414.74045  23594290.782    23594298.605
  21741703.542   -18464597.62549 -14373370.89047  21741703.142    21741709.731
  21716493.060   -19193427.38249 -14743677.42847  21716492.575    21716499.413
  22122919.663   -18859080.17049 -14472953.97747  22122919.122    22122922.713
  23254707.548   -10819324.54349  -8422366.50046  23254707.181    23254713.028
  20367153.492   -24494988.61649 -19077780.69748  20367153.493    20367158.154
  23563263.493   -11447106.76549  -8902444.36846  23563262.873    23563271.029
  23840549.460    -8864481.22149  -6898368.49345  23840549.022    23840556.972
 04  7 14  0 37  0.0000000  0  8G 3G27G 1G23G16G13G 8G20
  23584660.506    -9301871.00649  -7084850.94445  23584659.989    23584667.863
  21733393.942   -18508265.16749 -14407397.52547  21733393.525    21733400.004
  21727862.534   -19133680.22549 -14697121.23147  21727862.064    21727868.954
  22137105.929   -18784530.75149 -14414863.55747  22137105.421    22137108.990
  23271265.328   -10732314.11449  -8354566.18746  23271264.899    23271270.535
  20362749.033   -24518134.01349 -19095816.07248  20362749.042    20362753.728
  23547562.484   -11529615.42149  -8966736.74146  23547561.922    23547570.039
  23862037.034    -8751564.74849  -6810381.74645  23862036.365    23862044.306
 04  7 14  0 37 30.0000000  0  8G 3G27G 1G23G16G13G 8G20
  23575103.325    -9352093.48949  -7123985.27745  23575102.906    23575110.818
  21725119.814   -18551746.00949 -14441278.68247  21725119.383    21725125.828
  21739289.326   -19073632.13449 -14650330.54347  21739288.843    21739295.773
  22151346.182   -18709698.25949 -14356552.56847  22151345.632    22151349.198
  23287881.115   -10644997.83849  -8286527.56246  23287880.646    23287886.215
  20358412.980   -24540920.19249 -19113571.53648  20358412.974    20358417.688
  23531889.324   -11611977.95349  -9030915.25846  23531888.812    23531896.911
  23883541.382    -8638559.67349  -6722325.96845  23883540.609    23883548.499
 04  7 14  0 38  0.0000000  0  8G 3G27G 1G23G16G13G 8G20
  23565620.446    -9401926.36549  -7162816.06345  23565620.021    23565627.844
  21716881.038   -18595040.59249 -14475014.70247  21716880.636    21716887.098
  21750773.386   -19013283.30349 -14603305.51147  21750772.893    21750779.825
  22165640.106   -18634583.37449 -14298021.53547  22165639.527    22165643.142
  23304554.506   -10557378.28049  -8218252.61446  23304554.123    23304559.691
  20354145.494   -24563345.79549 -19131046.03148  20354145.498    20354150.217
  23516243.974   -11694194.10249  -9094979.72346  23516243.424    23516251.522
  23905061.783    -8525468.73849  -6634203.26645  23905061.100    23905069.230
 04  7 14  0 38 30.0000000  0  8G 3G27G 1G23G16G13G 8G20
  23556212.099    -9451367.13549  -7201341.28645  23556211.764    23556219.560
  21708677.727   -18638149.26749 -14508605.85147  21708677.315    21708683.789
  21762314.615   -18952634.13949 -14556046.45347  21762314.044    21762320.990
  22179987.545   -18559187.11749 -14239271.24547  22179986.994    22179990.641
  23321285.199   -10469458.33249  -8149743.58346  23321284.750    23321290.362
  20349946.862   -24585409.75949 -19148238.72948  20349946.865    20349951.571
  23500626.653   -11776263.44649  -9158929.78246  23500626.054    23500634.179
  23926598.108    -8412294.97249  -6546016.04345  23926597.431    23926605.531
 04  7 14  0 39  0.0000000  0  8G 3G27G 1G23G16G13G 8G20
  23546878.894    -9500413.48649  -7239559.16645  23546878.555    23546886.260
  21700509.654   -18681072.73749 -14542052.69447  21700509.250    21700515.756
  21773912.850   -18891685.18349 -14508553.80047  21773912.294    21773919.231
  22194388.370   -18483510.49549 -14180302.48447  22194387.825    22194391.487
  23338072.437   -10381240.90349  -8081002.76246  23338072.069    23338077.700
  20345817.237   -24607111.04349 -19165148.81848  20345817.264    20345821.938
  23485037.260   -11858186.27349  -9222765.67746  23485036.648    23485044.709
  23948149.727    -8299041.36449  -6457766.59345  23948148.882    23948157.110
 04  7 14  0 39 30.0000000  0  8G 3G27G 1G23G16G13G 8G20
  23537621.249    -9549062.58049  -7277467.50545  23537620.904    23537628.572
  21692376.844   -18723810.82849 -14575355.07947  21692376.440    21692382.966
  21785568.086   -18830436.43649 -14460827.53647  21785567.565    21785574.510
  22208842.448   -18407553.71049 -14121115.41647  22208841.928    22208845.618
  23354916.022   -10292728.37849  -8012032.00646  23354915.568    23354921.322
  20341757.000   -24628447.83849 -19181774.89148  20341757.035    20341761.678
  23469476.029   -11939961.41249  -9286486.48646  23469475.370    23469483.272
  23969715.783    -8185710.55249  -6369456.97845  23969715.101    23969723.380
 04  7 14  0 40  0.0000000  0  8G 3G27G 1G23G16G13G 8G20
  23528439.557    -9597312.37149  -7315064.72845  23528439.260    23528446.848
  21684279.174   -18766364.30949 -14608513.61647  21684278.766    21684285.304
  21797280.274   -18768888.53549 -14412868.16647  21797279.737    21797286.705
  22223349.772   -18331317.91949 -14061710.94347  22223349.166    22223352.856
  23371815.011   -10203923.78049  -7942833.67346  23371814.500    23371820.433
  20337766.271   -24649419.39149 -19198116.36248  20337766.307    20337770.928
  23453942.700   -12021589.71349  -9350092.88346  23453942.024    23453949.908
  23991296.148    -8072305.53549  -6281089.56045  23991295.432    23991303.788
 04  7 14  0 40 30.0000000  0  8G 3G27G 1G23G16G13G 8G20
  23519334.481    -9645159.42149  -7352348.08545  23519334.084    23519341.861
  21676216.806   -18808732.31449 -14641527.63347  21676216.368    21676222.931
  21809049.573   -18707040.56649 -14364674.97447  21809049.040    21809056.012
  22237910.177   -18254802.48649 -14002088.57547  22237909.615    22237913.297
  23388769.017   -10114828.72449  -7873409.02246  23388768.573    23388774.694
  20333845.454   -24670023.39149 -19214171.42748  20333845.472    20333850.081
  23438437.562   -12103069.47249  -9413583.53946  23438436.888    23438444.715
  24012890.354    -7958828.04749  -6192665.67945  24012889.502    24012897.952
 04  7 14  0 41  0.0000000  0  8G 3G27G 1G23G16G13G 8G20
  23510306.376    -9692601.45849  -7389315.86145  23510306.074    23510313.982
  21668189.610   -18850915.27849 -14674397.44947  21668189.185    21668195.773
  21820875.901   -18644893.05649 -14316248.37647  21820875.332    21820882.294
  22252523.577   -18178008.67549 -13942249.28147  22252523.029    22252526.677
  23405777.857   -10025446.11749  -7803760.28146  23405777.507    23405783.625
  20329994.790   -24690258.79549 -19229939.27048  20329994.817    20329999.409
  23422960.677   -12184400.70949  -9476958.46246  23422960.023    23422967.782
  24034497.714    -7845281.02949  -6104187.60145  24034496.923    24034505.324
 04  7 14  0 41 30.0000000  0  8G 3G27G 1G23G16G13G 8G20
  23501356.026    -9739636.24649  -7425966.29945  23501355.660    23501363.588
  21660197.525   -18892914.10349 -14707123.78447  21660197.078    21660203.631
  21832759.143   -18582446.58549 -14267588.82647  21832758.555    21832765.475
  22267189.946   -18100937.36249 -13882193.75647  22267189.306    22267192.913
  23422841.244    -9935778.73849  -7733889.64546  23422840.795    23422846.729
  20326214.470   -24710124.48049 -19245419.02548  20326214.485    20326219.055
  23407512.055   -12265583.42949  -9540217.66346  23407511.407    23407519.236
  24056117.863    -7731667.58849  -6015657.78345  24056116.977    24056125.286
 04  7 14  0 42  0.0000000  0  8G 3G27G 1G23G16G13G 8G20
  23492483.439    -9786262.28849  -7462298.22146  23492483.003    23492490.926
  21652240.294   -18934729.72349 -14739707.36847  21652239.826    21652246.342
  21844698.965   -18519702.42949 -14218697.31147  21844698.410    21844705.336
  22281908.607   -18023590.12949 -13821923.22247  22281907.996    22281911.643
  23439957.973    -9845830.15649  -7663799.90146  23439957.445    23439963.482
  20322504.597   -24729619.92049 -19260610.27948  20322504.633    20322509.225
  23392091.712   -12346617.65349  -9603361.15246  23392091.092    23392098.902
  24077749.812    -7617991.37449  -5927079.04645  24077749.021    24077757.309
 04  7 14  0 42 30.0000000  0  9G 3G27G 1G23G16G13G 8G19G20
  23483689.120    -9832476.65749  -7498309.37946  23483688.690    23483696.588
  21644317.997   -18976361.59549 -14772147.76547  21644317.531    21644324.025
  21856695.522   -18456660.11649 -14169573.46147  21856694.975    21856701.925
  22296679.773   -17945967.05449 -13761437.75147  22296679.220    22296682.844
  23457127.709    -9755602.25949  -7593492.49846  23457127.229    23457133.424
  20318865.576   -24748743.22249 -19275511.55348  20318865.602    20318870.181
  23376699.761   -12427502.97149  -9666388.62046  23376699.108    23376706.894
  24724996.629    -3823855.88149  -2966211.11445  24724995.652    24725003.905
  24099393.430    -7504254.24149  -5838452.84345  24099392.567    24099400.943
 04  7 14  0 43  0.0000000  0  9G 3G27G 1G23G16G13G 8G19G20
  23474973.380    -9878278.12049  -7533998.78646  23474972.975    23474980.911
  21636430.285   -19017811.53749 -14804446.40647  21636429.841    21636436.339
  21868748.489   -18393321.34949 -14120218.60547  21868748.001    21868754.932
  22311503.132   -17868070.19949 -13700738.94247  22311502.538    22311506.128
  23474349.850    -9665099.18449  -7522970.66746  23474349.366    23474355.674
  20315297.396   -24767494.18749 -19290122.70048  20315297.422    20315302.009
  23361336.015   -12508240.16149  -9729300.65346  23361335.304    23361343.105
  24709327.675    -3906196.55949  -3030372.54745  24709326.659    24709334.759
  24121047.680    -7390460.58549  -5749782.60245  24121046.796    24121055.292
 04  7 14  0 43 30.0000000  0  9G 3G27G 1G23G16G13G 8G19G20
  23466337.143    -9923661.47349  -7569362.40646  23466336.723    23466344.600
  21628577.681   -19059077.01549 -14836601.30947  21628577.248    21628583.749
  21880858.466   -18329683.43249 -14070630.65747  21880857.957    21880864.849
  22326378.847   -17789897.77049 -13639825.40547  22326378.280    22326381.874
  23491624.460    -9574320.78649  -7452234.30646  23491624.027    23491630.326
  20311800.800   -24785868.94449 -19304440.69348  20311800.813    20311805.392
  23346000.929   -12588826.38649  -9792095.05446  23346000.170    23346007.953
  24693666.785    -3988494.25549  -3094500.50545  24693665.781    24693673.982
  24142712.691    -7276610.17449  -5661068.13145  24142711.898    24142720.358
 04  7 14  0 44  0.0000000  0  9G 3G27G 1G23G16G13G 8G19G20
  23457780.750    -9968624.83349  -7604398.75745  23457780.467    23457788.326
  21620760.112   -19100158.78249 -14868613.06347  21620759.660    21620766.124
  21893025.099   -18265747.31949 -14020810.34247  21893024.594    21893031.528
  22341306.801   -17711450.88449 -13578698.00047  22341306.245    22341309.873
  23508951.092    -9483270.08849  -7381285.75346  23508950.572    23508956.630
  20308375.868   -24803867.05549 -19318465.20048  20308375.864    20308380.471
  23330694.485   -12669261.89849  -9854772.02046  23330693.757    23330701.559
  24678014.678    -4070746.82949  -3158593.25545  24678013.597    24678021.746
  24164387.928    -7162706.18249  -5572311.89645  24164387.202    24164395.620
 04  7 14  0 44 30.0000000  0  9G 3G27G 1G23G16G13G 8G19G20
  23449304.743   -10013166.28649  -7639106.34146  23449304.415    23449312.396
  21612977.371   -19141057.29849 -14900482.02447  21612976.907    21612983.374
  21905248.479   -18201513.33149 -13970757.92547  21905247.933    21905254.882
  22356286.904   -17632730.24949 -13517357.29747  22356286.265    22356289.988
  23526328.881    -9391949.87549  -7310127.18146  23526328.331    23526334.187
  20305022.934   -24821486.89549 -19332194.94748  20305022.945    20305027.557
  23315416.770   -12749546.38349  -9917331.29446  23315416.043    23315423.855
  24662371.929    -4152951.57149  -3222648.73845  24662370.536    24662378.582
  24186072.964    -7048751.61949  -5483516.27645  24186072.130    24186080.602
 04  7 14  0 45  0.0000000  0  9G 3G27G 1G23G16G13G 8G19G20
  23440909.436   -10057283.25349  -7673483.16646  23440909.156    23440917.145
  21605229.446   -19181772.68549 -14932208.28047  21605228.991    21605235.455
  21917528.353   -18136981.84049 -13920473.68147  21917527.881    21917534.851
  22371318.718   -17553736.69649 -13455803.92247  22371318.219    22371322.007
  23543757.167    -9300362.88449  -7238760.72845  23543756.736    23543762.651
  20301742.216   -24838727.26849 -19345629.00348  20301742.216    20301746.838
  23300167.891   -12829679.28849  -9979772.46346  23300167.210    23300174.985
  24646738.198    -4235105.56749  -3286664.68245  24646737.039    24646745.116
  24207767.144    -6934749.15649  -5394683.31545  24207766.172    24207774.666
 04  7 14  0 45 30.0000000  0  9G 3G27G 1G23G16G13G 8G19G20
  23432595.555   -10100973.07649  -7707527.15646  23432595.281    23432603.220
  21597516.348   -19222305.03749 -14963791.92147  21597515.921    21597522.399
  21929864.956   -18072152.92449 -13869957.67447  21929864.421    21929871.361
  22386402.534   -17474470.77949 -13394038.31447  22386402.036    22386405.849
  23561235.834    -9208511.34849  -7167188.14545  23561235.476    23561241.449
  20298533.944   -24855586.62449 -19358766.16748  20298533.947    20298538.582
  23284948.021   -12909660.24649 -10042095.24046  23284947.346    23284955.067
  24631114.826    -4317205.29149  -3350638.34345  24631113.985    24631121.934
  24229469.880    -6820701.12749  -5305814.84845  24229468.968    24229477.426
 04  7 14  0 46  0.0000000  0  9G 3G27G 1G23G16G13G 8G19G20
  23424363.289   -10144233.97949  -7741236.90746  23424363.071    23424370.896
  21589837.958   -19262654.92449 -14995233.37947  21589837.547    21589844.066
  21942258.031   -18007027.31849 -13819210.48347  21942257.461    21942264.388
  22401538.014   -17394933.60349 -13332061.34447  22401537.498    22401541.313
  23578764.356    -9116398.41949  -7095411.87845  23578763.981    23578770.017
  20295398.375   -24872064.22249 -19371605.85548  20295398.388    20295403.009
  23269757.003   -12989489.26149 -10104299.61046  23269756.343    23269764.040
  24615502.741    -4399248.36849  -3414567.84345  24615501.553    24615509.529
  24251180.632    -6706610.84049  -5216913.45845  24251179.788    24251188.257
 04  7 14  0 46 30.0000000  0  9G 3G27G 1G23G16G13G 8G19G20
  23416213.113   -10187063.81549  -7774610.78146  23416212.833    23416220.696
  21582194.240   -19302822.84749 -15026533.04747  21582193.848    21582200.381
  21954707.337   -17941605.62949 -13768232.57647  21954706.793    21954713.718
  22416724.966   -17315126.16049 -13269873.77247  22416724.394    22416728.202
  23596342.252    -9024026.66649  -7023433.93045  23596341.823    23596347.876
  20292335.653   -24888158.92249 -19384147.17948  20292335.668    20292340.292
  23254594.928   -13069166.35849 -10166385.60346  23254594.240    23254601.904
  24599901.582    -4481232.14849  -3478451.14045  24599900.433    24599908.440
  24272898.808    -6592480.98449  -5127981.24945  24272897.952    24272906.623
 04  7 14  0 47  0.0000000  0  9G 3G27G 1G23G16G13G 8G19G20
  23408145.365   -10229460.16149  -7807646.84546  23408144.978    23408152.802
  21574585.059   -19342809.26549 -15057691.27647  21574584.676    21574591.220
  21967212.925   -17875888.29049 -13717024.29647  21967212.386    21967219.344
  22431963.127   -17235049.35249 -13207476.30647  22431962.535    22431966.337
  23613968.689    -8931399.08649  -6951256.63945  23613968.240    23613974.222
  20289346.074   -24903869.38349 -19396389.09948  20289346.078    20289350.686
  23239461.740   -13148691.34149 -10228353.07746  23239461.096    23239468.702
  24584311.943    -4563153.86549  -3542286.10045  24584311.125    24584319.132
  24294624.103    -6478314.52849  -5039020.51945  24294623.182    24294631.854
 04  7 14  0 47 30.0000000  0  9G 3G27G 1G23G16G13G 8G19G20
  23400160.696   -10271419.87549  -7840342.68646  23400160.286    23400168.099
  21567010.638   -19382613.45249 -15088707.51247  21567010.229    21567016.781
  21979774.911   -17809874.59349 -13665585.08247  21979774.399    21979781.388
  22447252.540   -17154703.07649 -13144868.87247  22447251.931    22447255.766
  23631643.474    -8838517.10449  -6878881.11845  23631643.054    23631649.148
  20286429.990   -24919193.38649 -19408329.87948  20286430.027    20286434.600
  23224357.680   -13228062.89349 -10290200.98446  23224357.082    23224364.649
  24568735.400    -4645009.52549  -3606069.57745  24568734.379    24568742.442
  24316356.008    -6364112.86749  -4950032.34745  24316355.077    24316363.829
 04  7 14  0 48  0.0000000  0  9G 3G27G 1G23G16G13G 8G19G20
  23392259.289   -10312941.68449  -7872697.31946  23392258.896    23392266.709
  21559470.636   -19422236.27149 -15119582.42647  21559470.239    21559476.794
  21992393.068   -17743565.76449 -13613915.90247  21992392.583    21992399.593
  22462592.896   -17074088.89249 -13082052.67147  22462592.331    22462596.200
  23649366.055    -8745384.18249  -6806310.05845  23649365.665    23649371.774
  20283587.540   -24934130.74249 -19419969.37248  20283587.554    20283592.119
  23209282.923   -13307281.29749 -10351929.56046  23209282.308    23209289.788
  24553171.865    -4726797.01149  -3669799.92945  24553170.624    24553178.671
  24338093.703    -6249879.93049  -4861019.81145  24338092.949    24338101.905
 04  7 14  0 48 30.0000000  0  9G 3G27G 1G23G16G13G 8G19G20
  23384441.773   -10354022.81849  -7904708.55746  23384441.428    23384449.170
  21551965.169   -19461677.68649 -15150315.98347  21551964.805    21551971.359
  22005067.456   -17676961.66649 -13562016.64447  22005066.959    22005074.034
  22477984.221   -16993207.06849 -13019027.92547  22477983.666    22477987.579
  23667135.990    -8652002.41249  -6733545.10245  23667135.622    23667141.790
  20280819.055   -24948679.41549 -19431305.99848  20280819.041    20280823.613
  23194237.379   -13386346.00049 -10413538.36746  23194236.734    23194244.262
  24537621.528    -4808512.69249  -3733474.36745  24537620.509    24537628.597
  24359837.146    -6135617.67549  -4771984.45345  24359836.436    24359845.479
 04  7 14  0 49  0.0000000  0  9G 3G27G 1G23G16G13G 8G19G20
  23376708.438   -10394661.52849  -7936375.04746  23376708.082    23376715.819
  21544494.105   -19500938.30849 -15180908.65847  21544493.717    21544500.289
  22017797.835   -17610063.26949 -13509888.06047  22017797.316    22017804.432
  22493426.282   -16912059.00049 -12955795.72146  22493425.655    22493429.595
  23684952.759    -8558375.02949  -6660588.74045  23684952.308    23684958.605
  20278124.557   -24962838.82349 -19442339.30048  20278124.567    20278129.152
  23179221.027   -13465257.40749 -10475027.72246  23179220.370    23179227.863
  24522085.468    -4890154.44949  -3797091.19445  24522084.445    24522092.527
  24381585.730    -6021329.46249  -4682928.84145  24381584.820    24381593.867
 04  7 14  0 49 30.0000000  0  9G 3G27G 1G23G16G13G 8G19G20
  23369059.700   -10434855.15649  -7967694.72646  23369059.387    23369067.169
  21537057.428   -19540018.25949 -15211360.55747  21537057.026    21537063.594
  22030584.202   -17542870.64549 -13457530.21247  22030583.664    22030590.802
  22508918.783   -16830645.14949 -12892356.40846  22508918.210    22508922.199
  23702815.807    -8464504.31249  -6587442.76645  23702815.392    23702821.629
  20275504.429   -24976607.61349 -19453068.22748  20275504.440    20275509.053
  23164233.940   -13544014.71949 -10536396.99046  23164233.305    23164240.828
  24506564.327    -4971718.92849  -3860647.78745  24506563.129    24506571.177
  24403338.678    -5907017.49549  -4593854.73145  24403337.751    24403346.839
 04  7 14  0 50  0.0000000  0  9G 3G27G 1G23G16G13G 8G19G20
  23361496.168   -10474601.61049  -7998665.94346  23361495.784    23361503.738
  21529655.062   -19578917.54149 -15241671.67647  21529654.680    21529661.271
  22043426.494   -17475383.87149 -13404943.15247  22043425.974    22043433.127
  22524461.760   -16748966.22849 -12828710.55146  22524461.210    22524465.196
  23720724.678    -8370392.66449  -6514109.06545  23720724.294    23720730.614
  20272958.971   -24989984.07549 -19463491.44048  20272958.983    20272963.616
  23149276.231   -13622617.55349 -10597645.89446  23149275.581    23149283.238
  24491058.266    -5053202.77749  -3924141.57745  24491057.174    24491065.117
  24425095.406    -5792684.50549  -4504764.25345  24425094.779    24425103.841
 04  7 14  0 50 30.0000000  0  9G 3G27G 1G23G16G13G 8G19G20
  23354018.042   -10513898.59149  -8029286.93846  23354017.710    23354025.782
  21522287.085   -19617636.42849 -15271842.22647  21522286.681    21522293.264
  22056324.655   -17407603.46349 -13352127.29047  22056324.185    22056331.338
  22540055.159   -16667022.86849 -12764858.63346  22540054.575    22540058.576
  23738678.920    -8276042.93849  -6440589.85745  23738678.505    23738684.881
  20270488.354   -25002967.14849 -19473608.12148  20270488.363    20270493.019
  23134347.855   -13701065.62349 -10658774.20946  23134347.255    23134355.105
  24475568.228    -5134603.23449  -3987570.37445  24475567.198    24475574.901
  24446855.862    -5678333.05349  -4415659.38345  24446855.244    24446864.390
 04  7 14  0 51  0.0000000  0  9G 3G27G 1G23G16G13G 8G19G20
  23346626.108   -10552743.88749  -8059555.96646  23346625.717    23346633.740
  21514953.378   -19656175.23149 -15301872.45147  21514952.988    21514959.534
  22069278.692   -17339529.87649 -13299082.97347  22069278.226    22069285.328
  22555698.655   -16584816.10149 -12700801.46246  22555698.075    22555702.066
  23756678.119    -8181457.57049  -6366887.02145  23756677.584    23756683.893
  20268092.805   -25015555.74149 -19483417.41148  20268092.811    20268097.496
  23119449.092   -13779358.67849 -10719781.72646  23119448.519    23119456.421
  24460094.667    -5215917.38649  -4050931.94245  24460093.629    24460101.126
  24468619.624    -5563965.95849  -4326542.33345  24468618.737    24468627.882
 04  7 14  0 51 30.0000000  0  9G 3G27G 1G23G16G13G 8G19G20
  23339320.477   -10591135.49349  -8089471.46346  23339320.115    23339327.970
  21507653.933   -19694534.17649 -15331762.52247  21507653.551    21507660.043
  22082288.460   -17271163.56549 -13245810.55947  22082287.970    22082295.055
  22571392.045   -16502346.93049 -12636539.82546  22571391.521    22571395.528
  23774721.555    -8086639.21749  -6293002.63145  23774721.043    23774727.279
  20265772.682   -25027748.38249 -19492918.16848  20265772.677    20265777.283
  23104579.993   -13857496.53149 -10780668.30946  23104579.382    23104587.177
  24444637.981    -5297142.46349  -4114224.08545  24444636.911    24444644.348
  24490385.666    -5449585.83849  -4237415.12545  24490384.600    24490393.969
 04  7 14  0 52  0.0000000  0  9G 3G27G 1G23G16G13G 8G19G20
  23332101.665   -10629071.36949  -8119031.85146  23332101.262    23332108.925
  21500388.655   -19732713.61149 -15361512.71847  21500388.241    21500394.674
  22095353.775   -17202504.96949 -13192310.39147  22095353.285    22095360.414
  22587135.317   -16419615.97349 -12572074.20046  22587134.752    22587138.770
  23792808.773    -7991590.54649  -6218938.76245  23792808.322    23792814.474
  20263528.052   -25039544.10649 -19502109.63848  20263528.061    20263532.639
  23089740.411   -13935478.94649 -10841433.75346  23089739.766    23089747.553
  24429198.998    -5378275.48249  -4177444.49645  24429197.669    24429205.114
  24512153.630    -5335195.28049  -4148279.79845  24512152.470    24512161.888
 04  7 14  0 52 30.0000000  0  9G 3G27G 1G23G16G13G 8G19G20
  23324969.886   -10666548.60049  -8148234.85446  23324969.470    23324977.152
  21493157.619   -19770713.11149 -15391122.70547  21493157.197    21493163.567
  22108474.681   -17133554.01949 -13138582.42047  22108474.252    22108481.363
  22602928.266   -16336623.67249 -12507404.92246  22602927.679    22602931.717
  23810939.250    -7896313.47649  -6144696.95645  23810938.880    23810945.089
  20261359.290   -25050940.95049 -19510990.29248  20261359.293    20261363.848
  23074930.527   -14013304.93349 -10902077.30446  23074929.938    23074937.706
  24413777.900    -5459312.68549  -4240590.25345  24413776.625    24413784.081
  24533923.048    -5220796.63249  -4059138.14645  24533921.890    24533931.305
 04  7 14  0 53  0.0000000  0  9G 3G27G 1G23G16G13G 8G19G20
  23317925.656   -10703565.49649  -8177079.15946  23317925.257    23317932.940
  21485960.688   -19808533.26949 -15420592.94847  21485960.269    21485966.604
  22121651.204   -17064311.28549 -13084627.08347  22121650.760    22121657.841
  22618770.615   -16253371.28849 -12442532.99046  22618770.051    22618774.174
  23829113.057    -7800810.84849  -6070279.36145  23829112.469    23829118.652
  20259266.619   -25061938.11049 -19519559.50548  20259266.612    20259271.179
  23060150.505   -14090974.34149 -10962598.84746  23060149.880    23060157.624
  24398375.498    -5540251.31649  -4303659.20445  24398374.497    24398381.933
  24555693.180    -5106392.54549  -3969992.27045  24555692.318    24555701.869
 04  7 14  0 53 30.0000000  0  9G 3G27G 1G23G16G13G 8G19G20
  23310969.588   -10740120.06449  -8205563.21646  23310969.192    23310976.791
  21478797.834   -19846174.39549 -15449923.69047  21478797.398    21478803.763
  22134883.116   -16994777.45749 -13030444.91647  22134882.630    22134889.715
  22634662.371   -16169859.64949 -12377459.03646  22634661.809    22634665.931
  23847329.063    -7705085.36049  -5995688.13345  23847328.498    23847334.680
  20257250.204   -25072534.56549 -19527816.48348  20257250.178    20257254.745
  23045400.208   -14168487.43049 -11022998.58746  23045399.602    23045407.291
  24382992.673    -5621088.68149  -4366649.23545  24382991.556    24382998.982
  24577464.111    -4991985.71049  -3880844.24945  24577463.355    24577473.074
 04  7 14  0 54  0.0000000  0  9G 3G27G 1G23G16G13G 8G19G20
  23304101.933   -10776209.68349  -8233684.94946  23304101.536    23304109.103
  21471669.081   -19883636.18949 -15479114.69047  21471668.643    21471675.089
  22148170.426   -16924952.42749 -12976035.84047  22148169.921    22148176.987
  22650603.388   -16086089.03449 -12312183.28946  22650602.834    22650606.968
  23865587.055    -7609139.07549  -5920924.83845  23865586.388    23865592.721
  20255310.324   -25082728.55049 -19535759.84548  20255310.311    20255314.917
  23030679.917   -14245843.07249 -11083275.64146  23030679.342    23030686.970
  24367629.817    -5701821.15149  -4429557.53445  24367628.682    24367635.906
  24599235.233    -4877578.41849  -3791695.88945  24599234.564    24599244.266
 04  7 14  0 54 30.0000000  0  9G 3G27G 1G23G16G13G 8G19G20
  23297322.922   -10811833.42549  -8261443.68246  23297322.550    23297330.226
  21464574.171   -19920919.88649 -15508166.91347  21464573.735    21464580.273
  22161512.939   -16854837.69349 -12921401.02447  22161512.364    22161519.436
  22666593.306   -16002061.48949 -12246707.32846  22666592.804    22666596.925
  23883886.232    -7512975.66849  -5845992.34745  23883885.680    23883892.050
  20253447.099   -25092519.68049 -19543389.30148  20253447.090    20253451.688
  23015989.568   -14323042.01749 -11143430.58446  23015988.912    23015996.360
  24352287.193    -5782446.80549  -4492382.60845  24352286.063    24352293.363
  24621005.752    -4763174.20949  -3702549.92045  24621005.103    24621014.735
 04  7 14  0 55  0.0000000  0  9G 3G27G 1G23G16G13G 8G19G20
  23290633.261   -10846987.99349  -8288836.81746  23290632.860    23290640.440
  21457513.274   -19958024.80149 -15537079.82747  21457512.843    21457519.498
  22174910.523   -16784432.77449 -12866540.08847  22174909.970    22174917.060
  22682632.291   -15917776.69049 -12181030.92146  22682631.741    22682635.828
  23902226.645    -7416596.63849  -5770891.84845  23902226.103    23902232.408
  20251660.902   -25101906.11949 -19550703.40948  20251660.907    20251665.516
  23001329.256   -14400082.74549 -11203462.24246  23001328.572    23001335.932
  24336965.401    -5862961.48049  -4555121.21745  24336964.510    24336971.727
  24642775.593    -4648774.81449  -3613407.69345  24642774.792    24642784.366
 04  7 14  0 55 30.0000000  0  9G 3G27G 1G23G16G13G 8G19G20
  23284032.960   -10881672.00049  -8315863.28946  23284032.599    23284040.212
  21450486.327   -19994951.48749 -15565853.86247  21450485.908    21450492.581
  22188363.230   -16713738.43449 -12811453.62547  22188362.716    22188369.788
  22698719.899   -15833236.17849 -12115155.24946  22698719.353    22698723.394
  23920607.436    -7320005.00349  -5695625.69745  23920607.028    23920613.268
  20249951.962   -25110886.76849 -19557701.31748  20249951.980    20249956.562
  22986698.867   -14476965.80649 -11263371.06546  22986698.160    22986705.510
  24321665.562    -5943362.74949  -4617771.43745  24321664.432    24321671.748
  24664544.040    -4534383.24549  -3524271.56745  24664542.982    24664552.639
 04  7 14  0 56  0.0000000  0  9G 3G27G 1G23G16G13G 8G19G20
  23277522.727   -10915883.59449  -8342521.65446  23277522.327    23277529.983
  21443493.244   -20031700.30249 -15594489.29947  21443492.839    21443499.461
  22201870.846   -16642755.59449 -12756142.36447  22201870.305    22201877.404
  22714855.954   -15748440.90849 -12049081.06446  22714855.443    22714859.424
  23939028.491    -7223203.52349  -5620196.01545  23939027.906    23939033.942
  20248320.346   -25119461.04249 -19564382.57348  20248320.349    20248324.936
  22972098.498   -14553690.98349 -11323156.85746  22972097.828    22972105.113
  24306387.658    -6023647.96549  -4680331.23345  24306386.529    24306393.835
  24686310.159    -4420002.29949  -3435143.74945  24686309.083    24686318.706
 04  7 14  0 56 30.0000000  0  9G 3G27G 1G23G16G13G 8G19G20
  23271102.843   -10949620.13349  -8368809.82446  23271102.450    23271110.094
  21436534.059   -20068270.99049 -15622985.93347  21436533.666    21436540.240
  22215433.404   -16571483.91549 -12700606.03147  22215432.836    22215439.985
  22731040.504   -15663391.27849 -11982808.67946  22731039.889    22731043.863
  23957488.747    -7126193.99249  -5544604.24045  23957488.126    23957494.413
  20246766.464   -25127626.91449 -19570745.59548  20246766.465    20246771.025
  22957528.342   -14630257.88449 -11382819.31646  22957527.654    22957534.889
  24291132.567    -6103813.21549  -4742797.56845  24291131.500    24291138.831
  24708073.814    -4305634.04849  -3346025.79445  24708072.747    24708082.466
 04  7 14  0 57  0.0000000  0  9G 3G27G 1G23G16G13G 8G19G20
  23264773.771   -10982879.58649  -8394726.25046  23264773.363    23264781.038
  21429608.789   -20104663.68449 -15651343.86747  21429608.391    21429614.928
  22229050.754   -16499924.15349 -12644845.21747  22229050.239    22229057.445
  22747273.061   -15578088.33549 -11916338.91046  22747272.531    22747276.516
  23975988.223    -7028979.22349  -5468852.53145  23975987.559    23975993.725
  20245290.497   -25135383.16449 -19576789.42948  20245290.507    20245295.059
  22942988.375   -14706665.70149 -11442357.82346  22942987.670    22942994.897
  24275901.046    -6183855.63949  -4805168.17845  24275899.815    24275907.169
  24729834.388    -4191280.99249  -3256919.68345  24729833.612    24729843.056
 04  7 14  0 57 30.0000000  0  9G 3G27G 1G23G16G13G 8G19G20
  23258535.840   -11015659.91649  -8420269.34046  23258535.471    23258543.067
  21422717.382   -20140878.60749 -15679563.27947  21422716.952    21422723.427
  22242722.973   -16428076.47149 -12588860.06047  22242722.413    22242729.627
  22763553.842   -15492532.63749 -11849672.19046  22763553.270    22763557.292
  23994526.140    -6931561.67949  -5392942.81145  23994525.496    23994531.655
  20243892.697   -25142728.79949 -19582513.30348  20243892.685    20243897.251
  22928478.729   -14782914.13349 -11501772.13346  22928478.035    22928485.228
  24260693.117    -6263772.25449  -4867440.77245  24260692.112    24260699.374
  24751591.602    -4076945.74049  -3167827.46645  24751590.980    24751600.358
 04  7 14  0 58  0.0000000  0  9G 3G27G 1G23G16G13G 8G19G20
  23252389.337   -11047959.37149  -8445437.72346  23252389.056    23252396.605
  21415859.724   -20176915.91349 -15707644.28747  21415859.289    21415865.712
  22256449.793   -16355941.48649 -12532651.02946  22256449.261    22256456.496
  22779882.431   -15406725.20249 -11782809.31846  22779881.876    22779885.958
  24013102.158    -6833943.60049  -5316876.83945  24013101.536    24013107.956
  20242573.233   -25149662.72349 -19587916.36448  20242573.218    20242577.759
  22913999.416   -14859003.23449 -11561062.29046  22913998.729    22914005.858
  24245510.046    -6343560.16449  -4929613.06445  24245508.944    24245516.026
  24773345.180    -3962630.82749  -3078751.07345  24773344.560    24773354.007
 04  7 14  0 58 30.0000000  0  8G 3G27G 1G23G16G13G 8G19
  23246335.274   -11079773.35249  -8470227.81346  23246334.917    23246342.611
  21409036.317   -20212773.25449 -15735585.06047  21409035.893    21409042.268
  22270231.703   -16283517.15049 -12476216.53446  22270231.170    22270238.415
  22796259.367   -15320664.19749 -11715748.84246  22796258.788    22796262.855
  24031716.310    -6736125.05549  -5240654.66345  24031715.679    24031722.362
  20241332.795   -25156181.00849 -19592995.55148  20241332.817    20241337.347
  22899550.936   -14934929.86849 -11620225.85446  22899550.242    22899557.394
  24230352.475    -6423213.49349  -4991680.48845  24230351.307    24230358.353
 04  7 14  0 59  0.0000000  0  8G 3G27G 1G23G16G13G 8G19
  23240373.489   -11111102.87549  -8494640.38646  23240373.124    23240380.757
  21402246.499   -20248453.93949 -15763388.18647  21402246.063    21402252.407
  22284067.979   -16210807.09549 -12419559.40446  22284067.471    22284074.725
  22812683.758   -15234354.03749 -11648494.23846  22812683.098    22812687.207
  24050367.369    -6638111.78249  -5164280.74945  24050366.887    24050373.599
  20240171.108   -25162285.85249 -19597752.57648  20240171.101    20240175.624
  22885132.933   -15010696.58249 -11679264.79646  22885132.273    22885139.382
  24215220.430    -6502732.21649  -5053643.04245  24215219.353    24215226.405
 04  7 14  0 59 30.0000000  0  8G 3G27G 1G23G16G13G 8G19
  23234503.968   -11141947.32449  -8518675.00546  23234503.658    23234511.250
  21395490.099   -20283959.08949 -15791054.52747  21395489.641    21395495.981
  22297958.367   -16137812.90549 -12362680.86446  22297957.855    22297965.153
  22829155.046   -15147796.49449 -11581046.86146  22829154.475    22829158.588
  24069055.127    -6539907.21449  -5087757.75945  24069054.600    24069061.471
  20239088.156   -25167976.98649 -19602187.23248  20239088.121    20239092.636
  22870745.246   -15086304.29649 -11738179.84946  22870744.553    22870751.698
  24200114.488    -6582114.60349  -5115499.34045  24200113.311    24200120.406
 04  7 14  1  0  0.0000000  0  8G 3G27G 1G23G16G13G 8G19
  23228727.481   -11172303.82049  -8542329.39146  23228727.057    23228734.603
  21388767.190   -20319288.04949 -15818583.57647  21388766.745    21388773.104
  22311902.850   -16064534.26449 -12305580.66646  22311902.361    22311909.677
  22845673.639   -15060991.53049 -11513406.69746  22845673.009    22845677.169
  24087778.880    -6441513.20449  -5011087.16245  24087778.387    24087785.271
  20238084.242   -25173252.48549 -19606298.01348  20238084.226    20238088.738
  22856387.965   -15161752.03049 -11796970.23646  22856387.263    22856394.415
  24185034.989    -6661356.70649  -5177246.33845  24185033.960    24185041.034
 04  7 14  1  0 30.0000000  0  8G 3G27G 1G23G16G13G 8G19
  23223043.986   -11202170.72249  -8565602.28746  23223043.561    23223051.143
  21382077.718   -20354441.20149 -15845975.63647  21382077.316    21382083.699
  22325901.423   -15990971.81449 -12248259.33446  22325900.830    22325908.214
  22862238.965   -14973940.48249 -11445574.77546  22862238.322    22862242.549
  24106538.356    -6342932.28549  -4934270.91445  24106537.872    24106544.715
  20237159.656   -25178111.17049 -19610084.00448  20237159.656    20237164.190
  22842061.142   -15237039.82949 -11855636.00346  22842060.401    22842067.588
  24169983.008    -6740455.67749  -5238881.79445  24169981.929    24169988.940
 04  7 14  1  1  0.0000000  0  8G 3G27G 1G23G16G13G 8G19
  23217454.138   -11231545.36049  -8588491.58046  23217453.691    23217461.255
  21375421.855   -20389418.12849 -15873230.37747  21375421.414    21375427.828
  22339953.866   -15917125.39049 -12190716.71946  22339953.332    22339960.842
  22878851.185   -14886643.38349 -11377551.13646  22878850.501    22878854.733
  24125333.070    -6244166.12049  -4857310.31445  24125332.490    24125339.351
  20236314.723   -25182551.39949 -19613543.92748  20236314.691    20236319.255
  22827764.961   -15312166.42449 -11914176.16146  22827764.258    22827771.481
  24154959.045    -6819407.53549  -5300402.62245  24154957.841    24154964.839
 04  7 14  1  1 30.0000000  0  8G 3G27G 1G23G16G13G 8G19
  23211958.341   -11260426.08449  -8610996.00646  23211957.906    23211965.406
  21368799.579   -20424218.59149 -15900347.61447  21368799.128    21368805.556
  22354060.318   -15842995.31049 -12132953.07346  22354059.826    22354067.374
  22895509.947   -14799101.14249 -11309336.46446  22895509.259    22895513.450
  24144162.548    -6145217.09549  -4780207.23445  24144161.975    24144168.685
  20235549.606   -25186572.03449 -19616676.89348  20235549.581    20235554.147
  22813499.480   -15387131.45549 -11972590.41246  22813498.833    22813506.097
  24139963.542    -6898209.35849  -5361806.54545  24139962.402    24139969.183
 04  7 14  1  2  0.0000000  0  8G 3G27G 1G23G16G13G 8G19
  23206556.879   -11288811.10649  -8633114.19146  23206556.465    23206563.863
  21362210.741   -20458843.10449 -15927327.74747  21362210.270    21362216.696
  22368220.763   -15768582.40949 -12074969.05046  22368220.243    22368227.706
  22912215.211   -14711314.81349 -11240931.60046  22912214.524    22912218.698
  24163026.155    -6046087.95049  -4702963.79745  24163025.565    24163032.332
  20234864.539   -25190172.07149 -19619482.11648  20234864.515    20234869.077
  22799264.912   -15461934.78549 -12030878.67746  22799264.188    22799271.499
  24124997.210    -6976858.27849  -5423091.30645  24124995.953    24125002.591
 04  7 14  1  2 30.0000000  0  8G 3G27G 1G23G16G13G 8G19
  23201250.094   -11316698.79749  -8654844.83446  23201249.649    23201257.064
  21355655.295   -20493292.08249 -15954171.09947  21355654.818    21355661.241
  22382434.820   -15693887.60749 -12016765.35246  22382434.323    22382441.696
  22928966.665   -14623285.65249 -11172337.51346  22928965.957    22928970.168
  24181923.593    -5946781.38949  -4625582.11945  24181923.053    24181929.771
  20234259.664   -25193350.66549 -19621958.94448  20234259.653    20234264.231
  22785061.015   -15536576.22549 -12089040.79046  22785060.341    22785067.665
  24110060.364    -7055351.32749  -5484254.62545  24110059.094    24110065.735
 04  7 14  1  3  0.0000000  0  8G 3G27G 1G23G16G13G 8G19
  23196038.217   -11344087.31349  -8676186.50946  23196037.777    23196045.171
  21349133.205   -20527565.74249 -15980877.83947  21349132.733    21349139.157
  22396702.357   -15618911.43549 -11958342.40946  22396701.836    22396709.206
  22945764.128   -14535014.49349 -11103554.85246  22945763.448    22945767.688
  24200854.415    -5847299.82549  -4548064.07645  24200853.799    24200860.571
  20233735.197   -25196106.62849 -19624106.44848  20233735.217    20233739.780
  22770888.125   -15611055.12049 -12147076.23646  22770887.423    22770894.730
  24095153.499    -7133685.54249  -5545294.17245  24095152.473    24095159.175
 04  7 14  1  3 30.0000000  0  8G 3G27G 1G23G16G13G 8G19
  23190921.691   -11370974.33549  -8697137.41246  23190921.280    23190928.714
  21342644.641   -20561663.44649 -16007447.47347  21342644.185    21342650.611
  22411023.425   -15543653.78349 -11899700.12846  22411022.922    22411030.354
  22962607.617   -14446501.65449 -11034583.86746  22962606.948    22962611.233
  24219817.975    -5747645.20449  -4470411.19045  24219817.469    24219824.200
  20233291.522   -25198438.19249 -19625923.25348  20233291.514    20233296.105
  22756746.113   -15685371.34649 -12204984.93246  22756745.433    22756752.784
  24080277.975    -7211857.19949  -5606207.04345  24080276.801    24080283.579
 04  7 14  1  4  0.0000000  0  8G 3G27G 1G23G16G13G 8G19
  23185900.894   -11397358.67849  -8717696.61046  23185900.465    23185907.927
  21336189.423   -20595585.79449 -16033880.46448  21336188.974    21336195.387
  22425397.931   -15468115.60549 -11840839.25446  22425397.380    22425404.793
  22979496.705   -14357748.83949 -10965425.89646  22979496.056    22979500.393
  24238814.135    -5647820.17249  -4392625.50745  24238813.569    24238820.421
  20232928.714   -25200344.83749 -19627408.94948  20232928.705    20232933.268
  22742635.147   -15759524.69449 -12262766.70746  22742634.492    22742641.772
  24065433.636    -7289863.89449  -5666991.38345  24065432.428    24065439.334
 04  7 14  1  4 30.0000000  0  8G 3G27G 1G23G16G13G 8G19
  23180976.163   -11423238.35849  -8737862.56446  23180975.735    23180983.171
  21329767.605   -20629332.87849 -16060176.88148  21329767.149    21329773.525
  22439825.607   -15392297.61749 -11781760.34646  22439825.122    22439832.464
  22996431.354   -14268756.80449 -10896081.52046  22996430.702    22996435.105
  24257842.118    -5547827.25649  -4314709.01045  24257841.595    24257848.389
  20232646.927   -25201825.71849 -19628562.88548  20232646.930    20232651.468
  22728555.297   -15833514.43749 -12320420.99846  22728554.649    22728561.942
  24050621.189    -7367702.20249  -5727644.51345  24050620.182    24050627.100
 04  7 14  1  5  0.0000000  0  8G 3G27G 1G23G16G13G 8G19
  23176147.726   -11448611.97849  -8757634.19046  23176147.287    23176154.713
  21323379.024   -20662905.14849 -16086337.08548  21323378.552    21323384.891
  22454306.437   -15316200.63049 -11722464.04946  22454305.947    22454313.258
  23013411.273   -14179526.76149 -10826551.67646  23013410.657    23013415.059
  24276901.740    -5447669.07149  -4236663.75445  24276901.101    24276907.981
  20232446.354   -25202879.75549 -19629384.20948  20232446.349    20232450.888
  22714506.479   -15907340.94649 -12377948.09346  22714505.885    22714513.156
  24035841.818    -7445369.29049  -5788164.21745  24035840.624    24035847.504
 04  7 14  1  5 30.0000000  0  8G 3G27G 1G23G16G13G 8G19
  23171415.889   -11473478.13049  -8777010.39646  23171415.433    23171422.764
  21317023.618   -20696302.77749 -16112361.20448  21317023.162    21317029.491
  22468840.227   -15239825.18049 -11662950.75446  22468839.716    22468847.018
  23030436.508   -14090059.44749 -10756836.95246  23030435.811    23030440.160
  24295992.400    -5347348.13249  -4158491.65145  24295991.754    24295998.373
  20232327.152   -25203506.05649 -19629872.23948  20232327.151    20232331.714
  22700488.819   -15981004.16349 -12435347.96346  22700488.249    22700495.439
  24021095.202    -7522862.27649  -5848548.27145  24021094.183    24021101.040
 04  7 14  1  6  0.0000000  0  8G 3G27G 1G23G16G13G 8G19
  23166780.868   -11497835.09749  -8795989.82946  23166780.432    23166787.779
  21310701.425   -20729526.05449 -16138249.46248  21310700.969    21310707.279
  22483426.867   -15163172.10749 -11603221.13346  22483426.358    22483433.645
  23047506.270   -14000356.71749 -10686938.77746  23047505.684    23047510.031
  24315113.487    -5246867.03449  -4080194.73045  24315112.788    24315119.221
  20232289.527   -25203703.75949 -19630026.29448  20232289.527    20232294.125
  22686502.321   -16054503.80749 -12492620.36446  22686501.702    22686508.781
  24006382.546    -7600178.34949  -5908794.46945  24006381.349    24006388.125
 04  7 14  1  6 30.0000000  0  8G 3G27G 1G23G16G13G 8G19
  23162243.108   -11521681.24849  -8814571.21746  23162242.644    23162249.937
  21304412.392   -20762575.02949 -16164001.90748  21304411.933    21304418.289
  22498066.245   -15086241.80449 -11543275.49046  22498065.733    22498073.021
  23064621.044   -13910418.87449 -10616857.42046  23064620.345    23064624.704
  24334264.344    -5146227.89549  -4001774.70145  24334263.720    24334270.354
  20232333.716   -25203471.50749 -19629845.32348  20232333.727    20232338.328
  22672547.076   -16127838.98149 -12549764.61546  22672546.463    22672553.439
  23991703.947    -7677314.20149  -5968900.25945  23991702.800    23991709.469
 04  7 14  1  7  0.0000000  0  8G 3G27G 1G23G16G13G 8G19
  23157802.893   -11545014.37449  -8832752.86046  23157802.437    23157809.797
  21298156.600   -20795449.13049 -16189618.08348  21298156.143    21298162.536
  22512758.487   -15009034.47649 -11483113.99346  22512757.891    22512765.164
  23081780.080   -13820246.51149 -10546593.29046  23081779.546    23081784.024
  24353444.877    -5045432.91849  -3923233.20745  24353444.341    24353450.980
  20232460.030   -25202807.93149 -19629328.25448  20232460.009    20232464.600
  22658623.266   -16201009.25649 -12606780.38346  22658622.642    22658629.562
  23977060.357    -7754266.26949  -6028862.81345  23977059.178    23977065.852
 04  7 14  1  7 30.0000000  0  8G 3G27G 1G23G16G13G 8G19
  23153460.533   -11567833.25749  -8850533.78946  23153460.143    23153467.465
  21291933.966   -20828149.14349 -16215098.60448  21291933.521    21291939.916
  22527503.005   -14931551.22849 -11422737.47246  22527502.494    22527509.800
  23098983.666   -13729841.32749 -10476147.76646  23098983.097    23098987.614
  24372654.634    -4944484.83749  -3844572.40445  24372654.133    24372660.860
  20232668.456   -25201712.45949 -19628474.64548  20232668.455    20232673.029
  22644730.757   -16274014.94149 -12663667.89146  22644730.050    22644737.004
  23962452.233    -7831032.12249  -6088680.28745  23962451.061    23962457.740
 04  7 14  1  8  0.0000000  0  8G 3G27G 1G23G16G13G 8G19
  23149216.487   -11590135.92949  -8867912.47746  23149216.102    23149223.359
  21285744.539   -20860674.71549 -16240443.19348  21285744.086    21285750.442
  22542300.142   -14853792.35149 -11362146.20146  22542299.591    22542306.864
  23116231.528   -13639203.77849 -10405521.17646  23116230.886    23116235.405
  24391892.969    -4843385.78549  -3765793.98045  24391892.494    24391899.508
  20232959.425   -25200183.57849 -19627283.31648  20232959.414    20232963.976
  22630869.476   -16346855.44249 -12720426.69446  22630868.816    22630875.893
  23947880.016    -7907608.23049  -6148349.90346  23947878.979    23947885.669
 04  7 14  1  8 30.0000000  0  8G 3G27G 1G23G16G13G 8G19
  23145070.829   -11611920.72149  -8884887.62346  23145070.511    23145077.851
  21279588.323   -20893026.00949 -16265651.98548  21279587.878    21279594.188
  22557149.531   -14775758.41849 -11301340.58546  22557148.990    22557156.313
  23133523.329   -13548334.76449 -10334714.22246  23133522.765    23133527.269
  24411159.826    -4742138.05349  -3686899.70045  24411159.476    24411166.355
  20233332.965   -25198220.49049 -19625753.64348  20233332.955    20233337.528
  22617039.857   -16419530.06549 -12777056.23546  22617039.260    22617046.331
  23933344.784    -7983991.39649  -6207869.16846  23933343.671    23933350.364
 04  7 14  1  9  0.0000000  0  8G 3G27G 1G23G16G13G 8G19
  23141023.926   -11633187.17549  -8901458.86446  23141023.583    23141030.956
  21273465.108   -20925203.90149 -16290725.65548  21273464.677    21273470.963
  22572051.067   -14697451.01749 -11240321.88946  22572050.484    22572057.797
  23150858.887   -13457236.14349 -10263728.35646  23150858.244    23150862.752
  24430454.521    -4640744.78649  -3607892.01845  24430454.058    24430460.961
  20233789.209   -25195822.82349 -19623885.33548  20233789.209    20233793.802
  22603241.748   -16492039.62349 -12833557.15346  22603241.102    22603248.191
  23918846.644    -8060179.37149  -6267236.33546  23918845.518    23918852.229
 04  7 14  1  9 30.0000000  0  8G 3G27G 1G23G16G13G 8G19
  23137075.988   -11653933.53849  -8917624.83246  23137075.616    23137083.064
  21267374.884   -20957208.24049 -16315664.09248  21267374.443    21267380.722
  22587004.302   -14618870.72349 -11179090.53946  22587003.812    22587011.209
  23168237.856   -13365908.91249 -10192564.34746  23168237.223    23168241.795
  24449776.383    -4539208.20749  -3528772.67545  24449775.983    24449782.920
  20234328.291   -25192989.83149 -19621677.81148  20234328.286    20234332.860
  22589475.111   -16564383.43849 -12889928.92246  22589474.462    22589481.600
  23904386.217    -8136169.09849  -6326449.03846  23904385.069    23904391.792
 04  7 14  1 10  0.0000000  0  8G 3G27G 1G23G16G13G 8G19
  23133227.304   -11674157.98049  -8933384.11746  23133226.970    23133234.464
  21261317.708   -20989038.95049 -16340467.23348  21261317.266    21261323.548
  22602009.582   -14540017.80849 -11117646.77046  22602009.025    22602016.488
  23185660.256   -13274353.91349 -10121222.86546  23185659.582    23185664.198
  24469125.245    -4437530.46549  -3449543.31145  24469124.807    24469131.684
  20234950.531   -25189719.93249 -19619129.84348  20234950.555    20234955.137
  22575740.186   -16636560.98249 -12946171.13246  22575739.561    22575746.721
  23889964.111    -8211957.20949  -6385504.62946  23889963.023    23889969.736
 04  7 14  1 10 30.0000000  0  8G 3G27G 1G23G16G13G 8G19
  23129478.182   -11693859.60349  -8948736.01346  23129477.886    23129485.437
  21255293.462   -21020696.59649 -16365135.51748  21255292.987    21255299.320
  22617066.442   -14460893.45449 -11055991.47746  22617065.911    22617073.362
  23203125.787   -13182572.49349 -10049704.93846  23203125.130    23203129.645
  24488500.513    -4335714.28249  -3370206.08045  24488500.003    24488506.777
  20235656.032   -25186012.68749 -19616241.08748  20235656.037    20235660.607
  22562036.880   -16708572.52349 -13002283.98946  22562036.218    22562043.393
  23875580.844    -8287541.14949  -6444401.11746  23875579.870    23875586.620
 04  7 14  1 11  0.0000000  0  8G 3G27G 1G23G16G13G 8G19
  23125828.904   -11713036.50449  -8963679.03446  23125828.582    23125836.229
  21249302.167   -21052180.86749 -16389668.70348  21249301.715    21249308.051
  22632174.923   -14381497.88349 -10994124.86546  22632174.382    22632181.918
  23220634.171   -13090565.46949  -9978011.23446  23220633.530    23220638.068
  24507901.563    -4233761.76849  -3290762.60445  24507901.053    24507907.564
  20236444.979   -25181866.80949 -19613010.53648  20236444.971    20236449.560
  22548365.347   -16780416.92449 -13058266.60646  22548364.662    22548371.838
  23861237.239    -8362917.09449  -6503135.54646  23861236.240    23861242.978
 04  7 14  1 11 30.0000000  0  8G 3G27G 1G23G16G13G 8G19
  23122279.868   -11731687.01949  -8978211.88846  23122279.529    23122287.133
  21243343.895   -21083491.84249 -16414066.85848  21243343.439    21243349.771
  22647334.835   -14301831.92649 -10932047.55146  22647334.346    22647341.918
  23238185.323   -12998333.80749  -9906142.46746  23238184.719    23238189.273
  24527327.992    -4131675.05749  -3211214.59045  24527327.574    24527333.900
  20237317.591   -25177281.34749 -19609437.45648  20237317.577    20237322.179
  22534725.491   -16852094.48349 -13114119.22146  22534724.835    22534732.014
  23846933.709    -8438082.35749  -6561705.80846  23846932.722    23846939.431
 04  7 14  1 12  0.0000000  0  8G 3G27G 1G23G16G13G 8G19
  23118831.112   -11749810.17249  -8992333.81046  23118830.806    23118838.394
  21237418.495   -21114629.81049 -16438330.19948  21237418.051    21237424.413
  22662546.113   -14221896.43049 -10869760.20846  22662545.596    22662553.222
  23255779.044   -12905878.68249  -9834099.59146  23255778.390    23255782.956
  24546779.622    -4029456.99949  -3131564.21645  24546779.228    24546785.320
  20238273.979   -25172255.69249 -19605521.36348  20238273.955    20238278.557
  22521117.450   -16923604.60749 -13169841.36646  22521116.836    22521124.046
  23832671.071    -8513034.06349  -6620109.64846  23832669.845    23832676.494
 04  7 14  1 12 30.0000000  0  8G 3G27G 1G23G16G13G 8G19
  23115483.032   -11767404.61649  -9006043.73546  23115482.694    23115490.279
  21231526.033   -21145594.81349 -16462458.75748  21231525.591    21231531.962
  22677808.377   -14141692.00249 -10807263.31446  22677807.920    22677815.666
  23273414.985   -12813201.11249  -9761883.37146  23273414.400    23273418.926
  24566255.958    -3927109.63549  -3051813.07845  24566255.385    24566261.582
  20239314.332   -25166788.54949 -19601261.25648  20239314.304    20239318.896
  22507541.351   -16994947.48049 -13225433.17946  22507540.704    22507547.885
  23818449.437    -8587769.09549  -6678344.66746  23818448.232    23818454.822
 04  7 14  1 13  0.0000000  0  8G 3G27G 1G23G16G13G 8G19
  23112235.878   -11784468.51649  -9019340.26346  23112235.552    23112243.102
  21225666.530   -21176386.65649 -16486452.38748  21225666.117    21225672.475
  22693121.937   -14061219.14149 -10744557.24446  22693121.439    22693129.183
  23291093.218   -12720301.81149  -9689494.38146  23291092.622    23291097.111
  24585756.158    -3824634.90149  -2971962.72145  24585755.556    24585762.010
  20240438.897   -25160879.00049 -19596656.41848  20240438.856    20240443.423
  22493997.227   -17066122.03249 -13280893.83646  22493996.580    22494003.749
  23804269.522    -8662283.92249  -6736408.10046  23804268.438    23804274.984
 04  7 14  1 13 30.0000000  0  8G 3G27G 1G23G16G13G 8G19
  23109089.887   -11801001.00849  -9032222.70246  23109089.520    23109097.019
  21219839.894   -21207005.90949 -16510311.53448  21219839.481    21219845.802
  22708486.254   -13980479.04849 -10681642.94046  22708485.832    22708493.573
  23308813.243   -12627182.54249  -9616933.97946  23308812.675    23308817.210
  24605280.010    -3722035.78549  -2892015.42545  24605279.290    24605286.155
  20241647.662   -25154526.81249 -19591706.66848  20241647.629    20241652.204
  22480485.114   -17137128.66549 -13336223.65147  22480484.464    22480491.607
  23790132.177    -8736576.23149  -6794298.13746  23790130.985    23790137.611
 04  7 14  1 14  0.0000000  0  8G 3G27G 1G23G16G13G 8G19
  23106045.093   -11817001.15449  -9044690.34146  23106044.798    23106052.293
  21214046.064   -21237452.81149 -16534036.38448  21214045.652    21214051.924
  22723901.364   -13899472.72449 -10618521.19946  22723900.890    22723908.651
  23326574.951   -12533844.49249  -9544203.11946  23326574.378    23326578.943
  24624827.180    -3619314.91149  -2811973.24645  24624826.538    24624833.448
  20242940.873   -25147730.81949 -19586411.09648  20242940.854    20242945.445
  22467005.086   -17207966.86549 -13391422.21447  22467004.447    22467011.562
  23776037.620    -8810643.06749  -6852012.48446  23776036.453    23776043.086
 04  7 14  1 14 30.0000000  0  8G 3G27G 1G23G16G13G 8G19
  23103102.091   -11832467.08049  -9056741.69046  23103101.745    23103109.108
  21208285.121   -21267726.97849 -16557626.63348  21208284.680    21208290.923
  22739367.011   -13818200.67149 -10555192.37146  22739366.524    22739374.265
  23344378.059   -12440288.61949  -9471302.50446  23344377.533    23344382.122
  24644397.161    -3516474.04049  -2731837.54645  24644396.390    24644403.403
  20244318.715   -25140490.18249 -19580769.05048  20244318.690    20244323.269
  22453557.138   -17278636.48449 -13446489.41747  22453556.477    22453563.527
  23761986.745    -8884481.06249  -6909548.51446  23761985.480    23761992.095
 04  7 14  1 15  0.0000000  0  8G 3G27G 1G23G16G13G 8G19
  23100260.847   -11847397.88749  -9068376.06346  23100260.483    23100267.894
  21202556.831   -21297829.20549 -16581082.90448  21202556.396    21202562.640
  22754883.000   -13736663.95949 -10491657.33446  22754882.522    22754890.261
  23362222.430   -12346516.19249  -9398233.17046  23362221.880    23362226.508
  24663989.451    -3413515.95549  -2651610.55845  24663988.646    24663995.652
  20245781.184   -25132804.82049 -19574780.46348  20245781.157    20245785.772
  22440141.312   -17349137.52949 -13501425.25347  22440140.584    22440147.568
  23747979.935    -8958087.52549  -6966904.13746  23747978.617    23747985.134
 04  7 14  1 15 30.0000000  0  8G 3G27G 1G23G16G13G 8G19
  23097521.650   -11861791.91649  -9079592.18246  23097521.328    23097528.916
  21196861.375   -21327758.89849 -16604404.73648  21196860.949    21196867.213
  22770449.313   -13654863.06849 -10427916.44346  22770448.767    22770456.525
  23380107.832   -12252527.97049  -9324995.66346  23380107.338    23380111.946
  24683603.751    -3310442.52849  -2571293.63145  24683602.927    24683609.856
  20247328.665   -25124672.72149 -19568443.77048  20247328.646    20247333.265
  22426757.572   -17419469.31649 -13556229.21047  22426756.889    22426763.826
  23734017.577    -9031459.01849  -7024076.66046  23734016.372    23734022.892
 04  7 14  1 16  0.0000000  0  8G 3G27G 1G23G16G13G 8G19
  23094884.977   -11875648.22449  -9090389.27446  23094884.574    23094892.216
  21191198.743   -21357516.25349 -16627592.27748  21191198.289    21191204.566
  22786065.630   -13572798.61949 -10363970.18146  22786065.145    22786072.923
  23398034.047   -12158325.18849  -9251590.96346  23398033.648    23398038.122
  24703239.504    -3207256.07949  -2490888.64945  24703238.674    24703245.598
  20248961.269   -25116093.45949 -19561758.64148  20248961.256    20248965.894
  22413406.119   -17489631.27949 -13610900.83547  22413405.433    22413412.379
  23720100.632    -9104592.62849  -7081063.82546  23720099.506    23720105.974
 04  7 14  1 16 30.0000000  0  8G 3G27G 1G23G16G13G 8G19
  23092350.635   -11888965.68849  -9100766.50546  23092350.328    23092357.951
  21185568.814   -21387101.49049 -16650645.70348  21185568.356    21185574.651
  22801731.924   -13490471.88449 -10299819.53646  22801731.399    22801739.296
  23416000.992   -12063909.13049  -9178020.09646  23416000.470    23416005.008
  24722896.093    -3103959.24549  -2410397.65445  24722895.476    24722902.369
  20250679.021   -25107066.53349 -19554724.68048  20250678.997    20250683.624
  22400086.941   -17559623.62149 -13665440.28147  22400086.283    22400093.239
  23706229.545    -9177485.70949  -7137863.54346  23706228.399    23706234.848
 04  7 14  1 17  0.0000000  0  9G 3G27G 1G23G10G16G13G 8G19
  23089919.226   -11901742.90949  -9110722.76646  23089918.841    23089926.447
  21179971.594   -21416514.64349 -16673565.04048  21179971.161    21179977.481
  22817447.982   -13407883.45349 -10235464.97646  22817447.470    22817455.408
  23434008.259   -11969280.78449  -9104283.80446  23434007.714    23434012.230
  24221739.277     -368679.78549   -280329.77744  24221737.670    24221745.155
  24742573.321    -3000554.23849  -2329822.38445  24742572.703    24742579.832
  20252482.162   -25097590.97049 -19547341.13448  20252482.158    20252486.820
  22386800.266   -17629445.52249 -13719846.92647  22386799.621    22386806.517
  23692404.797    -9250134.84649  -7194473.19746  23692403.690    23692410.059
 04  7 14  1 17 30.0000000  0  9G 3G27G 1G23G10G16G13G 8G19
  23087590.718   -11913979.31749  -9120257.61346  23087590.344    23087597.904
  21174407.069   -21445756.15349 -16696350.62648  21174406.643    21174412.993
  22833213.693   -13325034.45649 -10170907.38346  22833213.085    22833221.096
  23452055.622   -11874441.77049  -9030383.36446  23452054.990    23452059.589
  24207447.764     -443773.05749   -338843.98845  24207447.373    24207455.521
  24762270.541    -2897043.56249  -2249164.76545  24762270.127    24762277.374
  20254370.807   -25087666.04149 -19539607.43148  20254370.791    20254375.449
  22373545.905   -17699098.05549 -13774121.58747  22373545.207    22373552.063
  23678626.871    -9322537.57249  -7250890.84346  23678625.769    23678632.207
 04  7 14  1 18  0.0000000  0  8G 3G27G 1G23G10G13G 8G19
  23085365.388   -11925673.85249  -9129370.23846  23085364.974    23085372.485
  21168875.240   -21474826.05049 -16719002.48648  21168874.833    21168881.174
  22849028.678   -13241925.78649 -10106147.44246  22849028.227    22849036.212
  23470142.904   -11779393.15549  -8956319.58446  23470142.169    23470146.888
  24193236.697     -518455.25849   -397037.89445  24193236.961    24193244.540
  20256345.028   -25077291.60249 -19531523.46148  20256345.024    20256349.665
  22360323.851   -17768580.43149 -13828263.65847  22360323.151    22360330.006
  23664896.466    -9394690.99549  -7307114.20946  23664895.344    23664901.809
 04  7 14  1 18 30.0000000  0  8G 3G27G 1G23G10G13G 8G19
  23083243.132   -11936826.30049  -9138060.44246  23083242.743    23083250.128
  21163375.904   -21503725.21049 -16741521.30648  21163375.470    21163381.814
  22864892.923   -13158559.04649 -10041186.42246  22864892.454    22864900.404
  23488269.454   -11684136.96949  -8882094.07946  23488268.880    23488273.654
  24179103.922     -592724.60649   -454910.10945  24179103.365    24179111.481
  20258404.838   -25066467.33149 -19523088.97248  20258404.808    20258409.426
  22347134.009   -17837893.15249 -13882273.54147  22347133.312    22347140.147
  23651213.993    -9466592.68349  -7363141.44546  23651212.886    23651219.289
 04  7 14  1 19  0.0000000  0  8G 3G27G 1G23G10G13G 8G19
  23081224.446   -11947434.26249  -9146326.38046  23081224.091    23081231.465
  21157909.282   -21532452.67249 -16763906.33248  21157908.844    21157915.153
  22880806.110   -13074934.26649  -9976024.31046  22880805.758    22880813.746
  23506435.607   -11588673.44449  -8807706.99546  23506435.043    23506439.813
  24165050.231     -666577.95749   -512458.16945  24165049.674    24165057.528
  20260550.514   -25055191.83749 -19514302.87748  20260550.473    20260555.106
  22333976.733   -17907035.00049 -13936150.26747  22333976.030    22333982.872
  23637580.260    -9538238.76949  -7418969.48646  23637579.075    23637585.416
 04  7 14  1 19 30.0000000  0  8G 3G27G 1G23G10G13G 8G19
  23079309.730   -11957496.05449  -9154166.72446  23079309.417    23079316.748
  21152475.450   -21561007.82349 -16786157.09148  21152474.976    21152481.282
  22896768.677   -12991051.40649  -9910661.12246  22896768.197    22896776.219
  23524641.308   -11493002.94849  -8733158.64646  23524640.730    23524645.344
  24151076.296     -740012.16249   -569679.58245  24151075.698    24151083.582
  20262782.364   -25043463.12949 -19505163.63048  20262782.328    20262786.979
  22320852.155   -17976004.86649 -13989892.99047  22320851.426    22320858.268
  23623995.674    -9609625.65449  -7474595.57646  23623994.529    23624000.916
 04  7 14  1 20  0.0000000  0  8G 3G27G 1G23G10G13G 8G19
  23077499.100   -11967011.13849  -9161581.07146  23077498.780    23077506.058
  21147074.276   -21589391.06149 -16808273.89148  21147073.815    21147080.106
  22912779.949   -12906911.64949  -9845097.75146  22912779.502    22912787.489
  23542885.957   -11397127.11249  -8658450.29546  23542885.359    23542889.987
  24137182.627     -813025.06349   -626572.72845  24137181.986    24137189.669
  20265100.505   -25031281.19749 -19495671.21848  20265100.473    20265105.147
  22307760.325   -18044802.69149 -14043501.64947  22307759.580    22307766.480
  23610460.900    -9680750.50849  -7530017.47446  23610459.859    23610466.205
 04  7 14  1 20 30.0000000  0  8G 3G27G 1G23G10G13G 8G19
  23075792.617   -11975978.66649  -9168568.75446  23075792.252    23075799.540
  21141705.828   -21617602.63949 -16830256.93348  21141705.352    21141711.632
  22928840.117   -12822516.17049  -9779335.11846  22928839.584    22928847.445
  23561169.437   -11301047.12449  -8583582.86446  23561168.852    23561173.513
  24123369.524     -885614.68249   -683136.04245  24123368.739    24123376.399
  20267505.019   -25018645.45249 -19485825.18748  20267504.998    20267509.636
  22294701.167   -18113428.70549 -14096976.43947  22294700.430    22294707.398
  23596976.621    -9751610.79049  -7585233.21446  23596975.513    23596981.912
 04  7 14  1 21  0.0000000  0  9G 3G27G28G 1G23G10G13G 8G19
  23074189.889   -11984400.90849  -9175131.53346  23074189.551    23074196.871
  21136369.431   -21645645.77549 -16852108.71848  21136368.946    21136375.212
  24771565.238    -3246593.95749  -2517179.45645  24771563.304    24771572.320
  22944947.973   -12737869.08549  -9713376.42646  22944947.424    22944955.304
  23579490.811   -11204767.55049  -8508559.90346  23579490.268    23579494.997
  24109636.678     -957782.02849   -739370.30345  24109635.727    24109643.398
  20269995.390   -25005558.55149 -19475627.60648  20269995.344    20270000.005
  22281674.217   -18181885.44249 -14150319.32347  22281673.498    22281680.479
  23583542.625    -9822206.40949  -7640242.72446  23583541.544    23583547.949
 04  7 14  1 21 30.0000000  0  9G 3G27G28G 1G23G10G13G 8G19
  23072691.546   -11992274.66349  -9181266.92246  23072691.199    23072698.490
  21131065.433   -21673518.46549 -16873827.68748  21131064.978    21131071.201
  24751567.586    -3351680.30149  -2599064.73945  24751565.918    24751575.020
  22961103.976   -12652969.08849  -9647220.66046  22961103.438    22961111.263
  23597850.485   -11108287.61749  -8433380.83046  23597849.868    23597854.657
  24095984.833    -1029522.70649   -795272.09445  24095983.877    24095991.623
  20272572.106   -24992017.73049 -19465076.32248  20272572.090    20272576.738
  22268679.917   -18250170.64649 -14203528.54347  22268679.214    22268686.194
  23570159.953    -9892532.54549  -7695042.24646  23570158.879    23570165.284
 04  7 14  1 22  0.0000000  0  9G 3G27G28G 1G23G10G13G 8G19
  23071298.386   -11999595.49049  -9186971.45546  23071298.093    23071305.391
  21125794.487   -21701217.38049 -16895411.25148  21125794.047    21125800.255
  24731587.064    -3456671.59749  -2680875.98345  24731586.360    24731595.641
  22977308.500   -12567813.87049  -9580866.01546  22977307.971    22977315.785
  23616248.547   -11011605.14549  -8358043.92446  23616247.991    23616252.759
  24082415.307    -1100830.94549   -850836.91645  24082414.352    24082422.185
  20275235.993   -24978018.90349 -19454168.15148  20275235.986    20275240.667
  22255718.935   -18318280.92849 -14256601.46447  22255718.247    22255725.265
  23556829.732    -9962582.97349  -7749626.94346  23556828.737    23556835.071
 04  7 14  1 22 30.0000000  0  9G 3G27G28G 1G23G10G13G 8G19
  23070010.541   -12006363.29849  -9192245.06346  23070010.194    23070017.540
  21120556.457   -21728743.17049 -16916859.91348  21120556.023    21120562.245
  24711625.622    -3561566.31649  -2762612.02745  24711625.417    24711634.520
  22993561.343   -12482404.89649  -9514313.64546  22993560.789    22993568.581
  23634684.941   -10914721.70449  -8282550.41746  23634684.388    23634689.097
  24068928.376    -1171704.74549   -906063.20045  24068927.458    24068935.503
  20277986.952   -24963562.33749 -19442903.30048  20277986.952    20277991.676
  22242791.127   -18386216.80749 -14309538.48647  22242790.407    22242797.474
  23543552.539   -10032355.14049  -7803994.79446  23543551.479    23543557.805
 04  7 14  1 23  0.0000000  0  9G 3G27G28G 1G23G10G13G 8G19
  23068827.636   -12012579.20949  -9197088.63346  23068827.343    23068834.745
  21115350.990   -21756097.86749 -16938175.25948  21115350.567    21115356.804
  24691685.491    -3666364.61849  -2844272.83645  24691683.422    24691691.959
  23009861.909   -12396745.00249  -9447565.75046  23009861.374    23009869.248
  23653158.959   -10817640.35549  -8206902.70546  23653158.419    23653163.106
  24055524.139    -1242143.94349   -960950.83645  24055523.158    24055531.321
  20280824.906   -24948648.75549 -19431282.33148  20280824.897    20280829.664
  22229896.285   -18453979.11149 -14362340.24747  22229895.614    22229902.692
  23530328.351   -10101848.01749  -7858145.03346  23530327.383    23530333.717
 04  7 14  1 23 30.0000000  0  9G 3G27G28G 1G23G10G13G 8G19
  23067750.022   -12018242.87949  -9201501.87046  23067749.649    23067756.974
  21110178.039   -21783281.85549 -16959357.58048  21110177.618    21110183.892
  24671763.738    -3771065.44749  -2925857.67345  24671759.717    24671767.878
  23026210.056   -12310835.71949  -9380623.53046  23026209.457    23026217.333
  23671670.276   -10720363.25249  -8131102.44346  23671669.724    23671674.444
  24042202.875    -1312146.86449  -1015498.51645  24042201.970    24042210.290
  20283749.774   -24933278.53949 -19419305.54148  20283749.752    20283754.524
  22217034.375   -18521568.54949 -14415007.31147  22217033.758    22217040.885
  23517157.933   -10171059.22649  -7912075.77846  23517156.871    23517163.240
 04  7 14  1 24  0.0000000  0  9G 3G27G28G 1G23G10G13G 8G19
  23066777.698   -12023352.71849  -9205483.54846  23066777.282    23066784.506
  21105037.719   -21810294.49649 -16980406.38448  21105037.277    21105043.596
  24651857.161    -3875665.97249  -3007364.45145  24651854.168    24651862.919
  23042605.397   -12224677.17949  -9313487.07846  23042604.866    23042612.822
  23690218.872   -10622890.67549  -8055149.88246  23690218.273    23690222.968
  24028965.290    -1381710.27949  -1069703.73145  24028964.374    24028972.857
  20286761.881   -24917449.90749 -19406971.54948  20286761.877    20286766.610
  22204205.552   -18588984.20749 -14467538.96047  22204204.929    22204212.090
  23504041.853   -10239985.18049  -7965784.25646  23504040.731    23504046.925
 04  7 14  1 24 30.0000000  0  9G 3G27G28G 1G23G10G13G 8G19
  23065911.194   -12027906.36349  -9209031.84946  23065910.782    23065917.983
  21099930.314   -21837134.20349 -17001320.43348  21099929.862    21099936.157
  24631969.753    -3980162.86849  -3088790.53945  24631968.942    24631977.717
  23059048.378   -12138268.70049  -9246155.87146  23059047.863    23059055.927
  23708804.661   -10525222.40849  -7979044.83146  23708804.016    23708808.698
  24015812.156    -1450830.43849  -1123563.55945  24015811.240    24015819.759
  20289861.563   -24901161.05649 -19394278.94448  20289861.561    20289866.284
  22191410.255   -18656223.95849 -14519933.54247  22191409.607    22191416.806
  23490980.823   -10308621.41349  -8019266.98546  23490979.763    23490985.785
 04  7 14  1 25  0.0000000  0  9G 3G27G28G 1G23G10G13G 8G19
  23065150.369   -12031905.19549  -9212147.81646  23065149.919    23065157.135
  21094855.444   -21863803.00849 -17022101.31348  21094854.956    21094861.272
  24612105.951    -4084556.15249  -3170135.73545  24612103.834    24612112.089
  23075538.459   -12051613.40649  -9178632.33446  23075537.918    23075546.039
  23727427.117   -10427361.56649  -7902789.72846  23727426.445    23727431.180
  24002743.346    -1519507.67949  -1177078.23845  24002742.437    24002750.840
  20293048.579   -24884413.38549 -19381228.81848  20293048.555    20293053.287
  22178648.000   -18723289.99849 -14572192.75847  22178647.402    22178654.553
  23477975.158   -10376966.93049  -8072523.16646  23477974.027    23477979.993
 04  7 14  1 25 30.0000000  0  9G 3G27G28G 1G23G10G13G 8G19
  23064494.996   -12035348.67749  -9214831.04346  23064494.603    23064501.897
  21089812.936   -21890301.40049 -17042749.40648  21089812.447    21089818.784
  24592261.392    -4188844.76849  -3251399.38245  24592258.245    24592266.559
  23092075.277   -11964712.61249  -9110917.49846  23092074.688    23092082.812
  23746085.821   -10329309.85549  -7826385.89046  23746085.127    23746089.778
  23989759.254    -1587739.67949  -1230245.99445  23989758.346    23989766.646
  20296322.964   -24867206.39249 -19367820.77948  20296322.948    20296327.655
  22165918.895   -18790181.99649 -14624316.35047  22165918.274    22165925.347
  23465025.026   -10445019.23949  -8125550.89846  23465024.022    23465029.968
 04  7 14  1 26  0.0000000  0  9G 3G27G28G 1G23G10G13G 8G19
  23063945.769   -12038235.02949  -9217080.14246  23063945.313    23063952.702
  21084803.033   -21916628.48249 -17063264.00948  21084802.565    21084808.912
  24572435.004    -4293025.75449  -3332579.22045  24572432.890    24572441.401
  23108658.731   -11877566.50049  -9043011.50546  23108658.129    23108666.250
  23764780.788   -10231067.63749  -7749833.59946  23764780.065    23764784.747
  23976860.490    -1655523.51949  -1283064.54045  23976859.596    23976867.639
  20299684.962   -24849539.08349 -19354054.05348  20299684.921    20299689.621
  22153223.001   -18856899.07049 -14676303.64147  22153222.383    22153229.398
  23452131.542   -10512774.42249  -8178347.07646  23452130.508    23452136.525
 04  7 14  1 26 30.0000000  0  9G 3G27G28G 1G23G10G13G 8G19
  23063502.744   -12040562.85349  -9218894.02646  23063502.369    23063509.664
  21079825.879   -21942783.41049 -17083644.47248  21079825.450    21079831.757
  24552629.657    -4397096.39049  -3413673.09345  24552628.569    24552637.423
  23125288.844   -11790174.95849  -8974914.27446  23125288.236    23125296.258
  23783511.798   -10132635.45849  -7673133.30046  23783511.108    23783515.861
  23964047.618    -1722856.02649  -1335531.40545  23964046.676    23964054.459
  20303134.812   -24831410.00949 -19339927.51248  20303134.782    20303139.459
  22140560.668   -18923440.13349 -14728153.78447  22140560.029    22140566.981
  23439295.339   -10580228.88949  -8230908.94346  23439294.294    23439300.330
 04  7 14  1 27  0.0000000  0  9G 3G27G28G 1G23G10G13G 8G19
  23063165.999   -12042332.79249  -9220273.18946  23063165.613    23063172.851
  21074881.275   -21968767.60849 -17103891.89948  21074880.843    21074887.098
  24532846.527    -4501056.45049  -3494680.73645  24532845.325    24532854.391
  23141965.173   -11702540.58249  -8906627.82246  23141964.621    23141972.569
  23802278.580   -10034015.91949  -7596287.00646  23802277.796    23802282.630
  23951320.685    -1789736.53649  -1387646.06545  23951319.746    23951327.406
  20306672.339   -24812820.15049 -19325441.92048  20306672.333    20306677.031
  22127931.675   -18989805.86849 -14779867.30747  22127931.052    22127937.958
  23426516.592   -10647381.10049  -8283235.27846  23426515.551    23426521.579
 04  7 14  1 27 30.0000000  0  9G 3G27G28G 1G23G10G13G 8G19
  23062935.472   -12043544.21549  -9221217.15546  23062935.052    23062942.210
  21069969.236   -21994580.92549 -17124006.17048  21069968.764    21069974.995
  24513084.616    -4604903.94549  -3575600.71145  24513083.645    24513092.601
  23158687.553   -11614664.14349  -8838152.75046  23158686.955    23158694.954
  23821080.670    -9935210.19049  -7519295.62746  23821080.059    23821084.870
  23938680.263    -1856162.56749  -1439406.57245  23938679.277    23938686.875
  20310297.706   -24793768.68449 -19310596.63448  20310297.703    20310302.408
  22115336.036   -19055996.01749 -14831444.00347  22115335.432    22115342.373
  23413795.909   -10714228.12449  -8335323.82746  23413794.927    23413800.934
 04  7 14  1 28  0.0000000  0  9G 3G27G28G 1G23G10G13G 8G19
  23062811.398   -12044195.85749  -9221724.92546  23062811.008    23062818.180
  21065089.751   -22020222.80849 -17143986.85448  21065089.292    21065095.500
  24493344.793    -4708636.43149  -3656431.06445  24493343.991    24493352.820
  23175455.808   -11526546.07249  -8769489.38346  23175455.306    23175463.357
  23839918.243    -9836218.83649  -7442159.60446  23839917.529    23839922.361
  23926126.811    -1922131.51849  -1490810.92945  23926125.758    23926133.218
  20314011.117   -24774254.55249 -19295390.82548  20314011.123    20314015.830
  22102773.892   -19122010.29349 -14882883.65847  22102773.298    22102780.266
  23401134.131   -10780766.35649  -8387171.73746  23401133.073    23401139.068
 04  7 14  1 28 30.0000000  0  9G 3G27G28G 1G23G10G13G 8G19
  23062793.834   -12044288.14849  -9221796.83346  23062793.440    23062800.459
  21060242.744   -22045694.10649 -17163834.61448  21060242.258    21060248.479
  24473627.193    -4812253.11349  -3737171.17545  24473626.252    24473635.065
  23192269.773   -11438188.35149  -8700639.28446  23192269.246    23192277.318
  23858790.654    -9737044.15749  -7364880.72546  23858789.893    23858794.773
  23913660.378    -1987642.31849  -1541858.28445  23913659.329    23913666.703
  20317812.502   -24754278.06349 -19279824.74048  20317812.491    20317817.228
  22090245.290   -19187848.59949 -14934186.19847  22090244.672    22090251.653
  23388531.333   -10846993.89149  -8438777.55346  23388530.337    23388536.320
 04  7 14  1 29  0.0000000  0  9G 3G27G28G 1G23G10G13G 8G19
  23062883.031   -12043819.35949  -9221431.54546  23062882.708    23062889.764
  21055428.324   -22070993.78449 -17183548.64448  21055427.871    21055434.128
  24453931.611    -4915751.00449  -3817818.74845  24453931.066    24453939.913
  23209129.377   -11349590.93849  -8631602.42346  23209128.854    23209136.928
  23877697.688    -9637686.52149  -7287459.30045  23877697.064    23877702.054
  23901281.876    -2052691.64549  -1592546.02145  23901280.738    23901288.170
  20321702.133   -24733838.00149 -19263897.42848  20321702.118    20321706.859
  22077750.292   -19253509.95849 -14985350.85047  22077749.692    22077756.615
  23375988.506   -10912906.71749  -8490138.14346  23375987.431    23375993.479
 04  7 14  1 29 30.0000000  0  9G 3G27G28G 1G23G10G13G 8G19
  23063079.001   -12042789.51449  -9220629.06746  23063078.623    23063085.669
  21050646.433   -22096122.45249 -17203129.41948  21050645.991    21050652.291
  24434259.723    -5019129.08449  -3898372.93545  24434258.885    24434267.686
  23226034.322   -11260755.52049  -8562380.09646  23226033.751    23226041.876
  23896639.404    -9538147.59149  -7209896.58645  23896638.761    23896643.798
  23888991.396    -2117278.03049  -1642873.04645  23888990.236    23888997.671
  20325679.943   -24712934.49649 -19247608.99348  20325679.945    20325684.683
  22065289.010   -19318994.67849 -15036377.86247  22065288.379    22065295.176
  23363505.844   -10978502.76749  -8541251.90146  23363504.852    23363510.921
 04  7 14  1 30  0.0000000  0  9G 3G27G28G 1G23G10G13G 8G19
  23063381.746   -12041198.46249  -9219389.28646  23063381.393    23063388.419
  21045897.063   -22121080.45249 -17222577.20848  21045896.639    21045902.924
  24414610.919    -5122385.84349  -3978832.58945  24414609.538    24414618.566
  23242984.168   -11171683.42649  -8492973.35646  23242983.647    23242991.857
  23915615.348    -9438429.11349  -7132193.98645  23915614.714    23915619.715
  23876789.242    -2181399.88249  -1692838.09145  23876788.174    23876795.635
  20329745.984   -24691567.27349 -19230959.21848  20329745.980    20329750.714
  22052861.235   -19384303.02149 -15087267.43947  22052860.592    22052867.368
  23351084.166   -11043779.51449  -8592116.84346  23351083.062    23351089.179
 04  7 14  1 30 30.0000000  0  9G 3G27G28G 1G23G10G13G 8G19
  23063791.637   -12039044.49649  -9217710.85746  23063791.210    23063798.345
  21041180.450   -22145866.53549 -17241891.03348  21041180.004    21041186.315
  24394984.354    -5225518.38549  -4059195.52345  24394983.874    24394992.861
  23259979.056   -11082374.76649  -8423382.27646  23259978.582    23259986.821
  23934625.203    -9338531.33649  -7054351.66545  23934624.714    23934629.784
  23864676.147    -2245053.91849  -1742438.58245  23864675.119    23864682.854
  20333900.550   -24669734.93349 -19213947.01448  20333900.544    20333905.291
  22040467.358   -19449433.06749 -15138018.08947  22040466.732    22040473.524
  23338723.951   -11108732.73149  -8642729.68846  23338722.929    23338728.953
 04  7 14  1 31  0.0000000  0  9G 3G27G28G 1G23G10G13G 8G19
  23064308.557   -12036327.70649  -9215593.86646  23064308.202    23064315.393
  21036496.391   -22170481.47349 -17261071.49948  21036495.917    21036502.271
  24375383.070    -5328525.64849  -4139460.77745  24375382.344    24375390.980
  23277018.824   -10992831.01849  -8353608.00546  23277018.305    23277026.456
  23953668.992    -9238456.02849  -6976371.00245  23953668.450    23953673.522
  23852652.518    -2308238.74149  -1791673.47545  23852651.393    23852659.261
  20338143.619   -24647437.55849 -19196572.44848  20338143.616    20338148.325
  22028107.342   -19514385.23649 -15188630.13447  22028106.689    22028113.551
  23326425.814   -11173360.43049  -8693088.87246  23326424.722    23326430.637
 04  7 14  1 31 30.0000000  0  9G 3G27G28G 1G23G10G13G 8G19
  23064932.485   -12033048.77149  -9213038.85746  23064932.090    23064939.316
  21031844.693   -22194926.16449 -17280119.30448  21031844.227    21031850.614
  24355806.410    -5431406.66149  -4219627.65145  24355804.798    24355813.283
  23294102.885   -10903054.33649  -8283652.23946  23294102.298    23294110.443
  23972746.263    -9138205.78949  -6898254.03345  23972745.584    23972750.651
  23840718.314    -2370953.14849  -1840541.81045  23840717.255    23840725.102
  20342475.003   -24624675.90849 -19178836.10148  20342475.008    20342479.726
  22015780.829   -19579160.92949 -15239104.66847  22015780.193    22015787.125
  23314189.728   -11237660.84749  -8743193.04846  23314188.753    23314194.549
 04  7 14  1 32  0.0000000  0  9G 3G27G28G 1G23G10G13G 8G19
  23065663.712   -12029206.26149  -9210044.69646  23065663.303    23065670.450
  21027225.643   -22219199.25949 -17299033.40348  21027225.185    21027231.589
  24336252.592    -5534158.47849  -4299693.90545  24336251.494    24336260.110
  23311231.345   -10813044.53649  -8213514.81546  23311230.671    23311238.808
  23991856.518    -9037780.55849  -6820000.69945  23991855.854    23991861.056
  23828874.291    -2433193.93249  -1889041.09445  23828873.274    23828881.369
  20346895.113   -24601448.32749 -19160736.69848  20346895.068    20346899.813
  22003488.407   -19643757.87349 -15289439.90947  22003487.752    22003494.713
  23302016.823   -11301629.96949  -8793039.06546  23302015.830    23302021.581
 04  7 14  1 32 30.0000000  0  9G 3G27G28G 1G23G10G13G 8G19
  23066502.278   -12024799.25349  -9206610.66846  23066501.953    23066508.995
  21022639.335   -22243300.52349 -17317813.60748  21022638.860    21022645.272
  24316723.607    -5636779.06249  -4379657.91045  24316723.383    24316731.963
  23328403.783   -10722802.41849  -8143196.37146  23328403.202    23328411.357
  24010999.885    -8937181.29449  -6741611.77445  24010999.251    24011004.585
  23817121.011    -2494958.43449  -1937169.25445  23817119.921    23817128.074
  20351403.923   -24577754.27449 -19142273.81248  20351403.886    20351408.650
  21991230.095   -19708175.76049 -15339635.63747  21991229.459    21991236.343
  23289907.535   -11365264.57049  -8842624.41846  23289906.573    23289912.302
 04  7 14  1 33  0.0000000  0  9G 3G27G28G 1G23G10G13G 8G19
  23067448.391   -12019828.16249  -9202737.08246  23067447.958    23067454.961
  21018085.560   -22267230.78549 -17336460.55948  21018085.092    21018091.475
  24297221.344    -5739267.63949  -4459519.00845  24297220.464    24297228.956
  23345620.207   -10632330.05849  -8072698.51646  23345619.563    23345627.687
  24030176.014    -8836410.54649  -6663089.22345  24030175.356    24030180.747
  23805458.365    -2556245.82049  -1984925.62345  23805457.275    23805465.512
  20356001.459   -24553594.07449 -19123447.69148  20356001.423    20356006.199
  21979005.711   -19772415.16649 -15389692.28047  21979005.091    21979011.938
  23277862.336   -11428562.79649  -8891947.65646  23277861.292    23277867.033
 04  7 14  1 33 30.0000000  0  9G 3G27G28G 1G23G10G13G 8G19
  23068501.674   -12014292.94649  -9198423.92546  23068501.299    23068508.412
  21013564.295   -22290990.38449 -17354974.52848  21013563.822    21013570.191
  24277744.171    -5841622.57149  -4539275.96245  24277742.829    24277751.138
  23362880.151   -10541628.89349  -8002022.36146  23362879.435    23362887.589
  24049384.423    -8735469.77849  -6584434.18345  24049383.818    24049389.168
  23793886.856    -2617054.37249  -2032308.88245  23793885.855    23793894.130
  20360687.647   -24528968.04049 -19104258.58448  20360687.599    20360692.392
  21966815.389   -19836475.95349 -15439609.74847  21966814.761    21966821.577
  23265881.521   -11491522.09849  -8941006.80346  23265880.456    23265886.218
 04  7 14  1 34  0.0000000  0  9G 3G27G28G 1G23G10G13G 8G19
  23069662.611   -12008192.22849  -9193670.12146  23069662.186    23069669.348
  21009075.740   -22314577.82249 -17373354.34448  21009075.270    21009081.618
  24258291.999    -5943841.01049  -4618926.60045  24258291.045    24258299.531
  23380183.744   -10450698.59049  -7931167.66646  23380182.986    23380191.146
  24068625.237    -8634359.13549  -6505646.77345  24068624.578    24068629.949
  23782407.024    -2677380.98449  -2079316.61146  23782406.033    23782414.271
  20365462.814   -24503874.44449 -19084705.14548  20365462.783    20365467.587
  21954659.230   -19900356.75349 -15489386.96247  21954658.626    21954665.422
  23253965.961   -11554138.53549  -8989798.77446  23253964.895    23253970.711
 04  7 14  1 34 30.0000000  0  9G 3G27G28G 1G23G10G13G 8G19
  23070931.029   -12001526.38649  -9188475.94646  23070930.657    23070937.789
  21004619.827   -22337993.69049 -17391600.47348  21004619.394    21004625.745
  24238866.259    -6045921.69449  -4698469.88045  24238865.573    24238874.115
  23397530.380   -10359540.97649  -7860135.84546  23397529.747    23397537.957
  24087897.907    -8533080.43149  -6426728.40945  24087897.285    24087902.768
  23771019.198    -2737224.26149  -2125947.72946  23771018.227    23771026.363
  20370326.923   -24478313.52049 -19064787.55248  20370326.886    20370331.683
  21942537.298   -19964057.91749 -15539024.20347  21942536.678    21942543.483
  23242116.095   -11616409.94349  -9038321.89546  23242114.999    23242120.829
 04  7 14  1 35  0.0000000  0  9G 3G27G28G 1G23G10G13G 8G19
  23072307.144   -11994294.66449  -9182840.84446  23072306.765    23072313.912
  21000196.582   -22361237.89049 -17409712.82748  21000196.147    21000202.512
  24219467.352    -6147862.78849  -4777904.39045  24219466.802    24219475.083
  23414920.235   -10268157.12949  -7788927.74746  23414919.568    23414927.883
  24107202.505    -8431634.97849  -6347680.12745  24107201.761    24107207.381
  23759723.742    -2796581.93249  -2172200.42346  23759722.776    23759730.948
  20375279.996   -24452285.17549 -19044505.73648  20375279.947    20375284.728
  21930449.716   -20027578.76449 -15588520.94247  21930449.076    21930455.799
  23230332.445   -11678333.13549  -9086573.68746  23230331.386    23230337.209
 04  7 14  1 35 30.0000000  0  9G 3G27G28G 1G23G10G13G 8G19
  23073790.922   -11986497.30049  -9176764.96546  23073790.457    23073797.671
  20995805.948   -22384310.74649 -17427691.66948  20995805.516    20995811.887
  24200095.472    -6249662.94549  -4857229.08245  24200094.843    24200102.827
  23432352.823   -10176548.50349  -7717544.49346  23432352.160    23432360.567
  24126538.215    -8330024.60249  -6268503.31745  24126537.695    24126543.359
  23748521.071    -2855452.60649  -2218073.64646  23748520.102    23748528.226
  20380321.985   -24425789.13349 -19023859.48348  20380321.947    20380326.759
  21918396.324   -20090919.55249 -15637877.37847  21918395.690    21918402.363
  23218615.554   -11739905.91649  -9134552.43146  23218614.428    23218620.150
 04  7 14  1 36  0.0000000  0  9G 3G27G28G 1G23G10G13G 8G19
  23075382.312   -11978134.06549  -9170248.16146  23075381.935    23075389.241
  20991447.997   -22407212.05449 -17445536.83948  20991447.553    20991453.921
  24180750.746    -6351320.30349  -4936442.48345  24180750.035    24180758.162
  23449827.909   -10084716.29049  -7645987.02346  23449827.272    23449835.740
  24145905.177    -8228250.70649  -6189199.09545  24145904.698    24145910.378
  23737411.402    -2913834.51249  -2263566.02946  23737410.492    23737418.402
  20385453.072   -24398825.03249 -19002848.50548  20385453.054    20385457.911
  21906377.330   -20154079.75949 -15687093.09847  21906376.681    21906383.298
  23206965.737   -11801125.55349  -9182255.99346  23206964.652    23206970.385
 04  7 14  1 36 30.0000000  0  9G 3G27G28G 1G23G10G13G 8G19
  23077081.640   -11969204.81749  -9163290.30546  23077081.209    23077088.444
  20987122.683   -22429941.93749 -17463248.43248  20987122.188    20987128.552
  24161433.179    -6452833.32549  -5015543.42145  24161432.629    24161440.803
  23467345.502    -9992661.70449  -7574256.26846  23467344.815    23467353.240
  24165303.175    -8126314.64749  -6109768.51145  24165302.589    24165308.327
  23726395.094    -2971725.67849  -2308676.01646  23726394.179    23726402.018
  20390673.196   -24371393.02449 -18981472.92548  20390673.201    20390678.047
  21894392.679   -20217059.74949 -15736168.38647  21894392.008    21894398.585
  23195383.794   -11861989.41349  -9229682.32746  23195382.631    23195388.374
 04  7 14  1 37  0.0000000  0  9G 3G27G28G 1G23G10G13G 8G19
  23078888.720   -11959708.63249  -9155890.68446  23078888.308    23078895.551
  20982830.034   -22452499.84349 -17480826.01548  20982829.569    20982835.898
  24142143.669    -6554199.72149  -5094530.09845  24142143.102    24142151.215
  23484904.983    -9900385.34349  -7502352.69746  23484904.409    23484912.987
  24184731.679    -8024217.12349  -6030212.10145  24184731.189    24184736.916
  23715472.734    -3029123.63949  -2353401.68946  23715471.790    23715479.482
  20395982.548   -24343492.29849 -18959732.11048  20395982.555    20395987.383
  21882442.482   -20279858.36049 -15785102.34047  21882441.831    21882448.350
  23183870.005   -11922494.28049  -9276828.94046  23183868.922    23183874.628
 04  7 14  1 37 30.0000000  0  9G 3G27G28G 1G23G10G13G 8G19
  23080803.681   -11949645.88849  -9148049.58346  23080803.193    23080810.528
  20978570.143   -22474885.80349 -17498269.61448  20978569.698    20978575.958
  24122882.247    -6655418.16749  -5173401.48245  24122881.797    24122889.984
  23502506.654    -9807888.74549  -7430277.52446  23502506.043    23502514.709
  24204190.575    -7921959.97749  -5950531.32245  24204190.237    24204195.841
  23704644.471    -3086027.09949  -2397742.01545  23704643.487    23704651.019
  20401381.078   -24315122.94749 -18937626.13648  20401381.058    20401385.868
  21870526.786   -20342475.62349 -15833894.99147  21870526.140    21870532.610
  23172425.073   -11982637.75149  -9323693.92546  23172423.915    23172429.690
 04  7 14  1 38  0.0000000  0  9G 3G27G28G 1G23G10G13G 8G19
  23082826.399   -11939016.43849  -9139766.89246  23082825.942    23082833.213
  20974342.929   -22497099.94849 -17515579.32848  20974342.485    20974348.695
  24103649.333    -6756486.72149  -5252156.07345  24103649.001    24103657.268
  23520149.919    -9715172.90849  -7358031.50746  23520149.349    23520158.041
  24223679.832    -7819544.62749  -5870727.27645  24223679.235    24223684.780
  23693910.545    -3142434.07049  -2441695.48345  23693909.577    23693917.081
  20406868.730   -24286284.92449 -18915154.96148  20406868.739    20406873.569
  21858645.688   -20404911.08949 -15882545.98247  21858645.045    21858651.471
  23161049.277   -12042417.11649  -9370275.21046  23161048.230    23161054.013
 04  7 14  1 38 30.0000000  0  9G 3G27G28G 1G23G10G13G 8G19
  23084956.997   -11927820.03749  -9131042.41546  23084956.508    23084963.849
  20970148.509   -22519141.90849 -17532754.87648  20970148.039    20970154.233
  24084445.620    -6857403.78649  -5330792.62245  24084445.035    24084453.390
  23537834.715    -9622238.90349  -7285615.49746  23537834.246    23537842.870
  24243198.667    -7716972.34149  -5790800.93545  24243198.083    24243203.696
  23683271.507    -3198342.59449  -2485260.54245  23683270.443    23683278.031
  20412445.707   -24256977.74249 -18892318.21048  20412445.708    20412450.532
  21846799.272   -20467164.48149 -15931055.09947  21846798.646    21846805.039
  23149743.494   -12101829.53149  -9416570.53746  23149742.327    23149748.152
 04  7 14  1 39  0.0000000  0  9G 3G27G28G 1G23G10G13G 8G19
  23087195.268   -11916056.85649  -9121876.30446  23087194.867    23087202.238
  20965986.753   -22541011.93149 -17549796.44748  20965986.280    20965992.471
  24065270.977    -6958167.65949  -5409309.79545  24065270.250    24065278.453
  23555560.870    -9529088.32549  -7213030.72745  23555560.314    23555568.929
  24262747.099    -7614244.85549  -5710753.67445  24262746.610    24262752.200
  23672727.644    -3253751.01649  -2528435.91245  23672726.602    23672734.124
  20418111.958   -24227201.55349 -18869115.99848  20418111.945    20418116.768
  21834987.501   -20529235.82849 -15979422.36847  21834986.833    21834993.269
  23138507.825   -12160872.59749  -9462578.08446  23138506.735    23138512.543
 04  7 14  1 39 30.0000000  0  9G 3G27G28G 1G23G10G13G 8G19
  23089541.680   -11903726.47949  -9112268.22546  23089541.243    23089548.693
  20961857.857   -22562709.41349 -17566703.57348  20961857.408    20961863.587
  24046125.236    -7058776.36049  -5487706.07945  24046124.905    24046133.075
  23573327.949    -9435721.86749  -7140277.73945  23573327.415    23573336.062
  24282325.209    -7511362.95449  -5630586.08745  24282324.486    24282329.980
  23662279.244    -3308657.16049  -2571219.90945  23662278.186    23662285.717
  20423867.567   -24196955.67349 -18845547.79348  20423867.541    20423872.371
  21823210.504   -20591124.17249 -16027647.03247  21823209.846    21823216.328
  23127343.241   -12219543.09849  -9508295.30646  23127342.054    23127347.832
 04  7 14  1 40  0.0000000  0  9G 3G27G28G 1G23G10G13G 8G19
  23091995.975   -11890829.16249  -9102218.36846  23091995.624    23092002.936
  20957761.772   -22584234.53349 -17583476.38848  20957761.324    20957767.494
  24027009.838    -7159228.41949  -5565980.27945  24027009.477    24027017.564
  23591135.842    -9342140.86849  -7067357.56445  23591135.287    23591143.960
  24301932.004    -7408328.46549  -5550299.58345  24301931.493    24301936.965
  23651926.730    -3363059.66549  -2613611.44445  23651925.683    23651933.209
  20429712.481   -24166240.47049 -18821613.88148  20429712.474    20429717.288
  21811468.347   -20652829.31149 -16075728.94647  21811467.685    21811474.236
  23116249.843   -12277838.73749  -9553720.44246  23116248.724    23116254.465
 04  7 14  1 40 30.0000000  0  9G 3G27G28G 1G23G10G13G 8G19
  23094558.185   -11877364.76749  -9091726.62646  23094557.750    23094565.077
  20953698.609   -22605586.96849 -17600114.64348  20953698.127    20953704.292
  24007924.792    -7259521.98649  -5644130.98945  24007924.181    24007932.308
  23608984.383    -9248346.66249  -6994271.27445  23608983.830    23608992.428
  24321567.671    -7305142.71649  -5469895.23345  24321567.109    24321572.701
  23641670.386    -3416956.42749  -2655608.91745  23641669.463    23641676.983
  20435646.791   -24135055.61849 -18797314.01148  20435646.796    20435651.597
  21799761.046   -20714351.26249 -16123668.11747  21799760.410    21799767.026
  23105228.420   -12335756.75249  -9598851.31246  23105227.234    23105232.999
 04  7 14  1 41  0.0000000  0  9G 3G27G28G 1G23G10G13G 8G19
  23097228.246   -11863333.35649  -9080793.05146  23097227.872    23097235.099
  20949668.198   -22626766.71749 -17616618.33548  20949667.717    20949673.917
  23988869.471    -7359655.35549  -5722156.87945  23988869.241    23988877.485
  23626873.376    -9154340.43549  -6921019.75945  23626872.656    23626881.129
  24341232.005    -7201807.06549  -5389374.06945  24341231.426    24341236.997
  23631510.677    -3470345.78449  -2697211.00345  23631509.767    23631517.295
  20441670.505   -24103401.02349 -18772648.10448  20441670.496    20441675.292
  21788088.733   -20775689.47449 -16171464.11847  21788088.091    21788094.741
  23094279.295   -12393294.35649  -9643685.76246  23094278.124    23094283.925
 04  7 14  1 41 30.0000000  0  9G 3G27G28G 1G23G10G13G 8G19
  23100006.098   -11848735.39049  -9069418.01746  23100005.709    23100012.896
  20945670.610   -22647774.10849 -17632987.72548  20945670.124    20945676.384
  23969845.531    -7459627.23649  -5800056.90945  23969845.122    23969853.290
  23644802.223    -9060123.61749  -6847604.13345  23644801.644    23644810.079
  24360924.328    -7098323.19149  -5308737.39345  24360923.813    24360929.369
  23621447.826    -3523226.34549  -2738416.61645  23621446.962    23621454.474
  20447783.535   -24071276.87949 -18747616.31848  20447783.514    20447788.310
  21776451.415   -20836843.89149 -16219116.90247  21776450.747    21776457.421
  23083402.982   -12450449.45949  -9688222.16346  23083401.804    23083407.676
 04  7 14  1 42  0.0000000  0  9G 3G27G28G 1G23G10G13G 8G19
  23102891.901   -11833570.27449  -9057601.05446  23102891.541    23102898.800
  20941705.918   -22668608.49949 -17649222.30848  20941705.439    20941711.744
  23950852.629    -7559435.84849  -5877829.72145  23950852.040    23950860.298
  23662770.921    -8965697.26449  -6774025.25145  23662770.415    23662778.921
  24380644.648    -6994692.27849  -5227986.15345  24380644.131    24380649.805
  23611482.113    -3575596.03749  -2779224.12345  23611481.272    23611488.871
  20453985.918   -24038683.09149 -18722218.57348  20453985.880    20453990.721
  21764849.097   -20897814.41649 -16266626.40047  21764848.399    21764855.091
  23072599.991   -12507219.03049  -9732458.16246  23072598.852    23072604.757
 04  7 14  1 42 30.0000000  0  9G 3G27G28G 1G23G10G13G 8G19
  23105885.600   -11817838.64649  -9045342.63146  23105885.219    23105892.367
  20937774.130   -22689270.16549 -17665322.29848  20937773.671    20937779.961
  23931890.675    -7659079.65849  -5955474.14045  23931890.287    23931898.553
  23680779.398    -8871062.87449  -6700284.27445  23680778.768    23680787.480
  24400392.740    -6890915.98449  -5147121.63345  24400392.270    24400397.881
  23601614.008    -3627453.62049  -2819632.58445  23601613.084    23601620.710
  20460277.722   -24005619.46349 -18696454.71848  20460277.684    20460282.519
  21753281.914   -20958600.37049 -16313992.06347  21753281.187    21753287.886
  23061870.836   -12563600.97249  -9776392.10446  23061869.670    23061875.612
 04  7 14  1 43  0.0000000  0  9G 3G27G28G 1G23G10G13G 8G19
  23108987.135   -11801540.34249  -9032642.66146  23108986.761    23108993.834
  20933875.275   -22709758.77549 -17681287.44348  20933874.810    20933881.081
  23912961.107    -7758556.83649  -6032988.69245  23912960.312    23912968.494
  23698827.025    -8776221.61249  -6626382.08645  23698826.544    23698835.282
  24420168.212    -6786995.90949  -5066145.05845  24420167.720    24420173.379
  23591843.589    -3678797.31449  -2859640.62045  23591842.647    23591850.325
  20466658.965   -23972085.86749 -18670324.65848  20466658.927    20466663.780
  21741749.827   -21019201.79549 -16361213.95147  21741749.150    21741755.816
  23051216.019   -12619592.34449  -9820021.70646  23051214.866    23051220.744
 04  7 14  1 43 30.0000000  0  9G 3G27G28G 1G23G10G13G 8G19
  23112196.389   -11784675.61149  -9019501.31646  23112195.980    23112203.172
  20930009.368   -22730074.26849 -17697117.69048  20930008.886    20930015.157
  23894063.199    -7857865.40649  -6110371.87245  23894062.326    23894070.596
  23716913.920    -8681174.68249  -6552319.65345  23716913.422    23716922.297
  24439970.907    -6682933.25549  -4985057.39845  24439970.320    24439975.919
  23582171.270    -3729625.40249  -2899246.89146  23582170.323    23582178.081
  20473129.548   -23938082.76449 -18643828.74648  20473129.517    20473134.364
  21730252.946   -21079618.01749 -16408291.51947  21730252.289    21730258.972
  23040636.010   -12675190.53349  -9863344.92546  23040634.880    23040640.660
 04  7 14  1 44  0.0000000  0  9G 3G27G28G 1G23G10G13G 8G19
  23115513.337   -11767244.62349  -9005918.72846  23115512.973    23115520.248
  20926176.495   -22750216.23649 -17712812.72548  20926176.010    20926182.267
  23875197.107    -7957003.90449  -6187622.57145  23875196.754    23875205.082
  23735039.833    -8585923.12649  -6478097.76645  23735039.344    23735048.209
  24459800.396    -6578729.34449  -4903859.66845  24459799.793    24459805.526
  23572597.529    -3779936.04849  -2938449.95946  23572596.561    23572604.271
  20479689.642   -23903609.34849 -18616966.35348  20479689.596    20479694.429
  21718791.480   -21139848.50449 -16455224.35447  21718790.814    21718797.446
  23030131.396   -12730392.80949  -9906359.65746  23030130.243    23030135.929
 04  7 14  1 44 30.0000000  0  9G 3G27G28G 1G23G10G13G 8G19
  23118938.123   -11749247.37149  -8991894.88946  23118937.713    23118944.994
  20922376.621   -22770184.54149 -17728372.43848  20922376.140    20922382.358
  23856364.710    -8055971.00449  -6264739.65745  23856363.974    23856372.203
  23753204.621    -8490468.15149  -6403717.37045  23753204.029    23753212.829
  24479656.373    -6474385.52949  -4822552.89745  24479655.897    24479661.763
  23563122.486    -3829727.43349  -2977248.41546  23563121.521    23563129.295
  20486339.164   -23868665.95349 -18589737.74748  20486339.112    20486343.957
  21707365.489   -21199892.88049 -16502012.17247  21707364.824    21707371.365
  23019702.382   -12785197.00849  -9949064.18346  23019701.292    23019707.015
 04  7 14  1 45  0.0000000  0  9G 3G27G28G 1G23G10G13G 8G19
  23122470.433   -11730684.29949  -8977430.16346  23122470.087    23122477.375
  20918609.780   -22789979.50149 -17743797.07848  20918609.298    20918615.491
  23837564.700    -8154764.86449  -6341721.79945  23837563.999    23837572.158
  23771407.518    -8394811.36649  -6329179.72145  23771407.067    23771415.840
  24499538.691    -6369903.77449  -4741138.66645  24499538.232    24499544.068
  23553746.512    -3878998.66749  -3015641.55546  23553745.521    23553753.329
  20493078.029   -23833253.03249 -18562143.27748  20493077.957    20493082.829
  21695974.833   -21259751.50149 -16548655.24347  21695974.149    21695980.646
  23009349.715   -12839600.47649  -9991456.46546  23009348.669    23009354.348
 04  7 14  1 45 30.0000000  0  9G 3G27G28G 1G23G10G13G 8G19
  23126110.623   -11711555.48049  -8962524.59446  23126110.277    23126117.614
  20914876.008   -22809600.54749 -17759086.20048  20914875.533    20914881.730
  23818797.922    -8253383.27349  -6418567.23245  23818797.529    23818805.614
  23789648.618    -8298953.81849  -6254485.64445  23789648.179    23789657.032
  24519447.314    -6265284.95249  -4659617.62145  24519446.620    24519452.427
  23544469.816    -3927747.73449  -3053627.81146  23544468.823    23544476.562
  20499906.272   -23797370.19449 -18534182.63648  20499906.230    20499911.138
  21684619.721   -21319422.89649 -16595152.42147  21684619.031    21684625.562
  22999073.931   -12893600.35349 -10033534.25146  22999072.833    22999078.500
 04  7 14  1 46  0.0000000  0  9G 3G27G28G 1G23G10G13G 8G19
  23129858.358   -11691861.40849  -8947178.56246  23129858.002    23129865.247
  20911175.243   -22829047.96049 -17774240.02348  20911174.775    20911181.003
  23800065.440    -8351825.23249  -6495275.13945  23800064.638    23800072.699
  23807927.736    -8202897.15949  -6179636.41245  23807927.195    23807936.163
  24539381.350    -6160531.14049  -4577991.39345  24539380.571    24539386.444
  23535292.720    -3975973.49949  -3091206.29446  23535291.717    23535299.446
  20506823.885   -23761017.85849 -18505856.15248  20506823.831    20506828.752
  21673300.008   -21378908.16749 -16641504.57147  21673299.297    21673305.953
  22988875.271   -12947194.28849 -10075295.72946  22988874.204    22988879.861
 04  7 14  1 46 30.0000000  0  9G 3G27G28G 1G23G10G13G 8G19
  23133713.625   -11671602.33549  -8931392.27846  23133713.194    23133720.431
  20907507.652   -22848321.22649 -17789258.14948  20907507.204    20907513.465
  23781366.256    -8450089.06549  -6571844.28645  23781365.473    23781373.541
  23826244.324    -8106642.50949  -6104632.90545  23826243.974    23826252.915
  24559340.714    -6055643.68049  -4496261.01945  24559339.883    24559346.076
  23526215.421    -4023674.21449  -3128375.63746  23526214.461    23526222.264
  20513830.895   -23724195.95949 -18477163.77848  20513830.850    20513835.769
  21662015.856   -21438206.37849 -16687710.95947  21662015.189    21662021.897
  22978754.403   -13000379.95149 -10116739.07246  22978753.300    22978758.949
 04  7 14  1 47  0.0000000  0  9G 3G27G28G 1G23G10G13G 8G19
  23137676.271   -11650778.11649  -8915165.61246  23137675.890    23137683.141
  20903873.346   -22867419.61149 -17804140.00648  20903872.920    20903879.162
  23762701.429    -8548172.54649  -6648272.88445  23762700.804    23762708.753
  23844598.525    -8010190.70249  -6029475.75145  23844598.198    23844607.198
  24579325.222    -5950623.41449  -4414427.17345  24579324.617    24579330.890
  23517238.609    -4070847.64349  -3165134.11946  23517237.655    23517245.402
  20520927.324   -23686903.97949 -18448105.10348  20520927.278    20520932.202
  21650767.589   -21497316.53449 -16733770.80147  21650766.906    21650773.630
  22968711.755   -13053154.37749 -10157861.96546  22968710.652    22968716.252
 04  7 14  1 47 30.0000000  0  9G 3G27G28G 1G23G10G13G 8G19
  23141746.347   -11629389.59349  -8898499.25746  23141745.913    23141753.181
  20900272.211   -22886343.64549 -17818886.00248  20900271.763    20900277.995
  23744071.290    -8646074.73149  -6724560.21745  23744070.593    23744078.584
  23862990.210    -7913543.55649  -5954166.40645  23862989.646    23862998.611
  24599334.657    -5845472.45949  -4332491.49045  24599334.374    24599340.743
  23508362.316    -4117492.97549  -3201481.10046  23508361.361    23508369.006
  20528113.080   -23649142.70349 -18418680.74248  20528113.033    20528117.959
  21639555.000   -21556239.10349 -16779684.47447  21639554.308    21639561.009
  22958747.767   -13105515.67249 -10198662.93746  22958746.650    22958752.181
 04  7 14  1 48  0.0000000  0  9G 3G27G28G 1G23G10G13G 8G19
  23145923.777   -11607436.93449  -8881393.28046  23145923.331    23145930.594
  20896704.326   -22905093.00449 -17833495.88948  20896703.863    20896710.117
  23725475.803    -8743793.49849  -6800704.63445  23725475.265    23725483.146
  23881418.597    -7816702.14349  -5878705.67745  23881418.068    23881426.930
  24619369.093    -5740191.85149  -4250454.76045  24619368.636    24619375.098
  23499586.702    -4163608.57849  -3237415.31646  23499585.815    23499593.421
  20535388.173   -23610911.85449 -18388890.48748  20535388.107    20535393.030
  21628378.229   -21614973.10149 -16825451.20447  21628377.536    21628384.240
  22948862.844   -13157460.90949 -10239139.71846  22948861.744    22948867.215
 04  7 14  1 48 30.0000000  0  9G 3G27G28G 1G23G10G13G 8G19
  23150208.449   -11584920.64849  -8863848.13346  23150208.054    23150215.278
  20893169.683   -22923667.78749 -17847969.74148  20893169.180    20893175.488
  23706915.918    -8841327.85949  -6876705.34545  23706915.174    23706922.811
  23899883.523    -7719668.27149  -5803094.98745  23899883.035    23899891.868
  24639428.179    -5634783.59649  -4168318.59545  24639427.429    24639433.723
  23490912.216    -4209193.27349  -3272935.83346  23490911.351    23490918.886
  20542752.527   -23572211.98149 -18358734.75848  20542752.458    20542757.379
  21617237.301   -21673518.96149 -16871071.32947  21617236.629    21617243.331
  22939057.558   -13208988.06449 -10279290.70746  22939056.442    22939061.861
 04  7 14  1 49  0.0000000  0  9G 3G27G28G 1G23G10G13G 8G19
  23154600.369   -11561841.27449  -8845864.19346  23154599.914    23154607.056
  20889668.318   -22942067.58649 -17862307.24348  20889667.844    20889674.146
  23688391.153    -8938676.07649  -6952561.01745  23688390.339    23688397.999
  23918384.931    -7622443.18049  -5727335.28445  23918384.457    23918393.203
  24659510.915    -5529249.16949  -4086084.11445  24659510.076    24659516.509
  23482338.937    -4254245.63249  -3308041.54246  23482338.125    23482345.722
  20550206.065   -23533043.42549 -18328213.81948  20550206.018    20550210.936
  21606132.325   -21731875.82949 -16916544.19147  21606131.666    21606138.363
  22929332.240   -13260094.96149 -10319114.23146  22929331.115    22929336.502
 04  7 14  1 49 30.0000000  0  9G 3G27G28G 1G23G10G13G 8G19
  23159099.287   -11538198.60649  -8827441.34446  23159098.829    23159106.136
  20886200.433   -22960291.65049 -17876507.81248  20886199.935    20886206.223
  23669901.728    -9035835.91549  -7028269.91745  23669901.288    23669908.922
  23936922.498    -7525027.58649  -5651427.13445  23936922.074    23936930.847
  24679617.318    -5423589.37749  -4003751.92645  24679616.647    24679623.018
  23473867.485    -4298763.60949  -3342730.85246  23473866.620    23473874.234
  20557748.896   -23493405.51249 -18297327.15048  20557748.837    20557753.803
  21595063.371   -21790043.48249 -16961869.61047  21595062.719    21595069.382
  22919687.452   -13310778.41849 -10358607.78946  22919686.342    22919691.804
 04  7 14  1 50  0.0000000  0  9G 3G27G28G 1G23G10G13G 8G19
  23163705.435   -11513993.43349  -8808580.17346  23163704.941    23163712.226
  20882765.851   -22978340.39649 -17890571.76648  20882765.382    20882771.664
  23651449.087    -9132806.46949  -7103831.27445  23651448.383    23651455.814
  23955496.004    -7427423.30049  -5575371.95745  23955495.595    23955504.500
  24699747.143    -5317806.17949  -3921323.56745  24699746.551    24699752.853
  23465497.854    -4342746.17649  -3377002.95846  23465496.975    23465504.537
  20565380.911   -23453299.08849 -18266075.40548  20565380.873    20565385.843
  21584030.586   -21848021.47349 -17007047.24047  21584029.907    21584036.553
  22910123.544   -13361036.47649 -10397769.88346  22910122.492    22910127.985
 04  7 14  1 50 30.0000000  0  9G 3G27G28G 1G23G10G13G 8G19
  23168418.512   -11489226.21849  -8789281.03946  23168418.028    23168425.272
  20879364.678   -22996213.44649 -17904498.81348  20879364.197    20879370.508
  23633032.503    -9229585.64749  -7179243.53845  23633031.793    23633039.340
  23974105.388    -7329631.54849  -5499170.70045  23974104.872    23974113.793
  24719900.128    -5211900.96649  -3838800.14545  24719899.709    24719906.012
  23457230.353    -4386191.90149  -3410856.75146  23457229.478    23457237.102
  20573102.164   -23412723.93049 -18234458.41848  20573102.108    20573107.075
  21573033.886   -21905809.56849 -17052076.90047  21573033.170    21573039.870
  22900641.235   -13410866.42649 -10436598.37246  22900640.127    22900645.641
 04  7 14  1 51  0.0000000  0  8G 3G27G28G 1G10G13G 8G19
  23173238.217   -11463897.99649  -8769544.77646  23173237.782    23173245.015
  20875996.965   -23013910.80949 -17918288.96248  20875996.478    20876002.801
  23614652.480    -9326172.21749  -7254505.71245  23614651.927    23614659.509
  23992749.826    -7231654.13649  -5422824.78645  23992749.416    23992758.519
  23449065.289    -4429099.97349  -3444291.60946  23449064.351    23449071.918
  20580912.380   -23371680.92949 -18202476.87848  20580912.331    20580917.283
  21562073.299   -21963407.54749 -17096958.42247  21562072.608    21562079.338
  22891240.708   -13460266.29649 -10475091.74546  22891239.614    22891245.103
 04  7 14  1 51 30.0000000  0  8G 3G27G28G 1G10G13G 8G19
  23178164.784   -11438009.07149  -8749371.59046  23178164.370    23178171.473
  20872662.760   -23031432.07749 -17931941.89048  20872662.287    20872668.594
  23596309.615    -9422564.38749  -7329616.38746  23596309.025    23596316.578
  24011429.540    -7133491.90449  -5346334.83045  24011429.034    24011438.335
  23441002.807    -4471468.45549  -3477305.98446  23441001.852    23441009.482
  20588811.663   -23330169.91949 -18170130.65348  20588811.622    20588816.594
  21551148.981   -22020815.20149 -17141691.63547  21551148.281    21551154.973
  22881922.561   -13509233.26149 -10513247.79246  22881921.476    22881926.977
 04  7 14  1 52  0.0000000  0  8G 3G27G28G 1G10G13G 8G19
  23183197.969   -11411559.47549  -8728761.52846  23183197.536    23183204.736
  20869362.150   -23048777.02549 -17945457.42948  20869361.662    20869367.938
  23578003.946    -9518760.77649  -7404574.53646  23578003.388    23578010.944
  24030143.991    -7035146.25749  -5269701.96645  24030143.728    24030152.979
  23433043.369    -4513295.88749  -3509898.77546  23433042.363    23433049.899
  20596799.985   -23288191.18349 -18137419.97048  20596799.932    20596804.900
  21540260.983   -22078031.83149 -17186276.00047  21540260.298    21540266.909
  22872687.266   -13557765.22149 -10551064.87046  22872686.129    22872691.621
 04  7 14  1 52 30.0000000  0  8G 3G27G28G 1G10G13G 8G19
  23188337.586   -11384550.27249  -8707715.40646  23188337.178    23188344.433
  20866095.167   -23065945.48049 -17958835.44248  20866094.663    20866100.906
  23559736.098    -9614759.78449  -7479378.86546  23559735.474    23559742.810
  24048893.121    -6936618.72349  -5192927.38145  24048892.798    24048902.264
  23425187.080    -4554581.32849  -3542069.25046  23425186.031    23425193.428
  20604877.173   -23245745.28949 -18104345.26848  20604877.110    20604882.093
  21529409.431   -22135057.03649 -17230711.20147  21529408.780    21529415.306
  22863535.098   -13605859.87849 -10588541.18446  22863533.995    22863539.483
 04  7 14  1 53  0.0000000  0  8G 3G27G28G 1G10G13G 8G19
  23193583.639   -11356982.26149  -8686233.84146  23193583.236    23193590.531
  20862861.702   -23082937.48749 -17972075.96148  20862861.192    20862867.424
  23541506.028    -9710560.13249  -7554028.40746  23541505.225    23541512.549
  24067676.873    -6837911.02649  -5116012.42545  24067676.314    24067685.916
  23417434.065    -4595323.69949  -3573816.53546  23417432.998    23417440.356
  20613043.282   -23202832.18249 -18070906.50548  20613043.217    20613048.188
  21518594.288   -22191891.04849 -17274997.41947  21518593.628    21518600.043
  22854466.539   -13653515.44449 -10625675.35646  22854465.433    22854470.943
 04  7 14  1 53 30.0000000  0  8G 3G27G28G 1G10G13G 8G19
  23198935.906   -11328855.82249  -8664317.14646  23198935.491    23198942.874
  20859661.848   -23099752.49749 -17985178.56648  20859661.367    20859667.632
  23523313.779    -9806159.88249  -7628521.64946  23523313.219    23523320.473
  24086494.464    -6739024.09049  -5038957.77545  24086493.937    24086503.533
  23409784.713    -4635521.61549  -3605139.57546  23409783.664    23409790.977
  20621298.218   -23159452.29849 -18037104.01748  20621298.172    20621303.126
  21507815.771   -22248532.83249 -17319133.84947  21507815.079    21507821.451
  22845482.081   -13700728.90349 -10662465.03046  22845480.973    22845486.533
 04  7 14  1 54  0.0000000  0  8G 3G27G28G 1G10G13G 8G19
  23204394.337   -11300171.47449  -8641965.70946  23204393.932    23204401.359
  20856495.729   -23116390.31149 -17998143.09248  20856495.259    20856501.584
  23505160.460    -9901557.80549  -7702857.58246  23505159.666    23505166.798
  24105345.850    -6639959.57249  -4961764.75445  24105345.336    24105354.848
  23402239.203    -4675173.94149  -3636037.47446  23402238.088    23402245.390
  20629641.896   -23115605.86149 -18002937.98548  20629641.836    20629646.808
  21497073.863   -22304982.00449 -17363120.20347  21497073.156    21497079.545
  22836582.174   -13747498.12449 -10698908.54846  22836581.084    22836586.622
 04  7 14  1 54 30.0000000  0  8G 3G27G28G 1G10G13G 8G19
  23209958.809   -11270929.94049  -8619180.10646  23209958.420    23209965.912
  20853363.439   -23132850.80149 -18010969.44748  20853362.957    20853369.261
  23487045.610    -9996752.11149  -7777034.88046  23487044.707    23487051.778
  24124230.946    -6540718.77349  -4884434.39345  24124230.373    24124239.877
  23394797.699    -4714279.38249  -3666509.24246  23394796.569    23394803.864
  20638074.367   -23071293.05449 -17968408.54748  20638074.328    20638079.296
  21486368.579   -22361238.50549 -17406956.41947  21486367.887    21486374.348
  22827767.139   -13793821.04849 -10735004.29346  22827766.047    22827771.632
 04  7 14  1 55  0.0000000  0  8G 3G27G28G 1G10G13G 8G19
  23215629.252   -11241131.57749  -8595960.62146  23215628.845    23215636.438
  20850265.027   -23149133.23749 -18023657.05548  20850264.552    20850270.789
  23468969.394   -10091740.94049  -7851052.06046  23468968.801    23468975.898
  24143149.271    -6441302.85249  -4806967.55845  24143148.796    24143158.184
  23387460.493    -4752836.30749  -3696553.57946  23387459.388    23387466.765
  20646595.488   -23026514.24749 -17933515.99348  20646595.469    20646600.451
  21475700.053   -22417301.52749 -17450641.87647  21475699.353    21475705.891
  22819037.622   -13839694.96149 -10770750.16446  22819036.530    22819042.069
 04  7 14  1 55 30.0000000  0  8G 3G27G28G 1G10G13G 8G19
  23221405.540   -11210777.23149  -8572307.88746  23221405.106    23221412.675
  20847200.555   -23165237.30349 -18036205.67348  20847200.054    20847206.232
  23450933.175   -10186522.60149  -7924907.78646  23450932.418    23450939.473
  24162100.618    -6341713.07549  -4729365.24645  24162100.137    24162109.506
  23380227.907    -4790843.35249  -3726169.44046  23380226.875    23380234.434
  20655205.323   -22981269.27249 -17898260.18848  20655205.309    20655210.233
  21465068.503   -22473170.50449 -17494176.12947  21465067.773    21465074.375
  22810394.057   -13885117.51849 -10806144.32146  22810392.934    22810398.431
 04  7 14  1 56  0.0000000  0  8G 3G27G28G 1G10G13G 8G19
  23227287.257   -11179868.22349  -8548222.95546  23227286.844    23227294.521
  20844169.885   -23181163.26749 -18048615.51448  20844169.422    20844175.582
  23432936.236   -10281096.24049  -7998601.44046  23432935.536    23432942.609
  24181084.951    -6241951.43649  -4651629.04445  24181084.293    24181093.648
  23373100.136    -4828300.02749  -3755356.45246  23373099.100    23373106.679
  20663903.637   -22935559.43849 -17862642.15648  20663903.617    20663908.549
  21454473.813   -22528845.65049 -17537559.34447  21454473.127    21454479.745
  22801836.709   -13930086.79149 -10841185.28646  22801835.548    22801840.974
 04  7 14  1 56 30.0000000  0  8G 3G27G28G 1G10G13G 8G19
  23233274.441   -11148405.20349  -8523706.32946  23233274.039    23233281.690
  20841173.197   -23196910.92349 -18060886.41048  20841172.736    20841178.926
  23414979.171   -10375460.39049  -8072131.85546  23414978.507    23414985.549
  24200101.404    -6142019.30449  -4573759.96945  24200100.758    24200110.214
  23366077.372    -4865205.29449  -3784113.79646  23366076.322    23366083.831
  20672690.397   -22889384.91649 -17826662.02748  20672690.374    20672695.315
  21443916.128   -22584326.71249 -17580791.32047  21443915.436    21443922.053
  22793365.956   -13974600.85749 -10875871.53446  22793364.762    22793370.174
 04  7 14  1 57  0.0000000  0  8G 3G27G28G 1G10G13G 8G19
  23239367.051   -11116388.38949  -8498758.16746  23239366.631    23239374.345
  20838210.594   -23212479.54549 -18073017.80248  20838210.117    20838216.326
  23397062.514   -10469613.06649  -8145497.48646  23397061.821    23397068.800
  24219150.109    -6041917.77149  -4495758.88945  24219149.521    24219159.124
  23359159.899    -4901557.68749  -3812440.33546  23359158.820    23359166.284
  20681565.512   -22842745.93149 -17790319.97848  20681565.490    20681570.457
  21433395.521   -22639612.66149 -17623871.26147  21433394.820    21433401.448
  22784982.295   -14018657.25349 -10910201.15946  22784981.116    22784986.503
 04  7 14  1 57 30.0000000  0  8G 3G27G28G 1G10G13G 8G19
  23245564.846   -11083819.02349  -8473379.45046  23245564.401    23245572.154
  20835282.050   -23227869.29149 -18085009.81048  20835281.545    20835287.760
  23379186.212   -10563553.09649  -8218697.41846  23379185.497    23379192.494
  24238230.904    -5941648.63249  -4417627.22245  24238230.232    24238239.752
  23352347.651    -4937356.45149  -3840335.45746  23352346.557    23352353.890
  20690528.849   -22795643.06849 -17753616.47048  20690528.835    20690533.856
  21422911.993   -22694703.67149 -17666799.30847  21422911.327    21422917.964
  22776686.067   -14062253.88349 -10944172.52346  22776684.929    22776690.326
 04  7 14  1 58  0.0000000  0  8G 3G27G28G 1G10G13G 8G19
  23251867.560   -11050698.26049  -8447571.07846  23251867.137    23251874.865
  20832387.549   -23243080.08649 -18096862.37448  20832387.048    20832393.210
  23361350.603   -10657279.36549  -8291730.77646  23361349.814    23361356.935
  24257343.177    -5841213.52949  -4339366.20645  24257342.621    24257352.036
  23345640.857    -4972600.86149  -3867798.62446  23345639.780    23345647.078
  20699580.420   -22748077.06049 -17716552.06748  20699580.369    20699585.417
  21412465.629   -22749599.79649 -17709575.49747  21412464.939    21412471.575
  22768477.765   -14105388.92549 -10977784.20946  22768476.582    22768481.948
 04  7 14  1 58 30.0000000  0  8G 3G27G28G 1G10G13G 8G19
  23258275.213   -11017025.73749  -8421332.74846  23258274.811    23258282.588
  20829527.338   -23258110.72749 -18108574.55948  20829526.829    20829532.926
  23343555.866   -10750789.38049  -8364595.63246  23343555.253    23343562.519
  24276487.082    -5740612.93949  -4260976.25345  24276486.468    24276495.864
  23339039.898    -5007288.87849  -3894828.24346  23339038.770    23339046.091
  20708720.114   -22700047.45749 -17679126.41848  20708720.091    20708725.154
  21402056.668   -22804299.49449 -17752198.62047  21402055.965    21402062.576
  22760357.766   -14148059.39049 -11011033.88346  22760356.613    22760361.998
 04  7 14  1 59  0.0000000  0  8G 3G27G28G 1G10G13G 8G19
  23264787.533   -10982803.16549  -8394665.81646  23264787.123    23264794.789
  20826701.329   -23272961.37649 -18120146.49048  20826700.815    20826706.921
  23325802.787   -10844082.06349  -8437291.13846  23325802.163    23325809.440
  24295662.360    -5639848.94349  -4182458.98845  24295661.304    24295670.704
  23332544.845    -5041419.72049  -3921423.68346  23332543.796    23332551.125
  20717947.899   -22651555.37249 -17641340.39248  20717947.863    20717952.905
  21391685.081   -22858802.55449 -17794668.52847  21391684.345    21391690.989
  22752326.522   -14190263.50749 -11043920.18146  22752325.383    22752330.759
 04  7 14  1 59 30.0000000  0  8G 3G27G28G 1G10G13G 8G19
  23271404.223   -10948031.68249  -8367571.15346  23271403.882    23271411.582
  20823909.554   -23287632.06549 -18131578.19248  20823909.048    20823915.206
  23308091.409   -10937156.45249  -8509816.54846  23308090.665    23308097.879
  24314867.688    -5538923.32549  -4103815.75045  24314866.847    24314876.343
  23326155.970    -5074992.91849  -3947584.60946  23326154.940    23326162.398
  20727263.550   -22602601.49349 -17603194.52848  20727263.484    20727268.494
  21381350.880   -22913109.34549 -17836985.49647  21381350.139    21381356.761
  22744384.401   -14231999.40849 -11076441.63246  22744383.271    22744388.646
 04  7 14  2  0  0.0000000  0  8G 3G27G28G 1G10G13G 8G19
  23278125.348   -10912711.58449  -8340049.02246  23278125.020    23278132.767
  20821152.218   -23302121.99649 -18142869.04448  20821151.727    20821157.887
  23290421.706   -11030010.38249  -8582170.18546  23290421.017    23290428.350
  24334103.509    -5437836.94649  -4025047.25845  24334102.981    24334112.471
  23319873.553    -5108007.00449  -3973309.86646  23319872.538    23319880.094
  20736667.040   -22553185.88049 -17564688.87048  20736666.984    20736671.992
  21371054.206   -22967218.74849 -17879148.65547  21371053.468    21371060.068
  22736531.923   -14273264.75349 -11108596.42046  22736530.757    22736536.039
 04  7 14  2  0 30.0000000  0  8G 3G27G28G 1G10G13G 8G19
  23284950.812   -10876843.55649  -8312099.91246  23284950.524    23284958.266
  20818429.417   -23316430.37849 -18154018.43348  20818428.912    20818435.074
  23272794.342   -11122642.05549  -8654350.62346  23272793.680    23272801.049
  24353370.247    -5336590.83249  -3946154.29745  24353369.673    24353379.206
  23313697.731    -5140460.62349  -3998598.39546  23313696.783    23313704.397
  20746158.455   -22503308.49549 -17525823.39048  20746158.383    20746163.368
  21360795.189   -23021129.85149 -17921157.29547  21360794.480    21360801.072
  22728769.375   -14314056.83349 -11140382.42446  22728768.251    22728773.516
 04  7 14  2  1  0.0000000  0  8G 3G27G28G 1G10G13G 8G19
  23291880.040   -10840430.98849  -8283726.47946  23291879.638    23291887.355
  20815740.765   -23330559.24949 -18165027.94148  20815740.283    20815746.437
  23255209.287   -11215052.18149  -8726358.42546  23255208.594    23255215.844
  24372666.471    -5235188.78049  -3867139.82045  24372665.865    24372675.635
  23307628.409    -5172355.19949  -4023451.28846  23307627.495    23307635.041
  20755737.153   -22452972.11649 -17486600.25248  20755737.082    20755742.070
  21350573.623   -23074844.60649 -17963012.93447  21350572.926    21350579.500
  22721096.883   -14354375.90749 -11171799.85646  22721095.743    22721101.068
 04  7 14  2  1 30.0000000  0  8G 3G27G28G 1G10G13G 8G19
  23298912.880   -10803473.03049  -8254928.08046  23298912.528    23298920.135
  20813086.676   -23344506.44349 -18175895.88648  20813086.220    20813092.326
  23237666.817   -11307237.65049  -8798191.19746  23237666.238    23237673.503
  24391992.180    -5133630.74549  -3788003.79545  24391991.796    24392001.659
  23301666.062    -5203688.17349  -4047866.59446  23301665.073    23301672.601
  20765403.371   -22402175.65349 -17447018.60948  20765403.310    20765408.328
  21340389.837   -23128360.71849 -18004713.78947  21340389.106    21340395.682
  22713515.092   -14394218.36649 -11202845.89546  22713513.932    22713519.268
 04  7 14  2  2  0.0000000  0  8G 3G27G28G 1G10G13G 8G19
  23306049.441   -10765970.60449  -8225705.41646  23306049.038    23306056.614
  20810467.304   -23358271.83849 -18186622.16748  20810466.774    20810472.906
  23220167.463   -11399197.20249  -8869847.91546  23220166.873    23220174.063
  24411347.600    -5031918.17149  -3708747.36745  24411347.085    24411356.901
  23295810.643    -5234458.53349  -4071843.48146  23295809.617    23295817.170
  20775157.013   -22350919.75549 -17407078.96148  20775156.958    20775162.021
  21330243.870   -23181677.86249 -18046259.60347  21330243.150    21330249.686
  22706024.433   -14433582.17149 -11233518.96646  22706023.237    22706028.526
 04  7 14  2  2 30.0000000  0  8G 3G27G28G 1G10G13G 8G19
  23313289.316   -10727924.91449  -8196059.42346  23313288.916    23313296.377
  20807882.379   -23371855.33649 -18197206.71048  20807881.873    20807888.045
  23202711.367   -11490929.52449  -8941327.57946  23202710.778    23202717.935
  24430732.129    -4930052.67649  -3629371.76445  24430731.616    24430741.360
  23290062.459    -5264665.47149  -4095381.35846  23290061.377    23290068.980
  20784997.883   -22299205.57349 -17366782.21448  20784997.855    20785002.898
  21320135.747   -23234796.17149 -18087650.48347  21320135.048    21320141.563
  22698625.204   -14472465.48649 -11263817.62246  22698623.990    22698629.216
 04  7 14  2  3  0.0000000  0  8G 3G27G28G 1G10G13G 8G19
  23320632.342   -10689337.01049  -8165990.93746  23320631.863    23320639.475
  20805332.199   -23385256.32249 -18207649.03748  20805331.729    20805337.914
  23185298.826   -11582432.98649  -9012628.91146  23185298.233    23185305.325
  24450145.380    -4828035.78349  -3549878.18245  24450144.916    24450154.554
  23284421.458    -5294308.14249  -4118479.52346  23284420.452    23284428.202
  20794926.040   -22247033.03449 -17326128.30748  20794925.992    20794931.035
  21310065.647   -23287714.86649 -18128885.81447  21310064.949    21310071.486
  22691317.762   -14510866.17649 -11293740.21046  22691316.608    22691321.783
 04  7 14  2  3 30.0000000  0  8G 3G27G28G 1G10G13G 8G19
  23328078.396   -10650208.03249  -8135500.82846  23328077.887    23328085.542
  20802816.901   -23398474.44549 -18217948.87548  20802816.440    20802822.602
  23167930.051   -11673706.20849  -9083750.84346  23167929.437    23167936.549
  24469587.149    -4725868.91649  -3470267.73945  24469586.727    24469596.366
  23278888.070    -5323385.65649  -4141137.31746  23278887.102    23278894.968
  20804941.282   -22194402.62449 -17285117.61348  20804941.239    20804946.284
  21300033.696   -23340433.13849 -18169964.97347  21300033.004    21300039.525
  22684102.554   -14548782.17949 -11323285.12246  22684101.354    22684106.574
 04  7 14  2  4  0.0000000  0  8G 3G27G28G 1G10G13G 8G19
  23335627.297   -10610539.13449  -8104589.99046  23335626.821    23335634.180
  20800336.418   -23411509.42849 -18228106.00348  20800335.937    20800342.115
  23150605.445   -11764747.75449  -9154692.25146  23150604.799    23150611.808
  24489057.290    -4623553.42349  -3390541.48045  24489056.838    24489066.474
  23273462.376    -5351897.61549  -4163354.41946  23273461.388    23273469.399
  20815043.472   -22141315.45549 -17243751.00948  20815043.395    20815048.487
  21290039.896   -23392951.06449 -18210888.02047  21290039.193    21290045.723
  22676979.867   -14586211.65749 -11352450.92646  22676978.694    22676983.963
 04  7 14  2  4 30.0000000  0  8G 3G27G28G 1G10G13G 8G19
  23343278.590   -10570331.47849  -8073259.36246  23343278.065    23343285.403
  20797890.795   -23424361.23749 -18238120.40248  20797890.340    20797896.475
  23133325.195   -11855556.44049  -9225452.21346  23133324.473    23133331.424
  24508555.429    -4521091.31349  -3310700.98345  24508554.880    24508564.471
  23268144.402    -5379843.56849  -4185130.47546  23268143.440    23268151.462
  20825232.359   -22087772.25649 -17202029.05948  20825232.312    20825237.415
  21280084.198   -23445268.71849 -18251655.01147  21280083.495    21280089.992
  22669950.132   -14623153.02449 -11381236.37946  22669948.961    22669954.252
 04  7 14  2  5  0.0000000  0  8G 3G27G28G 1G10G13G 8G19
  23351032.140   -10529585.72949  -8041509.42146  23351031.667    23351038.964
  20795480.252   -23437029.02849 -18247991.40148  20795479.759    20795485.864
  23116089.424   -11946130.42849  -9296029.29446  23116088.765    23116095.686
  24528081.066    -4418483.62749  -3230747.06345  24528080.593    24528090.176
  23262934.454    -5407222.23749  -4206464.49846  23262933.486    23262941.460
  20835508.008   -22033773.26249 -17159951.93748  20835507.978    20835513.106
  21270166.910   -23497384.37049 -18292264.59247  21270166.200    21270172.745
  22663013.744   -14659603.93549 -11409639.65147  22663012.533    22663017.850
 04  7 14  2  5 30.0000000  0  7G 3G27G28G10G13G 8G19
  23358887.892   -10488303.55249  -8009341.50446  23358887.369    23358894.615
  20793104.635   -23449512.97449 -18257719.14848  20793104.124    20793110.245
  23098898.525   -12036469.18649  -9366423.08646  23098897.866    23098904.738
  23257832.479    -5434033.38249  -4227356.30646  23257831.508    23257839.544
  20845870.206   -21979319.52549 -17117520.47948  20845870.174    20845875.345
  21260287.878   -23549298.71749 -18332717.32147  21260287.199    21260293.784
  22656170.882   -14695562.94649 -11437659.64347  22656169.740    22656175.056
 04  7 14  2  6  0.0000000  0  7G 3G27G28G10G13G 8G19
  23366845.658   -10446485.88149  -7976756.29246  23366845.100    23366852.156
  20790764.154   -23461812.30049 -18267303.03948  20790763.634    20790769.732
  23081752.747   -12126570.35749  -9436631.73146  23081752.116    23081758.974
  23252838.879    -5460275.39749  -4247804.61146  23252837.865    23252845.854
  20856318.832   -21924411.55149 -17074735.06448  20856318.811    20856324.001
  21250447.454   -23601010.29949 -18373012.05147  21250446.792    21250453.388
  22649422.204   -14731027.62149 -11465294.41947  22649421.062    22649426.321
 04  7 14  2  6 30.0000000  0  7G 3G27G28G10G13G 8G19
  23374904.789   -10404134.35049  -7943755.11146  23374904.260    23374911.396
  20788458.806   -23473926.98049 -18276743.04748  20788458.290    20788464.369
  23064652.400   -12216433.39549  -9506654.82346  23064651.714    23064658.584
  23247953.495    -5485948.36649  -4267809.52446  23247952.517    23247960.477
  20866853.782   -21869050.30149 -17031596.45248  20866853.758    20866858.930
  21240645.510   -23652519.79649 -18413149.31047  21240644.848    21240651.419
  22642767.843   -14765996.69449 -11492543.02647  22642766.699    22642771.891
 04  7 14  2  7  0.0000000  0  7G 3G27G28G10G13G 8G19
  23383065.583   -10361249.44949  -7910338.30646  23383065.031    23383072.189
  20786188.769   -23485855.94249 -18286038.33948  20786188.281    20786194.376
  23047597.633   -12306056.15249  -9576490.67946  23047596.980    23047603.848
  23243176.641    -5511051.02749  -4287370.02946  23243175.585    23243183.612
  20877475.020   -21813235.86949 -16988104.71548  20877474.965    20877480.138
  21230882.312   -23703825.64749 -18453127.88147  21230881.637    21230888.188
  22636208.200   -14800467.54249 -11519403.39747  22636207.070    22636212.287
 04  7 14  2  7 30.0000000  0  7G 3G27G28G10G13G 8G19
  23391327.412   -10317832.60849  -7876507.01446  23391326.931    23391334.219
  20783954.120   -23497599.14549 -18295188.88048  20783953.628    20783959.753
  23030588.821   -12395437.45749  -9646138.39646  23030588.196    23030595.055
  23238508.223    -5535583.15649  -4306485.96946  23238507.186    23238515.225
  20888182.169   -21756969.40249 -16944260.73448  20888182.122    20888187.294
  21221157.988   -23754927.50949 -18492947.49547  21221157.278    21221163.806
  22629743.693   -14834438.60749 -11545874.32347  22629742.595    22629747.780
 04  7 14  2  8  0.0000000  0  7G 3G27G28G10G13G 8G19
  23399690.381   -10273884.91149  -7842262.07146  23399689.882    23399697.253
  20781754.914   -23509156.21249 -18304194.39348  20781754.431    20781760.559
  23013626.321   -12484575.88249  -9715596.84746  23013625.609    23013632.553
  23233948.576    -5559544.07449  -4325156.79746  23233947.523    23233955.528
  20898975.280   -21700251.36749 -16900064.88948  20898975.240    20898980.411
  21211472.459   -23805825.34449 -18532608.13547  21211471.734    21211478.296
  22623374.627   -14867908.23349 -11571954.53147  22623373.485    22623378.664
 04  7 14  2  8 30.0000000  0  7G 3G27G28G10G13G 8G19
  23408154.047   -10229407.99749  -7807604.75346  23408153.563    23408161.061
  20779591.133   -23520526.98449 -18313054.73548  20779590.639    20779596.790
  22996710.035   -12573470.28849  -9784865.17546  22996709.500    22996716.511
  23229497.717    -5582933.29649  -4343382.16046  23229496.594    23229504.694
  20909854.098   -21643082.98049 -16855518.11948  20909854.039    20909859.167
  21201825.781   -23856518.93249 -18572109.61747  21201825.042    21201831.621
  22617101.292   -14900874.71349 -11597642.66747  22617100.167    22617105.313
 04  7 14  2  9  0.0000000  0  7G 3G27G28G10G13G 8G19
  23416718.088   -10184403.42449  -7772536.25946  23416717.604    23416725.144
  20777462.812   -23531711.07249 -18321769.60548  20777462.322    20777468.491
  22979840.746   -12662119.77649  -9853942.63146  22979840.058    22979846.986
  23225155.732    -5605750.54249  -4361161.82946  23225154.671    23225162.660
  20920818.406   -21585465.00449 -16810621.01848  20920818.379    20920823.512
  21192218.054   -23907007.65649 -18611451.47047  21192217.353    21192223.930
  22610923.933   -14933336.54149 -11622937.57647  22610922.874    22610928.014
 04  7 14  2  9 30.0000000  0  7G 3G27G28G10G13G 8G19
  23425382.198   -10138872.92249  -7737057.94946  23425381.726    23425389.383
  20775370.106   -23542708.43849 -18330338.98148  20775369.641    20775375.780
  22963018.213   -12750523.02249  -9922828.22146  22963017.474    22963024.336
  23220922.612    -5627995.69949  -4378495.71546  23220921.580    23220929.564
  20931868.101   -21527398.81049 -16765374.65148  20931868.059    20931873.178
  21182649.321   -23957291.56049 -18650633.72147  21182648.627    21182655.173
  22604843.079   -14965292.17249 -11647838.03847  22604841.904    22604846.971
 04  7 14  2 10  0.0000000  0  8G 3G27G28G10G13G31G 8G19
  23434145.602   -10092821.14449  -7701173.46846  23434145.099    23434152.731
  20773312.381   -23553522.31049 -18338765.37548  20773311.865    20773317.957
  22946241.955   -12838682.13649  -9991523.57846  22946241.338    22946248.176
  23216797.782    -5649671.54849  -4395385.97546  23216796.776    23216804.725
  20943002.312   -21468888.34049 -16719782.10248  20943002.251    20943007.378
  24635425.524    -4366912.61249  -3392743.67445  24635425.240    24635435.298
  21173119.053   -24007373.36649 -18689658.49547  21173118.365    21173124.865
  22598858.015   -14996743.52749 -11672345.56147  22598856.887    22598861.928
 04  7 14  2 10 30.0000000  0  8G 3G27G28G10G13G31G 8G19
  23443008.942   -10046244.08349  -7664879.67046  23443008.483    23443016.068
  20771290.554   -23564146.83349 -18347044.22548  20771290.025    20771296.161
  22929513.550   -12926590.54349 -10060023.58146  22929512.889    22929519.731
  23212782.488    -5670772.40749  -4411828.21046  23212781.496    23212789.318
  20954221.863   -21409929.41149 -16673840.10548  20954221.794    20954226.941
  24613908.266    -4479984.50249  -3480851.46745  24613908.167    24613918.434
  21163628.352   -24057247.63549 -18728521.54847  21163627.626    21163634.069
  22592970.324   -15027683.48649 -11696454.59347  22592969.163    22592974.238
 04  7 14  2 11  0.0000000  0  8G 3G27G28G10G13G31G 8G19
  23451971.886    -9999143.43149  -7628177.87646  23451971.468    23451979.094
  20769304.789   -23574581.75549 -18355175.33148  20769304.320    20769310.476
  22912833.056   -13014247.36449 -10128327.53246  22912832.406    22912839.151
  23208876.625    -5691298.13649  -4427822.27746  23208875.649    23208883.382
  20965526.536   -21350522.95649 -16627549.38647  20965526.458    20965531.633
  24592378.985    -4593120.09249  -3569008.90545  24592378.900    24592389.180
  21154177.195   -24106913.76649 -18767222.41947  21154176.478    21154182.901
  22587180.207   -15058110.61449 -11720164.01847  22587179.081    22587184.135
 04  7 14  2 11 30.0000000  0  8G 3G27G28G10G13G31G 8G19
  23461034.062    -9951520.99249  -7591069.49446  23461033.694    23461041.204
  20767355.186   -23584827.20649 -18363158.80248  20767354.709    20767360.851
  22896200.501   -13101651.82449 -10196434.83346  22896199.791    22896206.484
  23205080.186    -5711248.66449  -4443368.14646  23205079.218    23205086.784
  20976916.152   -21290670.16749 -16580910.87147  20976916.063    20976921.253
  24570838.074    -4706317.07049  -3657214.18045  24570838.093    24570848.200
  21144765.599   -24156371.91449 -18805761.22047  21144764.874    21144771.277
  22581487.904   -15088023.86749 -11743473.02447  22581486.752    22581491.796
 04  7 14  2 12  0.0000000  0  8G 3G27G28G10G13G31G 8G19
  23470195.366    -9903378.52249  -7553555.89246  23470194.902    23470202.476
  20765441.649   -23594883.06249 -18370994.53748  20765441.134    20765447.306
  22879616.057   -13188802.48049 -10264344.38646  22879615.532    22879622.136
  23201393.243    -5730623.85549  -4458465.69546  23201392.310    23201399.686
  20988390.469   -21230372.43449 -16533925.65147  20988390.370    20988395.551
  24549285.944    -4819573.04149  -3745465.41745  24549286.043    24549296.142
  21135393.673   -24205621.72949 -18844137.68847  21135392.932    21135399.302
  22575893.688   -15117421.73149 -11766380.42647  22575892.535    22575897.471
 04  7 14  2 12 30.0000000  0  8G 3G27G28G10G13G31G 8G19
  23479455.115    -9854717.59149  -7515638.31446  23479454.741    23479462.339
  20763564.154   -23604749.03049 -18378682.30348  20763563.664    20763569.857
  22863080.472   -13275698.79649 -10332055.72946  22863079.719    22863086.271
  23197815.774    -5749423.59049  -4473114.84346  23197814.837    23197822.082
  20999949.240   -21169630.68049 -16486594.43947  20999949.168    20999954.324
  24527723.333    -4932885.39249  -3833760.61445  24527723.400    24527733.335
  21126061.371   -24254663.04949 -18882351.69247  21126060.633    21126067.043
  22570397.776   -15146303.04549 -11788885.32647  22570396.650    22570401.544
 04  7 14  2 13  0.0000000  0  8G 3G27G28G10G13G31G 8G19
  23488813.368    -9805540.91949  -7477318.84046  23488812.824    23488820.179
  20761722.740   -23614425.96349 -18386222.77448  20761722.249    20761728.399
  22846593.235   -13362339.83949 -10399568.16146  22846592.394    22846598.949
  23194347.789    -5767648.67749  -4487316.21346  23194346.758    23194353.963
  21011592.137   -21108446.96949 -16438918.83947  21011592.067    21011597.252
  24506150.460    -5046252.62749  -3922098.56345  24506150.206    24506160.016
  21116768.588   -24303496.68949 -18920403.86647  21116767.866    21116774.303
  22565000.414   -15174666.58049 -11810986.75947  22564999.246    22565004.120
 04  7 14  2 13 30.0000000  0  8G 3G27G28G10G13G31G 8G19
  23498269.463    -9755848.88449  -7438597.80246  23498268.947    23498276.447
  20759917.593   -23623912.32149 -18393614.74348  20759917.069    20759923.219
  22830154.691   -13448723.93149 -10466880.36746  22830153.993    22830160.532
  23190989.297    -5785297.67649  -4501068.68546  23190988.283    23190995.488
  21023319.060   -21046821.50149 -16390899.02347  21023318.999    21023324.168
  24484567.615    -5159671.02249  -4010476.37345  24484566.978    24484577.098
  21107515.700   -24352120.96749 -18958292.90447  21107515.011    21107521.412
  22559701.759   -15202510.34849 -11832683.18947  22559700.684    22559705.610
 04  7 14  2 14  0.0000000  0  8G 3G27G28G10G13G31G 8G19
  23507823.422    -9705643.09649  -7399476.41546  23507822.942    23507830.262
  20758148.637   -23633207.70349 -18400857.89448  20758148.123    20758154.373
  22813765.508   -13534849.68649 -10533991.26646  22813764.749    22813771.258
  23187740.388    -5802370.40849  -4514372.11746  23187739.412    23187746.747
  21035129.926   -20984755.21349 -16342535.70447  21035129.843    21035135.006
  24462975.471    -5273137.77549  -4098891.87645  24462974.875    24462984.825
  21098302.789   -24400535.26049 -18996018.31347  21098302.089    21098308.443
  22554502.483   -15229832.99949 -11853973.54047  22554501.314    22554506.239
 04  7 14  2 14 30.0000000  0  8G 3G27G28G10G13G31G 8G19
  23517474.874    -9654924.98149  -7359955.82646  23517474.312    23517481.822
  20756416.211   -23642311.52949 -18407951.78648  20756415.732    20756421.979
  22797425.557   -13620715.85749 -10600899.89646  22797424.841    22797431.447
  23184601.201    -5818866.46249  -4527226.18446  23184600.245    23184607.728
  21047024.491   -20922248.77149 -16293829.41347  21047024.428    21047029.598
  24441374.582    -5386650.18849  -4187342.93845  24441374.000    24441383.881
  21089129.923   -24448739.15449 -19033579.77747  21089129.200    21089135.511
  22549402.649   -15256632.75849 -11874856.45047  22549401.464    22549406.434
 04  7 14  2 15  0.0000000  0  8G 3G27G28G10G13G31G 8G19
  23527223.253    -9603696.06449  -7320037.20546  23527222.833    23527230.257
  20754720.447   -23651223.16949 -18414895.92548  20754719.946    20754726.147
  22781135.378   -13706321.16549 -10667605.25446  22781134.639    22781141.255
  23181571.975    -5834785.51249  -4539630.64246  23181570.952    23181578.452
  21059002.679   -20859302.93749 -16244780.73847  21059002.616    21059007.801
  24419765.572    -5500205.19849  -4275827.21445  24419764.919    24419774.960
  21079997.207   -24496732.03949 -19070976.81747  21079996.482    21080002.773
  22544402.674   -15282907.97849 -11895330.63547  22544401.465    22544406.388
 04  7 14  2 15 30.0000000  0  8G 3G27G28G10G13G31G 8G19
  23537068.662    -9551958.57849  -7279722.29146  23537068.107    23537075.659
  20753061.012   -23659943.22549 -18421690.77148  20753060.515    20753066.779
  22764894.816   -13791665.11549 -10734106.95246  22764894.141    22764900.752
  23178652.418    -5850128.17649  -4551585.97846  23178651.363    23178658.857
  21071064.107   -20795919.66149 -16195391.19747  21071064.056    21071069.252
  24398148.794    -5613801.01949  -4364343.28845  24398148.174    24398158.243
  21070904.602   -24544513.84949 -19108209.38447  21070903.887    21070910.177
  22539502.617   -15308657.95049 -11915395.52447  22539501.408    22539506.349
 04  7 14  2 16  0.0000000  0  8G 3G27G28G10G13G31G 8G19
  23547010.444    -9499713.42949  -7239011.81246  23547010.034    23547017.638
  20751438.343   -23668470.33949 -18428335.27648  20751437.868    20751444.100
  22748704.531   -13876745.58449 -10800403.34746  22748703.830    22748710.436
  23175842.683    -5864893.47649  -4563091.39746  23175841.608    23175849.119
  21083208.761   -20732099.15849 -16145660.95647  21083208.708    21083213.952
  24376525.011    -5727434.02649  -4452888.31645  24376524.324    24376534.403
  21061852.376   -24592083.79749 -19145276.86347  21061851.663    21061857.913
  22534702.874   -15333880.58249 -11935049.50747  22534701.661    22534706.641
 04  7 14  2 16 30.0000000  0  8G 3G27G28G10G13G31G 8G19
  23557048.719    -9446962.24749  -7197907.00946  23557048.216    23557055.830
  20749852.579   -23676804.18049 -18434829.17948  20749852.046    20749858.194
  22732564.410   -13961561.63849 -10866493.71946  22732563.784    22732570.438
  23173142.848    -5879081.49549  -4574146.99946  23173141.758    23173149.333
  21095436.335   -20667842.79449 -16095591.08747  21095436.293    21095441.553
  24354894.724    -5841101.66149  -4541460.36145  24354894.058    24354904.130
  21052840.553   -24639441.33749 -19182178.82547  21052839.822    21052846.004
  22530003.740   -15358574.55149 -11954291.53847  22530002.524    22530007.581
 04  7 14  2 17  0.0000000  0  8G 3G27G28G10G13G31G 8G19
  23567182.874    -9393706.89449  -7156409.35046  23567182.459    23567190.120
  20748303.455   -23684944.51049 -18441172.29448  20748302.949    20748309.119
  22716474.985   -14046112.27649 -10932377.26046  22716474.323    22716481.001
  23170552.853    -5892692.34049  -4584752.85346  23170551.701    23170559.291
  21107746.689   -20603151.61249 -16045182.40347  21107746.641    21107751.931
  24333258.413    -5954801.24449  -4630057.26745  24333257.616    24333267.604
  21043869.186   -24686586.35549 -19218915.19148  21043868.443    21043874.602
  22525405.390   -15382738.58249 -11973120.63447  22525404.177    22525409.329
 04  7 14  2 17 30.0000000  0  8G 3G27G28G10G13G31G 8G19
  23577412.562    -9339949.23249  -7114520.28246  23577412.127    23577419.903
  20746791.267   -23692891.03649 -18447364.39548  20746790.786    20746796.977
  22700436.280   -14130396.37949 -10998053.11946  22700435.536    22700442.223
  23168072.582    -5905725.91849  -4594908.89446  23168071.498    23168079.012
  21120139.590   -20538026.70349 -15994435.75247  21120139.522    21120144.832
  24311616.441    -6068530.23149  -4718677.10545  24311615.539    24311625.477
  21034938.333   -24733518.29349 -19255485.51848  21034937.586    21034943.724
  22520908.170   -15406371.40849 -11991535.81247  22520906.991    22520912.084
 04  7 14  2 18  0.0000000  0  8G 3G27G28G10G13G31G 8G19
  23587737.697    -9285690.38149  -7072240.67046  23587737.260    23587745.185
  20745316.204   -23700642.91449 -18453404.82448  20745315.707    20745321.854
  22684448.367   -14214412.56249 -11063520.20946  22684447.694    22684454.403
  23165702.314    -5918181.72749  -4604614.71946  23165701.219    23165708.768
  21132614.803   -20472468.97049 -15943351.82947  21132614.745    21132620.071
  24289969.422    -6182285.34749  -4807317.31145  24289968.795    24289978.371
  21026048.219   -24780236.19749 -19291889.06748  21026047.480    21026053.618
  22516512.469   -15429471.35649 -12009535.74847  22516511.244    22516516.237
 04  7 14  2 18 30.0000000  0  8G 3G27G28G10G13G31G 8G19
  23598157.748    -9230932.36049  -7029572.08446  23598157.365    23598165.100
  20743878.141   -23708199.78249 -18459293.29848  20743877.622    20743883.795
  22668511.815   -14298159.47249 -11128777.47446  22668511.146    22668517.828
  23163441.903    -5930059.77049  -4613870.34246  23163440.903    23163448.335
  21145172.207   -20406479.47849 -15891931.47847  21145172.152    21145177.480
  24268318.082    -6296064.03649  -4895975.88745  24268317.224    24268326.716
  21017198.952   -24826739.33449 -19328125.25748  21017198.226    21017204.401
  22512218.375   -15452037.00649 -12027119.34947  22512217.146    22512222.102
 04  7 14  2 19  0.0000000  0  8G 3G27G28G10G13G31G 8G19
  23608672.656    -9175677.11549  -6986516.08246  23608672.097    23608679.973
  20742477.224   -23715561.55349 -18465029.74648  20742476.712    20742482.907
  22652626.799   -14381636.48849 -11193824.43846  22652625.993    22652632.642
  23161291.596    -5941360.38249  -4622676.01546  23161290.523    23161297.923
  21157811.461   -20340060.17049 -15840176.20247  21157811.382    21157816.677
  24246662.474    -6409863.86949  -4984650.92745  24246661.756    24246671.202
  21008390.449   -24873028.18349 -19364194.47248  21008389.715    21008395.910
  22508026.014   -15474067.70849 -12044286.11747  22508024.809    22508029.815
 04  7 14  2 19 30.0000000  0  8G 3G27G28G10G13G31G 8G19
  23619281.625    -9119925.85349  -6943073.53945  23619281.251    23619288.973
  20741113.720   -23722727.19049 -18470613.36448  20741113.196    20741119.351
  22636793.223   -14464841.81649 -11258659.69246  22636792.494    22636799.104
  23159251.150    -5952083.05149  -4631031.34146  23159250.084    23159257.474
  21170532.426   -20273211.15449 -15788086.08847  21170532.375    21170537.623
  24225003.615    -6523681.32449  -5073339.72445  24225002.890    24225012.333
  20999622.993   -24919101.52249 -19400095.76048  20999622.274    20999628.420
  22503935.822   -15495561.54149 -12061034.53247  22503934.630    22503939.642
 04  7 14  2 20  0.0000000  0  8G 3G27G28G10G13G31G 8G19
  23629984.821    -9063680.85649  -6899246.29445  23629984.323    23629991.935
  20739787.456   -23729696.57249 -18476044.05548  20739786.934    20739793.076
  22621011.474   -14547774.88049 -11323282.80346  22621010.791    22621017.404
  23157320.583    -5962228.57849  -4638936.95646  23157319.491    23157326.845
  21183334.908   -20205933.89949 -15735662.28247  21183334.842    21183340.105
  24203341.778    -6637514.12249  -5162040.46545  24203341.176    24203350.570
  20990896.565   -24964959.28149 -19435829.06448  20990895.795    20990901.941
  22499948.004   -15516517.51849 -12077363.84547  22499946.821    22499951.846
 04  7 14  2 20 30.0000000  0  8G 3G27G28G10G13G31G 8G19
  23640781.588    -9006943.17949  -6855035.14445  23640781.208    23640788.750
  20738498.707   -23736468.82649 -18481321.14348  20738498.236    20738504.375
  22605281.911   -14630433.94349 -11387692.39746  22605281.230    22605287.838
  23155499.758    -5971796.24749  -4646392.28246  23155498.752    23155506.226
  21196218.675   -20138229.24349 -15682905.43847  21196218.643    21196223.949
  24181677.859    -6751358.87749  -5250750.53245  24181677.194    24181686.474
  20982211.307   -25010600.16349 -19471393.37648  20982210.568    20982216.748
  22496062.891   -15536934.09549 -12093272.84547  22496061.641    22496066.701
 04  7 14  2 21  0.0000000  0  8G 3G27G28G10G13G31G 8G19
  23651671.854    -8949714.73949  -6810441.56945  23651671.438    23651678.974
  20737247.580   -23743043.72049 -18486444.44348  20737247.083    20737253.251
  22589604.591   -14712818.30549 -11451887.94346  22589603.913    22589610.502
  23153788.930    -5980786.24449  -4653397.47946  23153787.957    23153795.526
  21209183.496   -20070098.72649 -15629816.75347  21209183.458    21209188.824
  24160012.207    -6865213.14749  -5339468.00345  24160011.342    24160020.622
  20973567.382   -25056024.18149 -19506788.69948  20973566.642    20973572.840
  22492280.519   -15556810.37249 -12108760.83547  22492279.279    22492284.331
 04  7 14  2 21 30.0000000  0  8G 3G27G28G10G13G31G 8G19
  23662655.114    -8891997.64549  -6765467.23345  23662654.596    23662662.119
  20736033.992   -23749420.97949 -18491413.73848  20736033.513    20736039.705
  22573979.769   -14794927.05249 -11515868.72846  22573979.119    22573985.640
  23152188.053    -5989198.87749  -4659952.78746  23152187.084    23152194.678
  21222229.149   -20001543.40449 -15576397.05247  21222229.107    21222234.470
  24138345.114    -6979074.11949  -5428190.70645  24138344.233    24138353.541
  20964964.920   -25101230.75949 -19542014.59048  20964964.137    20964970.344
  22488601.270   -15576145.02649 -12123826.78647  22488599.986    22488605.028
 04  7 14  2 22  0.0000000  0  8G 3G27G28G10G13G31G 8G19
  23673730.907    -8833793.21749  -6720113.15845  23673730.467    23673738.057
  20734858.265   -23755599.48249 -18496228.16448  20734857.807    20734863.951
  22558407.747   -14876758.33549 -11579633.31446  22558407.070    22558413.529
  23150697.050    -5997034.00849  -4666058.09046  23150696.086    23150703.687
  21235355.496   -19932564.04649 -15522646.93347  21235355.469    21235360.810
  24116677.279    -7092938.64149  -5516916.17245  24116676.283    24116685.739
  20956403.831   -25146219.43849 -19577070.69148  20956403.064    20956409.275
  22485025.330   -15594936.65349 -12138469.59447  22485024.052    22485029.090
 04  7 14  2 22 30.0000000  0  8G 3G27G28G10G13G31G 8G19
  23684899.196    -8775103.79949  -6674381.16445  23684898.686    23684906.391
  20733720.344   -23761579.40149 -18500887.84048  20733719.854    20733726.016
  22542888.598   -14958311.52549 -11643181.20446  22542887.973    22542894.449
  23149315.883    -6004292.15049  -4671713.77846  23149314.913    23149322.465
  21248562.214   -19863162.65649 -15468567.95847  21248562.166    21248567.500
  24095009.252    -7206804.21149  -5605642.45445  24095008.383    24095017.632
  20947884.350   -25190989.37549 -19611956.34648  20947883.602    20947889.787
  22481552.783   -15613184.48449 -12152688.66147  22481551.556    22481556.592
 04  7 14  2 23  0.0000000  0  8G 3G27G28G10G13G31G 8G19
  23696159.472    -8715931.00049  -6628272.47845  23696159.000    23696166.556
  20732620.351   -23767359.80049 -18505392.04548  20732619.876    20732626.089
  22527422.720   -15039585.46549 -11706511.49146  22527422.050    22527428.505
  23148044.549    -6010973.25949  -4676919.86046  23148043.583    23148051.081
  21261849.034   -19793340.01549 -15414160.73447  21261848.978    21261854.303
  24073341.546    -7320667.75749  -5694367.15145  24073340.743    24073350.019
  20939406.617   -25235540.00749 -19646671.12048  20939405.871    20939412.032
  22478184.009   -15630887.07849 -12166482.87547  22478182.798    22478187.829
 04  7 14  2 23 30.0000000  0  8G 3G27G28G10G13G31G 8G19
  23707511.196    -8656276.36149  -6581788.39345  23707510.722    23707518.727
  20731558.484   -23772939.99249 -18509740.25148  20731558.001    20731564.173
  22512010.202   -15120578.92349 -11769623.23146  22512009.510    22512015.903
  23146882.964    -6017077.42149  -4681676.36746  23146882.017    23146889.513
  21275215.854   -19723097.32449 -15359426.20047  21275215.745    21275221.087
  24051674.927    -7434526.28449  -5783087.94445  24051674.193    24051683.380
  20930970.783   -25279870.40449 -19681214.27948  20930970.091    20930976.149
  22474919.255   -15648043.07249 -12179851.16747  22474918.108    22474923.127
 04  7 14  2 24  0.0000000  0  8G 3G27G28G10G13G31G 8G19
  23718954.487    -8596141.99149  -6534930.43945  23718954.040    23718961.818
  20730534.738   -23778319.90049 -18513932.38848  20730534.230    20730540.418
  22496651.137   -15201291.00149 -11832515.70646  22496650.443    22496656.831
  23145831.090    -6022604.95249  -4685983.54546  23145830.105    23145837.701
  21288662.277   -19652435.91749 -15304365.39447  21288662.196    21288667.555
  24030009.776    -7548376.93549  -5871802.60045  24030009.071    24030018.248
  20922576.949   -25323980.61549 -19715585.86548  20922576.222    20922582.194
  22471758.783   -15664651.67149 -12192792.91347  22471757.596    22471762.649
 04  7 14  2 24 30.0000000  0  8G 3G27G28G10G13G31G 8G19
  23730488.482    -8535529.94449  -6487700.30845  23730487.985    23730495.808
  20729549.166   -23783498.95149 -18517968.01548  20729548.662    20729554.924
  22481345.752   -15281720.76549 -11895188.20046  22481345.109    22481351.542
  23144888.896    -6027556.27349  -4689841.73046  23144887.898    23144895.532
  21302188.152   -19581357.08449 -15248979.32447  21302188.042    21302193.460
  24008346.636    -7662217.19249  -5960509.16145  24008345.978    24008354.937
  20914225.031   -25367870.23349 -19749785.56048  20914224.294    20914230.245
  22468702.644   -15680712.11749 -12205307.54047  22468701.452    22468706.461
 04  7 14  2 25  0.0000000  0  8G 3G27G28G10G13G31G 8G19
  23742113.176    -8474441.89249  -6440099.25445  23742112.697    23742120.458
  20728601.960   -23788476.44149 -18521846.58648  20728601.478    20728607.733
  22466094.419   -15361866.93049 -11957639.71246  22466093.757    22466100.193
  23144056.336    -6031931.52249  -4693251.03646  23144055.324    23144062.950
  21315793.218   -19509861.82949 -15193268.76647  21315793.134    21315798.547
  23986686.091    -7776043.83449  -6049205.11545  23986685.424    23986694.246
  20905915.288   -25411538.33349 -19783812.64348  20905914.547    20905920.528
  22465751.009   -15696223.09449 -12217393.99847  22465749.815    22465754.812
 04  7 14  2 25 30.0000000  0  8G 3G27G28G10G13G31G 8G19
  23753828.142    -8412879.68549  -6392128.72945  23753827.627    23753835.375
  20727693.190   -23793252.05649 -18525567.84848  20727692.727    20727698.981
  22450897.095   -15441728.50249 -12019869.45546  22450896.528    22450902.988
  23143333.272    -6035731.05849  -4696211.73646  23143332.294    23143339.899
  21329477.217   -19437951.84549 -15137235.04047  21329477.160    21329482.540
  23965028.483    -7889854.10349  -6137888.31345  23965027.926    23965036.746
  20897647.832   -25454984.24049 -19817666.59248  20897647.050    20897653.077
  22462904.023   -15711183.53549 -12229051.47947  22462902.876    22462907.892
 04  7 14  2 26  0.0000000  0  8G 3G27G28G10G13G31G 8G19
  23765632.953    -8350845.19549  -6343790.20245  23765632.425    23765640.282
  20726823.094   -23797824.72649 -18529130.97148  20726822.599    20726828.855
  22435754.338   -15521304.34349 -12081876.55047  22435753.771    22435760.170
  23142719.804    -6038954.92049  -4698723.84646  23142718.819    23142726.448
  21343240.007   -19365628.13849 -15080878.93247  21343239.942    21343245.292
  23943374.663    -8003644.83349  -6226556.28845  23943374.107    23943383.024
  20889422.729   -25498207.21749 -19851346.82748  20889421.934    20889428.055
  22460162.156   -15725592.40749 -12240279.14347  22460160.964    22460165.995
 04  7 14  2 26 30.0000000  0  8G 3G27G28G10G13G31G 8G19
  23777527.236    -8288340.51849  -6295085.28145  23777526.721    23777534.517
  20725991.569   -23802194.43749 -18532535.94348  20725991.075    20725997.367
  22420666.050   -15600593.51649 -12143660.27447  22420665.496    22420671.923
  23142215.852    -6041603.62049  -4700787.79846  23142214.868    23142222.446
  21357081.260   -19292892.07949 -15024201.51247  21357081.180    21357086.552
  23921725.100    -8117413.38249  -6315206.97645  23921724.535    23921733.363
  20881240.020   -25541207.08049 -19884853.21148  20881239.289    20881245.473
  22457525.327   -15739448.81749 -12251076.33547  22457524.179    22457529.204
 04  7 14  2 27  0.0000000  0  8G 3G27G28G10G13G31G 8G19
  23789510.610    -8225368.15349  -6246015.92345  23789510.035    23789517.725
  20725198.677   -23806360.96049 -18535782.59048  20725198.184    20725204.436
  22405632.490   -15679595.39749 -12205220.12947  22405631.904    22405638.304
  23141821.144    -6043677.85349  -4702404.09646  23141820.171    23141827.700
  21371000.639   -19219745.41449 -14967204.13947  21371000.564    21371005.945
  23900080.278    -8231157.21249  -6403838.40145  23900079.630    23900088.515
  20873099.914   -25583983.58249 -19918185.54648  20873099.184    20873105.395
  22454993.843   -15752752.25149 -12261442.63847  22454992.652    22454997.634
 04  7 14  2 27 30.0000000  0  8G 3G27G28G10G13G31G 8G19
  23801582.757    -8161928.91249  -6196582.76445  23801582.267    23801589.748
  20724444.772   -23810323.01449 -18538869.91148  20724444.266    20724450.498
  22390653.948   -15758308.08049 -12266554.63747  22390653.324    22390659.736
  23141535.872    -6045177.27149  -4703572.48746  23141534.829    23141542.377
  21384998.017   -19146188.80349 -14909887.32847  21384997.944    21385003.348
  23878440.684    -8344872.69549  -6492447.74945  23878440.160    23878449.099
  20865002.520   -25626535.47749 -19951342.86448  20865001.790    20865008.067
  22452567.807   -15765501.02949 -12271376.73747  22452566.671    22452571.593
 04  7 14  2 28  0.0000000  0  8G 3G27G28G10G13G31G 8G19
  23813743.131    -8098025.60249  -6146788.02245  23813742.669    23813750.182
  20723729.730   -23814080.46149 -18541797.79248  20723729.221    20723735.519
  22375730.428   -15836731.30349 -12327663.58647  22375729.854    22375736.275
  23141359.660    -6046103.09149  -4704293.91746  23141358.651    23141366.278
  21399073.050   -19072223.80549 -14852252.29747  21399073.010    21399078.483
  23856807.122    -8458557.31049  -6581033.04545  23856806.517    23856815.556
  20856947.935   -25668862.60149 -19984325.03348  20856947.206    20856953.529
  22450247.395   -15777694.75149 -12280878.32847  22450246.228    22450251.196
 04  7 14  2 28 30.0000000  0  8G 3G27G28G10G13G31G 8G19
  23825991.646    -8033659.62249  -6096632.73845  23825991.200    23825998.519
  20723053.794   -23817632.50449 -18544565.62348  20723053.279    20723059.565
  22360862.393   -15914863.78449 -12388545.99047  22360861.708    22360868.110
  23141292.703    -6046455.31249  -4704568.39446  23141291.707    23141299.297
  21413225.566   -18997851.88249 -14794300.18147  21413225.513    21413231.023
  23835180.129    -8572207.80549  -6669591.74545  23835179.459    23835188.430
  20848936.233   -25710964.10649 -20017131.39748  20848935.522    20848941.878
  22448032.834   -15789332.33249 -12289946.56447  22448031.651    22448036.619
 04  7 14  2 29  0.0000000  0  8G 3G27G28G10G13G31G 8G19
  23838327.697    -7968833.35949  -6046118.79545  23838327.200    23838334.583
  20722417.045   -23820978.67249 -18547173.03448  20722416.530    20722422.791
  22346049.861   -15992704.50349 -12449201.05247  22346049.122    22346055.460
  23141334.680    -6046234.59649  -4704396.43346  23141333.708    23141341.299
  21427455.194   -18923074.54049 -14736032.15847  21427455.131    21427460.712
  23813559.976    -8685821.39849  -6758121.70945  23813559.476    23813568.432
  20840967.652   -25752839.25549 -20049761.38448  20840966.969    20840973.298
  22445924.251   -15800412.81549 -12298580.69247  22445923.101    22445928.105
 04  7 14  2 29 30.0000000  0  8G 3G27G28G10G13G31G 8G19
  23850750.763    -7903548.57749  -5995247.57645  23850750.289    23850757.969
  20721819.564   -23824118.29749 -18549619.49548  20721819.063    20721825.364
  22331292.956   -16070252.21749 -12509627.79547  22331292.228    22331298.535
  23141485.679    -6045440.94149  -4703778.00546  23141484.744    23141492.373
  21441761.807   -18847892.92749 -14677449.10847  21441761.697    21441767.321
  23791947.607    -8799394.87749  -6846620.41045  23791947.088    23791955.952
  20833042.320   -25794487.21249 -20082214.32848  20833041.605    20833047.979
  22443921.950   -15810935.21049 -12306779.94947  22443920.787    22443925.761
 04  7 14  2 30  0.0000000  0  8G 3G27G28G10G13G31G 8G19
  23863260.908    -7837807.48249  -5944020.77945  23863260.497    23863268.168
  20721261.639   -23827050.67649 -18551904.46948  20721261.119    20721267.364
  22316591.932   -16147506.24949 -12569825.70147  22316591.255    22316597.514
  23141745.537    -6044075.26349  -4702713.85746  23141744.564    23141752.270
  21456145.086   -18772308.48349 -14618552.16447  21456144.980    21456150.581
  23770343.316    -8912925.49649  -6935085.71345  23770342.874    23770351.761
  20825160.234   -25835907.62849 -20114489.97148  20825159.532    20825165.947
  22442025.980   -15820898.82949 -12314543.79547  22442024.810    22442029.714
 04  7 14  2 30 30.0000000  0  8G 3G27G28G10G13G31G 8G19
  23875857.560    -7771612.12949  -5892439.98945  23875857.078    23875864.554
  20720743.081   -23829775.51849 -18554027.72448  20720742.558    20720748.851
  22301947.018   -16224465.79249 -12629794.12447  22301946.284    22301952.529
  23142114.094    -6042137.99349  -4701204.31646  23142113.139    23142120.958
  21470604.756   -18696322.50049 -14559342.33547  21470604.660    21470610.250
  23748747.871    -9026410.39549  -7023515.38345  23748747.224    23748756.231
  20817321.622   -25877100.13349 -20146588.02548  20817320.899    20817327.270
  22440236.388   -15830303.05549 -12321871.74647  22440235.219    22440240.103
 04  7 14  2 31  0.0000000  0  8G 3G27G28G10G13G31G 8G19
  23888540.055    -7704964.62349  -5840506.87445  23888539.599    23888547.264
  20720264.195   -23832292.27149 -18555988.83348  20720263.700    20720269.971
  22287358.335   -16301129.78449 -12689532.24647  22287357.594    22287363.853
  23142591.416    -6039629.70449  -4699249.83046  23142590.479    23142598.304
  21485140.600   -18619936.57149 -14499820.85947  21485140.487    21485146.051
  23727161.582    -9139846.54649  -7111907.08845  23727161.038    23727169.888
  20809526.475   -25918064.04449 -20178507.95448  20809525.755    20809532.072
  22438553.331   -15839147.26949 -12328763.32547  22438552.174    22438557.037
 04  7 14  2 31 30.0000000  0  8G 3G27G28G10G13G31G 8G19
  23901308.305    -7637866.73849  -5788222.85245  23901307.889    23901315.769
  20719825.001   -23834600.27949 -18557787.27948  20719824.464    20719830.767
  22272825.963   -16377497.03649 -12749039.15047  22272825.354    22272831.569
  23143177.273    -6036551.03349  -4696850.86146  23143176.322    23143184.206
  21499752.223   -18543152.20149 -14439988.90847  21499752.141    21499757.666
  23705585.461    -9253230.84049  -7200258.37545  23705584.666    23705593.428
  20801775.006   -25958798.46149 -20210249.05648  20801774.301    20801780.562
  22436977.059   -15847430.42249 -12335217.71447  22436975.915    22436980.773
 04  7 14  2 32  0.0000000  0  8G 3G27G28G10G13G31G 8G19
  23914161.965    -7570320.92249  -5735589.74845  23914161.560    23914169.186
  20719425.573   -23836698.99949 -18559422.64748  20719425.080    20719431.372
  22258350.430   -16453566.81749 -12808314.25147  22258349.765    22258355.913
  23143871.517    -6032902.75649  -4694008.06746  23143870.582    23143878.447
  21514439.377   -18465970.99349 -14379847.73947  21514439.264    21514444.779
  23684019.448    -9366560.50049  -7288567.09145  23684018.596    23684027.443
  20794067.214   -25999303.17049 -20241811.16548  20794066.517    20794072.753
  22435507.697   -15855151.89049 -12341234.43547  22435506.542    22435511.410
 04  7 14  2 32 30.0000000  0  8G 3G27G28G10G13G31G 8G19
  23927100.405    -7502329.63349  -5682609.54645  23927099.874    23927107.536
  20719066.131   -23838588.28949 -18560894.82448  20719065.609    20719071.879
  22243931.613   -16529338.62749 -12867357.16047  22243930.857    22243936.990
  23144674.035    -6028685.93849  -4690722.25846  23144673.076    23144680.869
  21529201.666   -18388394.65749 -14319398.66847  21529201.554    21529207.078
  23662464.237    -9479832.98249  -7376831.24945  23662463.448    23662472.372
  20786403.146   -26039578.14949 -20273194.26248  20786402.433    20786408.665
  22434145.237   -15862311.74749 -12346813.53647  22434144.055    22434148.941
 04  7 14  2 33  0.0000000  0  8G 3G27G28G10G13G31G 8G19
  23940123.199    -7433894.18649  -5629283.27245  23940122.777    23940130.538
  20718746.705   -23840266.83649 -18562202.78048  20718746.190    20718752.514
  22229569.627   -16604810.88849 -12926166.66547  22229568.920    22229575.044
  23145584.724    -6023900.53649  -4686993.37646  23145583.755    23145591.552
  21544038.995   -18310424.06149 -14258642.39247  21544038.862    21544044.415
  23640920.679    -9593044.50349  -7465047.92145  23640919.922    23640928.765
  20778783.149   -26079621.58049 -20304396.93548  20778782.408    20778788.599
  22432889.911   -15868908.40449 -12351953.77247  22432888.764    22432893.682
 04  7 14  2 33 30.0000000  0  8G 3G27G28G10G13G31G 8G19
  23953230.266    -7365017.25549  -5575612.94945  23953229.804    23953237.376
  20718467.457   -23841734.43849 -18563346.37248  20718466.924    20718473.218
  22215264.699   -16679983.07049 -12984742.33847  22215264.033    22215270.217
  23146603.458    -6018547.48949  -4682822.18546  23146602.471    23146610.242
  21558950.911   -18232060.99749 -14197580.28747  21558950.849    21558956.424
  23619389.235    -9706192.42749  -7553215.03645  23619388.528    23619397.349
  20771207.282   -26119432.98749 -20335418.81248  20771206.533    20771212.691
  22431741.858   -15874941.52449 -12356654.89047  22431740.669    22431745.603
 04  7 14  2 34  0.0000000  0  8G 3G27G28G10G13G31G 8G19
  23966420.681    -7295701.03549  -5521600.32745  23966420.232    23966427.826
  20718228.435   -23842990.45649 -18564325.08848  20718227.879    20718234.172
  22201017.149   -16754854.33049 -13043083.52447  22201016.426    22201022.645
  23147729.974    -6012627.67249  -4678209.34746  23147729.041    23147736.810
  21573937.362   -18153307.04449 -14136213.60147  21573937.284    21573942.844
  23597870.517    -9819273.78149  -7641330.27645  23597869.825    23597878.652
  20763675.578   -26159012.07449 -20366259.65448  20763674.847    20763681.003
  22430701.148   -15880410.60349 -12360916.49047  22430699.949    22430704.885
 04  7 14  2 34 30.0000000  0  8G 3G27G28G10G13G31G 8G19
  23979694.390    -7225947.09249  -5467246.62645  23979693.964    23979701.623
  20718029.827   -23844033.95649 -18565138.20648  20718029.317    20718035.650
  22186827.032   -16829423.17749 -13101189.06147  22186826.390    22186832.549
  23148964.408    -6006141.14549  -4673154.92546  23148963.406    23148971.163
  21588997.909   -18074163.24949 -14074543.14347  21588997.838    21589003.411
  23576365.125    -9932285.02949  -7729390.88845  23576364.422    23576373.256
  20756188.252   -26198358.02549 -20396918.82648  20756187.520    20756193.711
  22429767.946   -15885314.52949 -12364737.71647  22429766.776    22429771.729
 04  7 14  2 35  0.0000000  0  8G 3G27G28G10G13G31G 8G19
  23993050.956    -7155757.70349  -5412553.61545  23993050.546    23993058.124
  20717871.860   -23844864.31349 -18565785.24348  20717871.306    20717877.620
  22172694.701   -16903688.96549 -13159058.45647  22172694.033    22172700.178
  23150306.403    -5999088.99249  -4667659.76046  23150305.407    23150313.223
  21604132.398   -17994631.13849 -14012570.10047  21604132.340    21604137.920
  23554873.801   -10045223.33749  -7817394.66746  23554873.011    23554881.734
  20748745.514   -26237469.92149 -20427395.62248  20748744.763    20748751.006
  22428942.457   -15889652.64149 -12368118.04547  22428941.267    22428946.169
 04  7 14  2 35 30.0000000  0  8G 3G27G28G10G13G31G 8G19
  24006490.009    -7085135.71649  -5357523.53045  24006489.533    24006497.049
  20717754.354   -23845481.62549 -18566266.26548  20717753.837    20717760.184
  22158620.025   -16977651.29949 -13216691.39347  22158619.407    22158625.567
  23151755.781    -5991472.68849  -4661724.99446  23151754.764    23151762.584
  21619340.362   -17914713.03449 -13950296.29047  21619340.272    21619345.860
  23533396.589   -10158086.32149  -7905339.74246  23533395.849    23533404.468
  20741347.310   -26276347.76649 -20457690.04248  20741346.565    20741352.834
  22428224.565   -15893425.26349 -12371057.74347  22428223.354    22428228.226
 04  7 14  2 36  0.0000000  0  8G 3G27G28G10G13G31G 8G19
  24020011.125    -7014082.66249  -5302157.52245  24020010.643    24020018.005
  20717677.747   -23845884.49749 -18566580.19848  20717677.220    20717683.504
  22144603.434   -17051308.67049 -13274086.69747  22144602.820    22144608.995
  23153312.393    -5983292.25049  -4655350.64546  23153311.346    23153319.225
  21634621.620   -17834409.71549 -13887722.31147  21634621.503    21634627.078
  23511934.361   -10270870.18949  -7993223.19846  23511933.767    23511942.323
  20733993.862   -26314990.40849 -20487801.18848  20733993.115    20733999.423
  22427614.497   -15896631.16049 -12373555.83947  22427613.277    22427618.134
 04  7 14  2 36 30.0000000  0  8G 3G27G28G10G13G31G 8G19
  24033613.695    -6942600.86049  -5246457.43945  24033613.135    24033620.579
  20717641.888   -23846072.59949 -18566726.77248  20717641.375    20717647.660
  22130645.078   -17124660.71549 -13331244.08447  22130644.384    22130650.544
  23154976.243    -5974548.60149  -4648537.43246  23154975.194    23154983.089
  21649975.730   -17753722.97349 -13824849.55747  21649975.684    21649981.244
  23490487.856   -10383572.21449  -8081042.85446  23490487.214    23490495.666
  20726685.316   -26353397.01949 -20517728.41348  20726684.585    20726690.892
  22427112.219   -15899270.22349 -12375612.22847  22427111.074    22427115.943
 04  7 14  2 37  0.0000000  0  8G 3G27G28G10G13G31G 8G19
  24047297.493    -6870692.36749  -5190424.87845  24047296.983    24047304.336
  20717647.123   -23846045.42549 -18566705.60248  20717646.592    20717652.830
  22116744.839   -17197706.51749 -13388162.84447  22116744.157    22116750.357
  23156747.030    -5965242.80549  -4641286.17346  23156745.989    23156753.961
  21665402.602   -17672654.55649 -13761679.40447  21665402.564    21665408.127
  23469057.524   -10496189.33849  -8168796.35846  23469056.830    23469065.235
  20719421.730   -26391567.51749 -20547471.65648  20719420.993    20719427.269
  22426717.993   -15901341.67949 -12377226.34147  22426716.847    22426721.764
 04  7 14  2 37 30.0000000  0  8G 3G27G28G10G13G31G 8G19
  24061061.968    -6798359.46949  -5134061.59045  24061061.524    24061068.834
  20717693.431   -23845802.05849 -18566515.96348  20717692.880    20717699.167
  22102903.091   -17270444.96849 -13444842.10647  22102902.469    22102908.609
  23158624.669    -5955375.43149  -4633597.33346  23158623.678    23158631.613
  21680901.832   -17591205.75049 -13698212.84147  21680901.784    21680907.380
  23447643.944   -10608718.48849  -8256481.30246  23447643.135    23447651.488
  20712203.281   -26429500.86449 -20577030.09948  20712202.501    20712208.756
  22426431.782   -15902845.30949 -12378397.98647  22426430.645    22426435.629
 04  7 14  2 38  0.0000000  0  8G 3G27G28G10G13G31G 8G19
  24074906.806    -6725604.46449  -5077369.41745  24074906.270    24074913.801
  20717780.929   -23845341.99849 -18566157.47948  20717780.409    20717786.670
  22089120.130   -17342875.57549 -13501281.48647  22089119.411    22089125.495
  23160608.983    -5944947.76549  -4625471.89046  23160608.025    23160615.954
  21696473.124   -17509378.30549 -13634451.23547  21696473.044    21696478.654
  23426247.644   -10721156.70049  -8344095.40246  23426246.837    23426255.130
  20705030.060   -26467196.30849 -20606403.17048  20705029.267    20705035.538
  22426253.734   -15903780.66749 -12379126.83447  22426252.589    22426257.572
 04  7 14  2 38 30.0000000  0  8G 3G27G28G10G13G31G 8G19
  24088831.461    -6652429.55149  -5020350.05145  24088830.969    24088838.737
  20717909.798   -23844664.91749 -18565629.88848  20717909.250    20717915.525
  22075395.705   -17414997.45149 -13557480.30847  22075395.032    22075401.041
  23162699.844    -5933960.80549  -4616910.64846  23162698.867    23162706.691
  21712116.112   -17427174.00649 -13570395.97647  21712116.015    21712121.623
  23404869.166   -10833500.97349  -8431636.29045  23404868.297    23404876.643
  20697902.131   -26504653.46049 -20635590.56148  20697901.381    20697907.672
  22426183.966   -15904147.02749 -12379412.29147  22426182.827    22426187.822
 04  7 14  2 39  0.0000000  0  8G 3G27G28G10G13G31G 8G19
  24102835.674    -6578837.35449  -4963005.48945  24102835.234    24102842.879
  20718080.027   -23843770.13349 -18564932.65648  20718079.522    20718085.824
  22061730.229   -17486809.83449 -13613437.96847  22061729.592    22061735.571
  23164896.872    -5922415.59149  -4607914.39046  23164895.867    23164903.728
  21727830.460   -17344594.61349 -13506048.43547  21727830.396    21727835.995
  23383509.042   -10945748.32949  -8519101.65845  23383508.214    23383516.503
  20690819.743   -26541871.52049 -20664591.64648  20690819.044    20690825.325
  22426222.544   -15903944.44349 -12379254.42047  22426221.420    22426226.314
 04  7 14  2 39 30.0000000  0  9G 3G27G28G10G29G13G31G 8G19
  24116918.464    -6504832.20949  -4905339.18245  24116917.955    24116925.410
  20718291.481   -23842659.24749 -18564067.03648  20718290.936    20718297.211
  22048123.472   -17558314.21949 -13669155.62547  22048122.743    22048128.733
  23167199.520    -5910315.30349  -4598485.60846  23167198.512    23167206.416
  24758043.352    -4650424.48249  -3605977.18545  24758043.333    24758049.756
  21743615.532   -17261643.70349 -13441411.40247  21743615.468    21743621.081
  23362167.424   -11057897.89049  -8606490.82845  23362166.759    23362175.054
  20683782.577   -26578852.32249 -20693407.85048  20683781.826    20683788.090
  22426369.089   -15903174.91349 -12378654.77247  22426367.869    22426372.729
 04  7 14  2 40  0.0000000  0  9G 3G27G28G10G29G13G31G 8G19
  24131079.853    -6430413.20349  -4847350.37545  24131079.272    24131086.826
  20718544.692   -23841328.48449 -18563030.07648  20718544.150    20718550.446
  22034575.911   -17629506.58649 -13724630.15447  22034575.211    22034581.248
  23169608.155    -5897657.96449  -4588622.77446  23169607.115    23169615.032
  24738793.920    -4751582.13449  -3684801.32345  24738793.759    24738800.178
  21759471.502   -17178320.02949 -13376483.90147  21759471.471    21759477.080
  23340845.718   -11169943.64749  -8693799.11745  23340845.060    23340853.289
  20676791.280   -26615591.79249 -20722036.00448  20676790.526    20676796.801
  22426624.057   -15901834.81149 -12377610.53247  22426622.872    22426627.714
 04  7 14  2 40 30.0000000  0  9G 3G27G28G10G29G13G31G 8G19
  24145319.714    -6355582.53449  -4789040.79345  24145319.193    24145326.787
  20718839.919   -23839777.11549 -18561821.22348  20718839.396    20718845.694
  22021087.920   -17700386.15649 -13779860.94547  22021087.259    22021093.244
  23172122.605    -5884444.33449  -4578326.45646  23172121.604    23172129.544
  24719559.123    -4852662.00349  -3763564.81845  24719558.866    24719565.466
  21775398.174   -17094625.38349 -13311267.33047  21775398.065    21775403.649
  23319544.408   -11281882.19749  -8781023.86345  23319543.656    23319552.032
  20669846.068   -26652089.50349 -20750475.77348  20669845.314    20669851.554
  22426987.645   -15899924.07049 -12376121.63247  22426986.490    22426991.340
 04  7 14  2 41  0.0000000  0  9G 3G27G28G10G29G13G31G 8G19
  24159637.337    -6280342.89949  -4730412.53845  24159636.802    24159644.384
  20719177.110   -23838005.01949 -18560440.36948  20719176.573    20719182.868
  22007659.551   -17770952.77749 -13834847.87247  22007658.835    22007664.869
  23174742.661    -5870675.84449  -4567597.77746  23174741.660    23174749.603
  24700339.374    -4953662.45549  -3842266.44445  24700339.111    24700345.890
  21791394.958   -17010561.69649 -13245763.19547  21791394.881    21791400.491
  23298263.931   -11393711.10749  -8868163.17245  23298263.228    23298271.633
  20662946.967   -26688344.59449 -20778726.48448  20662946.190    20662952.459
  22427459.824   -15897442.76049 -12374188.13047  22427458.683    22427463.530
 04  7 14  2 41 30.0000000  0  9G 3G27G28G10G29G13G31G 8G19
  24174032.325    -6204696.80249  -4671467.53045  24174031.666    24174039.226
  20719556.443   -23836011.65149 -18558887.09948  20719555.920    20719562.242
  21994290.724   -17841205.78049 -13889590.43447  21994290.080    21994296.071
  23177468.087    -5856353.86449  -4556437.81546  23177467.073    23177474.965
  24681135.099    -5054581.56249  -3920904.67145  24681134.636    24681141.752
  21807461.657   -16926130.71049 -13179972.85747  21807461.569    21807467.202
  23277004.950   -11505427.36149  -8955214.72245  23277004.296    23277012.659
  20656093.945   -26724357.01349 -20806788.10648  20656093.204    20656099.536
  22428040.638   -15894390.58549 -12371809.80447  22428039.501    22428044.292
 04  7 14  2 42  0.0000000  0  9G 3G27G28G10G29G13G31G 8G19
  24188504.047    -6128646.75749  -4612207.77545  24188503.478    24188511.080
  20719978.021   -23833796.41549 -18557160.94448  20719977.468    20719983.802
  21980981.862   -17911144.49849 -13944088.09247  21980981.173    21980987.073
  23180298.635    -5841479.50549  -4544847.41646  23180297.574    23180305.435
  24661946.706    -5155417.30949  -3999477.93145  24661946.231    24661953.304
  21823597.953   -16841334.23349 -13113897.71947  21823597.797    21823603.430
  23255767.836   -11617028.00149  -9042176.17345  23255767.298    23255775.695
  20649287.272   -26760126.13349 -20834660.14448  20649286.556    20649292.873
  22428730.085   -15890767.55149 -12368986.65147  22428728.934    22428733.745
 04  7 14  2 42 30.0000000  0  9G 3G27G28G10G29G13G31G 8G19
  24203052.232    -6052194.99949  -4552635.02045  24203051.716    24203059.712
  20720441.902   -23831358.51649 -18555261.28948  20720441.387    20720447.670
  21967732.935   -17980768.16149 -13998340.26147  21967732.176    21967738.085
  23183233.972    -5826053.83549  -4532827.42946  23183232.942    23183240.827
  24642774.585    -5256167.35149  -4077984.44345  24642773.993    24642781.268
  21839803.440   -16756173.71649 -13047538.91447  21839803.339    21839808.973
  23234553.614   -11728509.79149  -9129045.01245  23234552.874    23234561.356
  20642527.196   -26795650.81849 -20862341.71448  20642526.456    20642532.715
  22429528.249   -15886573.35649 -12365718.43447  22429527.082    22429531.901
 04  7 14  2 43  0.0000000  0  9G 3G27G28G10G29G13G31G 8G19
  24217676.550    -5975344.21549  -4492751.30045  24217675.902    24217683.819
  20720948.275   -23828697.83249 -18553188.03248  20720947.736    20720954.043
  21954543.900   -18050076.56349 -14052346.77247  21954543.196    21954549.096
  23186273.963    -5810078.54249  -4520379.15546  23186272.947    23186280.928
  24623619.081    -5356830.04849  -4156422.92244  24623618.503    24623625.601
  21856077.786   -16670651.63949 -12980898.37747  21856077.662    21856083.299
  23213362.467   -11839870.18349  -9215819.24745  23213361.634    23213370.075
  20635813.600   -26830931.12549 -20889832.85748  20635812.844    20635819.048
  22430435.002   -15881808.30749 -12362005.39847  22430433.824    22430438.705
 04  7 14  2 43 30.0000000  0  9G 3G27G28G10G29G13G31G 8G19
  24232376.154    -5898096.37149  -4432558.19545  24232375.616    24232383.566
  20721497.165   -23825813.27249 -18550940.32448  20721496.616    20721502.947
  21941415.288   -18119068.11049 -14106106.37947  21941414.525    21941420.400
  23189418.439    -5793554.27749  -4507503.11346  23189417.390    23189425.381
  24604480.564    -5457402.56349  -4234791.10044  24604480.123    24604487.158
  21872420.740   -16584769.02449 -12913976.89547  21872420.638    21872426.281
  23192194.957   -11951105.56749  -9302496.08946  23192194.168    23192202.633
  20629146.743   -26865965.74049 -20917132.54948  20629145.999    20629152.168
  22431450.472   -15876471.59149 -12357846.91047  22431449.301    22431454.252
 04  7 14  2 44  0.0000000  0  9G 3G27G28G10G29G13G31G 8G19
  24247151.091    -5820453.65649  -4372057.40745  24247150.527    24247158.582
  20722088.818   -23822704.26949 -18548517.73448  20722088.277    20722094.570
  21928346.953   -18187742.34649 -14159618.74247  21928346.192    21928352.093
  23192667.095    -5776482.45349  -4494200.40646  23192666.091    23192674.031
  24585359.534    -5557883.20749  -4313087.69845  24585359.011    24585366.136
  21888831.930   -16498527.86749 -12846776.03447  21888831.827    21888837.492
  23171051.715   -12062213.00249  -9389073.23346  23171051.095    23171059.411
  20622526.738   -26900754.17149 -20944240.41448  20622525.962    20622532.169
  22432574.712   -15870563.35849 -12353243.08347  22432573.612    22432578.539
 04  7 14  2 44 30.0000000  0  9G 3G27G28G10G29G13G31G 8G19
  24262000.863    -5742418.68349  -4311250.93745  24262000.257    24262008.132
  20722723.241   -23819370.13049 -18545919.70948  20722722.688    20722729.048
  21915339.101   -18256098.63649 -14212883.35247  21915338.367    21915344.250
  23196019.724    -5758864.22449  -4480471.93346  23196018.780    23196026.704
  24566256.381    -5658269.40849  -4391310.68045  24566256.024    24566263.331
  21905310.962   -16411929.82649 -12779297.08547  21905310.879    21905316.610
  23149933.615   -12173189.27549  -9475548.18046  23149933.005    23149941.291
  20615953.696   -26935295.91849 -20971156.05748  20615952.873    20615959.118
  22433807.824   -15864083.31649 -12348193.69447  22433806.699    22433811.671
 04  7 14  2 45  0.0000000  0  9G 3G27G28G10G29G13G31G 8G19
  24276924.434    -5663994.31849  -4250141.07545  24276923.806    24276931.704
  20723400.608   -23815810.81649 -18543146.22348  20723400.069    20723406.380
  21902391.839   -18324136.90849 -14265900.15047  21902391.070    21902396.981
  23199476.112    -5740701.26749  -4466318.99346  23199475.068    23199483.016
  24547171.507    -5758559.75349  -4469458.96245  24547171.437    24547178.827
  21921857.467   -16324977.33049 -12711541.92947  21921857.394    21921863.174
  23128841.069   -12284031.84449  -9561918.93546  23128840.437    23128848.565
  20609427.678   -26969590.24149 -20997878.89948  20609426.891    20609433.160
  22435149.647   -15857031.95549 -12342699.11447  22435148.510    22435153.447
 04  7 14  2 45 30.0000000  0  9G 3G27G28G10G29G13G31G 8G19
  24291921.773    -5585182.73549  -4188729.46645  24291921.253    24291929.161
  20724120.948   -23812025.37349 -18540196.53648  20724120.390    20724126.691
  21889505.210   -18391856.19749 -14318668.39447  21889504.461    21889510.445
  23203035.882    -5721994.79449  -4451742.52946  23203034.833    23203042.812
  24528105.613    -5858751.73949  -4547530.60645  24528105.576    24528112.888
  21938471.214   -16237671.82249 -12643511.70747  21938471.102    21938476.919
  23107774.593   -12394737.47649  -9648182.99046  23107773.822    23107781.857
  20602948.814   -27003636.67349 -21024408.58648  20602948.046    20602954.285
  22436600.200   -15849409.11849 -12336759.24347  22436599.076    22436604.020
 04  7 14  2 46  0.0000000  0  9G 3G27G28G10G29G13G31G 8G19
  24306992.520    -5505986.62849  -4127018.21845  24306991.870    24306999.787
  20724884.405   -23808013.40149 -18537070.33348  20724883.881    20724890.168
  21876679.325   -18459256.14349 -14371187.79447  21876678.640    21876684.595
  23206698.865    -5702746.26349  -4436743.70046  23206697.757    23206705.626
  24509058.894    -5958843.47349  -4625524.13645  24509058.851    24509066.122
  21955151.745   -16150015.42349 -12575208.06247  21955151.615    21955157.436
  23086734.598   -12505303.38849  -9734338.16946  23086733.787    23086741.736
  20596517.294   -27037434.48749 -21050744.54048  20596516.518    20596522.731
  22438159.467   -15841215.25749 -12330374.40747  22438158.296    22438163.207
 04  7 14  2 46 30.0000000  0  9G 3G27G28G10G29G13G31G 8G19
  24322135.665    -5426407.94449  -4065008.87645  24322134.977    24322143.003
  20725691.128   -23803773.88649 -18533766.82548  20725690.603    20725696.938
  21863914.515   -18526335.55949 -14423457.44447  21863913.827    21863919.752
  23210464.671    -5682956.72149  -4421323.30746  23210463.610    23210471.430
  24490031.646    -6058832.41749  -4703437.57445  24490031.644    24490038.896
  21971898.765   -16062009.57549 -12506632.12347  21971898.641    21971904.405
  23065721.753   -12615725.86449  -9820381.58846  23065721.044    23065728.954
  20590133.277   -27070982.78349 -21076886.06348  20590132.508    20590138.654
  22439827.599   -15832449.32049 -12323543.80047  22439826.411    22439831.342
 04  7 14  2 47  0.0000000  0  9G 3G27G28G10G29G13G31G 8G19
  24337351.329    -5346448.79849  -4002703.05845  24337350.872    24337358.856
  20726541.392   -23799305.84249 -18530285.24048  20726540.864    20726547.194
  21851210.916   -18593093.65049 -14475476.70447  21851210.212    21851216.142
  23214333.359    -5662627.19449  -4405482.13546  23214332.263    23214339.999
  24471024.527    -6158715.92949  -4781268.87245  24471024.402    24471031.611
  21988711.983   -15973655.90449 -12437785.14747  21988711.832    21988717.620
  23044736.745   -12726001.68149  -9906310.72446  23044736.162    23044744.057
  20583796.996   -27104280.32849 -21102832.19848  20583796.214    20583802.350
  22441604.488   -15823111.55249 -12316267.61347  22441603.331    22441608.265
 04  7 14  2 47 30.0000000  0  9G 3G27G28G10G29G13G31G 8G19
  24352639.180    -5266111.96949  -3940102.94645  24352638.629    24352646.414
  20727435.203   -23794608.96549 -18526625.34248  20727434.656    20727440.999
  21838568.380   -18659530.19749 -14527245.41647  21838567.684    21838573.581
  23218304.405    -5641759.26649  -4389221.44846  23218303.313    23218310.972
  24452037.790    -6258492.13249  -4859016.54245  24452037.646    24452044.799
  22005590.909   -15884956.50049 -12368668.77047  22005590.806    22005596.606
  23023780.358   -12836127.97049  -9992123.34146  23023779.739    23023787.647
  20577508.469   -27137326.73149 -21128582.63348  20577507.688    20577513.832
  22443490.090   -15813202.47349 -12308546.24547  22443488.956    22443493.888
 04  7 14  2 48  0.0000000  0  9G 3G27G28G10G29G13G31G 8G19
  24367998.185    -5185399.45849  -3877210.09645  24367997.646    24368005.570
  20728372.774   -23789682.10449 -18522786.23648  20728372.246    20728378.542
  21825987.215   -18725644.31049 -14578762.88047  21825986.584    21825992.452
  23222377.724    -5620353.96049  -4372542.00346  23222376.633    23222384.239
  24433071.897    -6358158.50749  -4936678.61545  24433071.736    24433078.864
  22022535.482   -15795912.66149 -12299284.00747  22022535.336    22022541.111
  23002853.132   -12946101.27949 -10077816.75046  23002852.407    23002860.373
  20571267.889   -27170121.13249 -21154136.70948  20571267.118    20571273.270
  22445484.495   -15802721.72449 -12300379.42247  22445483.335    22445488.304
 04  7 14  2 48 30.0000000  0  9G 3G27G28G10G29G13G31G 8G19
  24383428.129    -5104314.45249  -3814027.01745  24383427.655    24383435.637
  20729354.013   -23784525.61949 -18518768.19848  20729353.487    20729359.780
  21813467.469   -18791436.13749 -14630029.21447  21813466.752    21813472.672
  23226552.867    -5598413.47649  -4355445.54546  23226551.813    23226559.487
  24414127.145    -6457713.65149  -5014254.00345  24414126.952    24414134.008
  22039545.098   -15706526.97649 -12229632.86247  22039544.901    22039550.640
  22981955.437   -13055919.36549 -10163389.19546  22981954.684    22981962.646
  20565075.265   -27202663.27649 -21179494.22048  20565074.525    20565080.684
  22447587.540   -15791670.30449 -12291767.92147  22447586.379    22447591.332
 04  7 14  2 49  0.0000000  0  9G 3G27G28G10G29G13G31G 8G19
  24398928.881    -5022858.98249  -3750555.22945  24398928.224    24398936.109
  20730379.240   -23779138.10849 -18514570.14148  20730378.687    20730384.965
  21801009.171   -18856904.46349 -14681043.47047  21801008.496    21801014.463
  23230829.694    -5575938.83549  -4337932.87446  23230828.602    23230836.280
  24395204.144    -6557154.48149  -5091740.29845  24395204.022    24395211.031
  22056619.312   -15616800.84949 -12159716.44247  22056619.200    22056624.964
  22961087.965   -13165578.36649 -10248837.68946  22961087.280    22961095.152
  20558930.949   -27234951.72049 -21204654.03848  20558930.209    20558936.350
  22449799.276   -15780047.56449 -12282711.23847  22449798.118    22449803.015
 04  7 14  2 49 30.0000000  0  9G 3G27G28G10G29G13G31G 8G19
  24414499.138    -4941035.25549  -3686796.52345  24414498.495    24414506.663
  20731448.558   -23773518.79049 -18510191.45548  20731448.017    20731454.294
  21788612.740   -18922048.63749 -14731805.12847  21788611.998    21788617.927
  23235207.848    -5552931.40449  -4320005.03946  23235206.761    23235214.425
  24376303.130    -6656479.13749  -5169136.05945  24376302.907    24376310.033
  22073758.130   -15526736.11349 -12089536.17247  22073757.975    22073763.792
  22940251.373   -13275075.23049 -10334159.83746  22940250.695    22940258.563
  20552835.025   -27266986.26449 -21229616.01248  20552834.269    20552840.365
  22452119.718   -15767853.59849 -12273209.43947  22452118.492    22452123.471
 04  7 14  2 50  0.0000000  0  9G 3G27G28G10G29G13G31G 8G19
  24430139.426    -4858845.39849  -3622752.50045  24430138.787    24430146.832
  20732562.242   -23767666.47849 -18505631.21148  20732561.686    20732567.972
  21776278.039   -18986867.56849 -14782313.35847  21776277.307    21776283.251
  23239687.210    -5529392.04049  -4301662.70846  23239686.111    23239693.882
  24357424.925    -6755684.58449  -5246438.93745  24357424.586    24357431.923
  22090961.009   -15436334.04149 -12019093.03747  22090960.936    22090966.778
  22919446.353   -13384406.25649 -10419352.75046  22919445.648    22919453.523
  20546787.683   -27298765.44149 -21254379.00348  20546786.896    20546793.008
  22454548.868   -15755088.07649 -12263262.27347  22454547.660    22454552.691
 04  7 14  2 50 30.0000000  0  9G 3G27G28G10G29G13G31G 8G19
  24445848.648    -4776292.44149  -3558425.54545  24445848.161    24445856.142
  20733720.218   -23761581.27849 -18500889.49948  20733719.654    20733725.946
  21764005.259   -19051361.18549 -14832568.09647  21764004.573    21764010.482
  23244267.364    -5505323.28049  -4282907.86146  23244266.299    23244274.079
  24338569.779    -6854769.36749  -5323647.81045  24338569.380    24338576.624
  22108227.717   -15345597.40249 -11948389.21247  22108227.572    22108233.430
  22898673.224   -13493569.02649 -10504414.56246  22898672.579    22898680.535
  20540788.865   -27330288.96849 -21278942.78448  20540788.108    20540794.291
  22457086.701   -15741751.95049 -12252870.47847  22457085.483    22457090.438
 04  7 14  2 51  0.0000000  0  9G 3G27G28G10G29G13G31G 8G19
  24461626.631    -4693379.04149  -3493817.71945  24461625.988    24461634.117
  20734922.568   -23755262.85149 -18495966.04448  20734922.022    20734928.309
  21751794.529   -19115529.25649 -14882569.14847  21751793.797    21751799.706
  23248947.920    -5480726.73349  -4263741.75546  23248946.869    23248954.618
  24319737.923    -6953731.27849  -5400760.93945  24319737.456    24319744.763
  22125557.666   -15254527.97049 -11877426.05647  22125557.535    22125563.407
  22877932.775   -13602560.61149 -10589342.97946  22877932.087    22877940.000
  20534838.806   -27361556.64749 -21303307.20248  20534838.087    20534844.282
  22459733.000   -15727845.60949 -12242034.36847  22459731.761    22459736.758
 04  7 14  2 51 30.0000000  0  9G 3G27G28G10G29G13G31G 8G19
  24477472.735    -4610107.17349  -3428930.57345  24477472.258    24477480.306
  20736169.537   -23748709.92549 -18490859.86648  20736169.009    20736175.289
  21739645.780   -19179370.97649 -14932315.90847  21739645.087    21739650.933
  23253728.799    -5455603.47949  -4244165.21946  23253727.749    23253735.415
  24300929.936    -7052567.76549  -5477776.35745  24300929.516    24300936.721
  22142950.645   -15163127.52049 -11806204.97747  22142950.494    22142956.388
  22857225.535   -13711377.56849 -10674135.31946  22857224.783    22857232.789
  20528937.753   -27392567.17649 -21327471.24648  20528937.003    20528943.143
  22462487.825   -15713368.98849 -12230753.87847  22462486.544    22462491.562
 04  7 14  2 52  0.0000000  0  9G 3G27G28G10G29G13G31G 8G19
  24493386.677    -4526479.75249  -3363766.37745  24493386.052    24493394.084
  20737461.299   -23741921.79349 -18485570.41148  20737460.745    20737467.035
  21727559.315   -19242885.77549 -14981807.91947  21727558.614    21727564.446
  23258609.531    -5429954.95049  -4224179.37746  23258608.491    23258616.234
  24282146.253    -7151276.62149  -5554692.33245  24282145.891    24282152.985
  22160406.269   -15071397.95449 -11734727.43447  22160406.100    22160411.971
  22836552.092   -13820016.71749 -10758789.12146  22836551.394    22836559.331
  20523085.847   -27423319.31049 -21351433.94248  20523085.054    20523091.204
  22465351.068   -15698322.30549 -12219029.18747  22465349.802    22465354.912
 04  7 14  2 52 30.0000000  0  9G 3G27G28G10G29G13G31G 8G19
  24509367.797    -4442498.98649  -3298326.84845  24509367.049    24509375.102
  20738797.862   -23734897.96549 -18480097.29748  20738797.319    20738803.628
  21715535.129   -19306073.09349 -15031044.75547  21715534.438    21715540.283
  23263589.904    -5403782.78949  -4203785.51546  23263588.852    23263596.669
  24263387.300    -7249855.58449  -5631507.07545  24263386.977    24263393.961
  22177924.179   -14979341.21349 -11662994.95747  22177923.992    22177929.813
  22815913.146   -13928474.82849 -10843301.86046  22815912.423    22815920.316
  20517283.011   -27453812.99649 -21375195.25248  20517282.261    20517288.459
  22468322.749   -15682705.86049 -12206860.52647  22468321.515    22468326.546
 04  7 14  2 53  0.0000000  0  9G 3G27G28G10G29G13G31G 8G19
  24525415.349    -4358167.53049  -3232614.05745  24525414.739    24525422.917
  20740179.387   -23727637.94949 -18474440.14448  20740178.823    20740185.160
  21703573.311   -19368932.69849 -15080026.22547  21703572.620    21703578.449
  23268669.605    -5377089.00349  -4182985.19646  23268668.555    23268676.330
  24244653.599    -7348302.49749  -5708218.91045  24244653.196    24244660.135
  22195503.883   -14886959.58849 -11591009.32547  22195503.682    22195509.485
  22795309.150   -14036749.22249 -10927671.42946  22795308.337    22795316.250
  20511529.588   -27484047.48349 -21398754.59048  20511528.824    20511535.053
  22471402.825   -15666520.25949 -12194248.36347  22471401.592    22471406.549
 04  7 14  2 53 30.0000000  0  9G 3G27G28G10G29G13G31G 8G19
  24541529.452    -4273487.90449  -3166629.96145  24541528.833    24541536.950
  20741606.031   -23720140.84049 -18468598.24348  20741605.485    20741611.812
  21691673.993   -19431463.75449 -15128751.68147  21691673.317    21691679.133
  23273848.413    -5349874.92249  -4161779.43946  23273847.311    23273854.970
  24225945.460    -7446614.76249  -5784825.83945  24225944.997    24225951.821
  22213144.995   -14794254.62749 -11518771.73747  22213144.880    22213150.683
  22774740.667   -14144836.36049 -11011895.09346  22774739.916    22774747.888
  20505825.749   -27514021.56849 -21422111.02148  20505824.973    20505831.167
  22474591.171   -15649765.81249 -12181192.94447  22474589.875    22474594.786
 04  7 14  2 54  0.0000000  0  9G 3G27G28G10G29G13G31G 8G19
  24557709.224    -4188462.27849  -3100376.25245  24557708.623    24557716.856
  20743078.049   -23712405.46549 -18462570.67948  20743077.506    20743083.789
  21679837.404   -19493665.50849 -15177220.53747  21679836.711    21679842.504
  23279125.768    -5322142.11749  -4140169.49146  23279124.658    23279132.322
  24207263.202    -7544789.92649  -5861325.90845  24207262.711    24207269.750
  22230847.503   -14701227.58049 -11446283.17246  22230847.355    22230853.163
  22754208.583   -14252732.84249 -11095970.19846  22754207.870    22754215.814
  20500171.629   -27543734.07949 -21445263.62748  20500170.837    20500177.022
  22477887.724   -15632442.12749 -12167693.96447  22477886.483    22477891.452
 04  7 14  2 54 30.0000000  0  9G 3G27G28G10G29G13G31G 8G19
  24573954.374    -4103093.18249  -3033854.88645  24573953.666    24573961.935
  20744595.517   -23704431.23049 -18456356.98948  20744594.956    20744601.232
  21668063.550   -19555537.53349 -15225432.46547  21668062.822    21668068.654
  23284501.493    -5293892.27649  -4118156.64946  23284500.405    23284508.056
  24188607.423    -7642825.79949  -5937717.43545  24188607.076    24188614.160
  22248610.798   -14607881.00349 -11373545.62446  22248610.657    22248616.459
  22733713.495   -14360435.60649 -11179894.34646  22733712.668    22733720.563
  20494567.216   -27573185.14949 -21468212.51048  20494566.447    20494572.655
  22481292.513   -15614549.89849 -12153751.96147  22481291.246    22481296.193
 04  7 14  2 55  0.0000000  0  9G 3G27G28G10G29G13G31G 8G19
  24590264.278    -4017383.13849  -2967067.88245  24590263.684    24590271.890
  20746158.453   -23696217.86949 -18449956.97148  20746157.924    20746164.155
  21656352.482   -19617079.55149 -15273387.24847  21656351.790    21656357.550
  23289975.372    -5265127.19449  -4095742.32846  23289974.276    23289981.894
  24169978.573    -7740720.13349  -6013998.66945  24169978.203    24169985.567
  22266434.439   -14514217.08049 -11300560.78946  22266434.288    22266440.108
  22713255.675   -14467941.70849 -11263665.26246  22713254.851    22713262.700
  20489012.873   -27602373.51249 -21490956.68348  20489012.122    20489018.315
  22484805.266   -15596089.97149 -12139367.59847  22484804.024    22484809.014
 04  7 14  2 55 30.0000000  0  9G 3G27G28G10G29G13G31G 8G19
  24606639.029    -3931334.45749  -2900016.97545  24606638.428    24606646.557
  20747767.112   -23687764.19749 -18443369.69648  20747766.580    20747772.839
  21644704.416   -19678290.78549 -15321084.27147  21644703.674    21644709.380
  23295546.966    -5235848.34949  -4072927.66946  23295545.869    23295553.510
  24151377.230    -7838470.47949  -6090167.74145  24151376.880    24151384.208
  22284318.233   -14420237.25349 -11227329.80046  22284318.107    22284323.922
  22692835.855   -14575247.69949 -11347280.25146  22692835.117    22692842.925
  20483508.823   -27631297.80449 -21513495.09048  20483508.042    20483514.222
  22488426.089   -15577062.22849 -12124540.77947  22488424.877    22488429.832
 04  7 14  2 56  0.0000000  0  8G27G28G10G29G13G31G 8G19
  20749421.563   -23679069.97549 -18436594.98348  20749421.025    20749427.269
  21633119.120   -19739171.29049 -15368523.59347  21633118.424    21633124.166
  23301215.904    -5206057.66249  -4049714.16846  23301214.845    23301222.534
  24132803.772    -7936074.86649  -6166223.08245  24132803.468    24132810.592
  22302261.647   -14325944.03049 -11153854.61246  22302261.535    22302267.387
  22672454.765   -14682350.95349 -11430737.25646  22672454.017    22672461.713
  20478054.895   -27659958.38649 -21535828.00948  20478054.078    20478060.262
  22492154.943   -15557467.61949 -12109272.24447  22492153.646    22492158.564
 04  7 14  2 56 30.0000000  0  8G27G28G10G29G13G31G 8G19
  20751121.908   -23670134.60349 -18429632.35848  20751121.348    20751127.605
  21621597.025   -19799720.57849 -15415704.80747  21621596.300    21621601.987
  23306982.119    -5175756.98649  -4026103.26946  23306980.933    23306988.635
  24114258.479    -8033530.67949  -6242162.65445  24114258.246    24114265.325
  22320264.406   -14231339.31249 -11080136.69546  22320264.243    22320270.116
  22652112.930   -14789248.10049 -11514033.67046  22652112.129    22652119.728
  20472651.323   -27688353.84049 -21557954.33248  20472650.559    20472656.738
  22495991.377   -15537306.61249 -12093562.36847  22495990.160    22495995.026
 04  7 14  2 57  0.0000000  0  8G27G28G10G29G13G31G 8G19
  20752868.338   -23660957.10449 -18422481.06648  20752867.789    20752874.060
  21610137.973   -19859937.89049 -15462627.35747  21610137.243    21610142.951
  23312844.810    -5144947.87249  -4002096.18546  23312843.744    23312851.381
  24095742.028    -8130835.68949  -6317984.74045  24095741.715    24095748.638
  22338326.122   -14136424.85049 -11006177.42746  22338325.918    22338331.812
  22631810.905   -14895935.95849 -11597166.99946  22631810.104    22631817.614
  20467298.524   -27716483.35249 -21579873.43248  20467297.754    20467303.883
  22499935.552   -15516579.66749 -12077411.49647  22499934.330    22499939.173
 04  7 14  2 57 30.0000000  0  8G27G28G10G29G13G31G 8G19
  20754660.964   -23651536.99449 -18415140.72848  20754660.398    20754666.658
  21598742.155   -19919823.12649 -15509291.14147  21598741.472    21598747.113
  23318804.003    -5113632.41949  -3977694.56146  23318802.959    23318810.545
  24077254.760    -8227987.64049  -6393687.54745  24077254.414    24077261.117
  22356446.311   -14041203.00649 -10931978.63646  22356446.114    22356451.985
  22611549.255   -15002411.42649 -11680134.83846  22611548.491    22611555.973
  20461996.336   -27744346.74349 -21601585.16648  20461995.545    20462001.658
  22503987.378   -15495287.23649 -12060819.99547  22503986.184    22503990.974
 04  7 14  2 58  0.0000000  0  8G27G28G10G29G13G31G 8G19
  20756499.825   -23641873.75149 -18407610.93748  20756499.264    20756505.512
  21587409.652   -19979376.04449 -15555695.97747  21587408.908    21587414.576
  23324859.128    -5081812.71849  -3952900.00846  23324858.017    23324865.617
  24058796.901    -8324984.40549  -6469269.43545  24058796.522    24058803.140
  22374624.546   -13945675.98949 -10857542.04946  22374624.360    22374630.216
  22591328.557   -15108671.77649 -11762935.04946  22591327.799    22591335.275
  20456744.873   -27771943.07349 -21623088.79748  20456744.091    20456750.229
  22508146.735   -15473430.23249 -12043788.55747  22508145.445    22508150.167
 04  7 14  2 58 30.0000000  0  8G27G28G10G29G13G31G 8G19
  20758385.174   -23631966.25449 -18399890.81848  20758384.599    20758390.823
  21576140.471   -20038595.69049 -15601841.11847  21576139.749    21576145.384
  23331009.837    -5049490.20449  -3927713.65646  23331008.738    23331016.418
  24040369.025    -8421823.25349  -6544728.26845  24040368.669    24040375.145
  22392860.525   -13849845.30649 -10782868.84346  22392860.435    22392866.257
  22571149.563   -15214713.17049 -11845564.63946  22571148.779    22571156.179
  20451544.502   -27799271.07649 -21644383.34548  20451543.761    20451549.880
  22512413.315   -15451008.85149 -12026317.34547  22512412.082    22512416.905
 04  7 14  2 59  0.0000000  0  8G27G28G10G29G13G31G 8G19
  20760317.167   -23621813.49749 -18391979.58848  20760316.602    20760322.834
  21564934.853   -20097481.55349 -15647726.16647  21564934.107    21564939.684
  23337256.049    -5016666.40149  -3902136.71146  23337254.954    23337262.631
  24021971.758    -8518501.61549  -6620062.02045  24021971.355    24021977.863
  22411154.125   -13753712.58349 -10707960.28646  22411153.931    22411159.751
  22551012.814   -15320532.35849 -11928021.08146  22551012.019    22551019.423
  20446395.440   -27826329.92349 -21665468.16248  20446394.675    20446400.777
  22516787.172   -15428023.44549 -12008406.64647  22516785.994    22516790.864
 04  7 14  2 59 30.0000000  0  8G27G28G10G29G13G31G 8G19
  20762295.916   -23611415.24949 -18383877.06348  20762295.322    20762301.579
  21553792.698   -20156033.58549 -15693351.09547  21553791.950    21553797.578
  23343597.229    -4983343.50149  -3876170.82546  23343596.085    23343603.731
  24003605.424    -8615017.38749  -6695269.08945  24003604.970    24003611.406
  22429504.480   -13657280.37949 -10632818.35046  22429504.347    22429510.220
  22530918.761   -15426126.52849 -12010302.19246  22530918.070    22530925.500
  20441297.615   -27853119.19849 -21686342.92248  20441296.845    20441302.987
  22521268.324   -15404475.03349 -11990057.22547  22521267.091    22521271.991
 04  7 14  3  0  0.0000000  0  8G27G28G10G29G13G31G 8G19
  20764321.564   -23600770.59349 -18375582.54148  20764320.980    20764327.201
  21542714.183   -20214251.13049 -15738715.38947  21542713.490    21542719.122
  23350033.080    -4949522.97249  -3849817.19646  23350031.979    23350039.460
  23985270.492    -8711367.91449  -6770347.38545  23985270.033    23985276.464
  22447911.613   -13560550.42049 -10557444.42046  22447911.514    22447917.350
  22510868.275   -15531492.28249 -12092405.31646  22510867.541    22510875.004
  20436251.304   -27879637.50849 -21707006.54148  20436250.548    20436256.678
  22525856.380   -15380363.90949 -11971269.34147  22525855.265    22525860.184
 04  7 14  3  0 30.0000000  0  8G27G28G10G29G13G31G 8G19
  20766394.151   -23589879.13749 -18367095.70048  20766393.555    20766399.784
  21531699.440   -20272134.18549 -15783819.03247  21531698.685    21531704.291
  23356563.111    -4915207.48849  -3823077.89346  23356562.018    23356569.513
  23966967.251    -8807551.48949  -6845295.56445  23966966.844    23966973.358
  22466374.933   -13463525.32349 -10481840.50046  22466374.782    22466380.667
  22490861.828   -15636626.94549 -12174328.35946  22490861.001    22490868.465
  20431256.638   -27905884.78749 -21727458.96648  20431255.876    20431261.990
  22530551.628   -15355691.26749 -11952043.89547  22530550.345    22530555.245
 04  7 14  3  1  0.0000000  0  8G27G28G10G29G13G31G 8G19
  20768513.922   -23578739.67449 -18358415.61648  20768513.327    20768519.540
  21520748.372   -20329681.94949 -15828661.41347  21520747.656    21520753.268
  23363187.057    -4880398.42549  -3795953.98946  23363185.983    23363193.495
  23948696.376    -8903564.87949  -6920111.13645  23948696.013    23948702.614
  22484893.975   -13366206.72849 -10406007.87646  22484893.902    22484899.829
  22470899.869   -15741526.84849 -12256068.49046  22470899.130    22470906.611
  20426313.857   -27931859.27049 -21747698.82848  20426313.078    20426319.224
  22535353.446   -15330457.26949 -11932381.04247  22535352.210    22535357.045
 04  7 14  3  1 30.0000000  0  8G27G28G10G29G13G31G 8G19
  20770680.921   -23567351.96249 -18349542.08348  20770680.347    20770686.547
  21509861.136   -20386894.67349 -15873242.72847  21509860.423    21509866.060
  23369904.448    -4845098.17449  -3768447.34646  23369903.363    23369910.887
  23930458.412    -8999406.36549  -6994792.76445  23930458.008    23930464.647
  22503468.589   -13268596.97749 -10329948.39046  22503468.413    22503474.430
  22450983.219   -15846189.09649 -12337623.42646  22450982.489    22450989.989
  20421422.860   -27957561.39549 -21767726.45848  20421422.094    20421428.258
  22540261.962   -15304663.04949 -11912281.64947  22540260.692    22540265.528
 04  7 14  3  2  0.0000000  0  8G27G28G10G29G13G31G 8G19
  20772895.369   -23555715.39249 -18340474.63448  20772894.764    20772900.930
  21499037.793   -20443771.72849 -15917562.49047  21499037.046    21499042.679
  23376714.972    -4809308.81349  -3740559.57246  23376713.898    23376721.413
  23912253.523    -9095073.46649  -7069338.49345  23912253.192    23912259.875
  22522098.162   -13170698.26249 -10253663.73546  22522097.996    22522103.996
  22431112.447   -15950610.62449 -12418990.78546  22431111.704    22431119.235
  20416584.064   -27982989.55149 -21787540.60348  20416583.323    20416589.458
  22545276.798   -15278309.43349 -11891746.36747  22545275.581    22545280.433
 04  7 14  3  2 30.0000000  0  8G27G28G10G29G13G31G 8G19
  20775157.329   -23543828.65549 -18331212.24748  20775156.708    20775162.885
  21488278.385   -20500312.36349 -15961620.10647  21488277.685    21488283.343
  23383618.385    -4773031.66649  -3712291.71646  23383617.289    23383624.852
  23894082.384    -9190563.50249  -7143746.26245  23894081.962    23894088.797
  22540782.365   -13072512.10949 -10177155.09546  22540782.262    22540788.219
  22411288.036   -16054787.95249 -12500167.86646  22411287.329    22411294.868
  20411797.576   -28008142.69249 -21807140.45248  20411796.817    20411802.966
  22550398.133   -15251396.88349 -11870775.54647  22550396.905    22550401.733
 04  7 14  3  3  0.0000000  0  8G27G28G10G29G13G31G 8G19
  20777466.888   -23531691.77249 -18321754.94648  20777466.289    20777472.468
  21477582.980   -20556517.03849 -16005415.93547  21477582.279    21477587.957
  23390614.044    -4736269.40649  -3683645.84246  23390612.986    23390620.587
  23875945.243    -9285874.51649  -7218014.53745  23875944.847    23875951.730
  22559520.764   -12974041.16149 -10100424.53646  22559520.688    22559526.642
  22391510.755   -16158718.40649 -12581152.57946  22391510.000    22391517.455
  20407063.459   -28033020.64149 -21826525.86848  20407062.714    20407068.866
  22555625.554   -15223926.35749 -11849369.94547  22555624.326    22555629.174
 04  7 14  3  3 30.0000000  0  8G27G28G10G29G13G31G 8G19
  20779824.364   -23519303.07849 -18312101.42848  20779823.747    20779829.959
  21466951.735   -20612384.60349 -16048949.08447  21466951.009    21466956.662
  23397701.795    -4699023.32849  -3654622.97146  23397700.678    23397708.355
  23857842.715    -9381003.37149  -7292140.88845  23857842.419    23857849.225
  22578313.151   -12875286.76849 -10023473.11846  22578313.079    22578319.051
  22371781.105   -16262398.15949 -12661941.93746  22371780.339    22371787.770
  20402381.952   -28057622.01149 -21845695.76748  20402381.215    20402387.379
  22560959.149   -15195898.24949 -11827529.85247  22560957.874    22560962.722
 04  7 14  3  4  0.0000000  0  8G27G28G10G29G13G31G 8G19
  20782229.744   -23506662.61949 -18302251.72848  20782229.142    20782235.362
  21456384.553   -20667915.46449 -16092219.86547  21456383.835    21456389.483
  23404881.001    -4661296.20749  -3625225.26546  23404879.988    23404887.652
  23839775.314    -9475948.23049  -7366123.87245  23839774.977    23839781.775
  22597158.901   -12776251.86749  -9946303.11046  22597158.842    22597164.832
  22352099.696   -16365824.63749 -12742533.94146  22352098.874    22352106.213
  20397753.185   -28081946.44549 -21864649.86648  20397752.410    20397758.595
  22566398.451   -15167313.88349 -11805256.32247  22566397.238    22566402.151
 04  7 14  3  4 30.0000000  0  8G27G28G10G29G13G31G 8G19
  20784683.215   -23493769.59949 -18292205.22448  20784682.614    20784688.807
  21445881.584   -20723108.98549 -16135227.78447  21445880.866    21445886.549
  23412151.541    -4623089.83949  -3595454.11646  23412150.546    23412158.198
  23821743.380    -9570706.74349  -7439961.65945  23821743.120    23821749.785
  22616057.698   -12676938.27249  -9868915.95746  22616057.629    22616063.627
  22332466.961   -16468994.60849 -12822926.06846  22332466.255    22332473.551
  20393177.313   -28105992.86149 -21883387.33248  20393176.538    20393182.691
  22571943.627   -15138174.08149 -11782549.97947  22571942.389    22571947.315
 04  7 14  3  5  0.0000000  0  8G27G28G10G29G13G31G 8G19
  20787184.927   -23480623.21849 -18281961.30048  20787184.322    20787190.518
  21435442.836   -20777964.92349 -16177972.64447  21435442.092    21435447.730
  23419512.809    -4584406.40749  -3565311.24146  23419511.739    23419519.492
  23803747.440    -9665276.25549  -7513652.16645  23803747.099    23803753.735
  22635009.238   -12577348.03449  -9791313.23246  22635009.119    22635015.080
  22312883.782   -16571904.82049 -12903115.78746  22312883.093    22312890.296
  20388654.469   -28129760.41349 -21901907.50348  20388653.689    20388659.855
  22577594.192   -15108479.64049 -11759411.46047  22577592.998    22577597.939
 04  7 14  3  5 30.0000000  0  8G27G28G10G29G13G31G 8G19
  20789734.916   -23467222.81149 -18271519.42948  20789734.306    20789740.492
  21425068.336   -20832483.24949 -16220454.43447  21425067.614    21425073.150
  23426964.320    -4545248.09549  -3534798.31846  23426963.271    23426971.103
  23785787.733    -9759654.65249  -7587193.76645  23785787.431    23785794.041
  22654012.813   -12477483.21749  -9713496.54746  22654012.764    22654018.779
  22293350.741   -16674552.21549 -12983100.71546  22293349.955    22293357.017
  20384184.832   -28153248.61449 -21920209.98848  20384184.053    20384190.235
  22583350.194   -15078231.58149 -11735841.54547  22583348.993    22583353.988
 04  7 14  3  6  0.0000000  0  8G27G28G10G29G13G31G 8G19
  20792333.445   -23453567.37049 -18260878.82648  20792332.838    20792339.036
  21414758.297   -20886663.01749 -16262672.40547  21414757.522    21414763.083
  23434505.772    -4505616.62749  -3503916.70046  23434504.760    23434512.686
  23767865.059    -9853839.00849  -7660584.15045  23767864.700    23767871.386
  22673068.387   -12377346.02949  -9635467.62446  22673068.271    22673074.310
  22273868.210   -16776933.34449 -13062878.17246  22273867.433    22273874.480
  20379768.576   -28176456.33449 -21938293.92048  20379767.780    20379773.956
  22589211.540   -15047430.42849 -11711840.64647  22589210.265    22589215.223
 04  7 14  3  6 30.0000000  0  8G27G28G10G29G13G31G 8G19
  20794980.618   -23439656.25149 -18250039.00248  20794980.005    20794986.232
  21404512.596   -20940504.18749 -16304626.54247  21404511.865    21404517.450
  23442137.019    -4465514.18949  -3472668.10046  23442136.017    23442143.979
  23749979.659    -9947826.78949  -7733821.37245  23749979.392    23749986.028
  22692175.460   -12276938.30349  -9557227.89146  22692175.264    22692181.297
  22254437.006   -16879044.97549 -13142445.61946  22254436.185    22254443.246
  20375405.827   -28199382.65449 -21956158.58348  20375405.031    20375411.192
  22595177.844   -15016077.09449 -11687409.47947  22595176.615    22595181.572
 04  7 14  3  7  0.0000000  0  8G27G28G10G29G13G31G 8G19
  20797676.600   -23425488.90449 -18238999.52048  20797675.988    20797682.167
  21394331.402   -20994006.74349 -16346316.80947  21394330.643    21394336.150
  23449857.415    -4424943.19749  -3441054.38346  23449856.342    23449864.420
  23732132.140   -10041615.92649  -7806903.78745  23732131.887    23732138.540
  22711333.344   -12176262.69849  -9478779.42746  22711333.221    22711339.293
  22235057.560   -16980884.24749 -13221800.84346  22235056.780    22235063.848
  20371096.827   -28222026.71549 -21973803.30148  20371096.044    20371102.170
  22601249.050   -14984172.78049 -11662548.97747  22601247.832    22601252.756
 04  7 14  3  7 30.0000000  0  8G27G28G10G29G13G31G 8G19
  20800421.403   -23411064.76349 -18227759.92948  20800420.798    20800427.036
  21384214.560   -21047170.58549 -16387743.14447  21384213.827    21384219.339
  23457666.669    -4383905.77449  -3409077.23146  23457665.546    23457673.655
  23714322.979   -10135204.25749  -7879829.73145  23714322.616    23714329.273
  22730541.998   -12075321.18849  -9400123.76646  22730541.774    22730547.838
  22215730.466   -17082448.21649 -13300941.54646  22215729.740    22215736.841
  20366841.695   -28244387.67349 -21991227.41648  20366840.880    20366847.017
  22607424.787   -14951718.63849 -11637260.03947  22607423.676    22607428.492
 04  7 14  3  8  0.0000000  0  8G27G28G10G29G13G31G 8G19
  20803215.290   -23396383.08549 -18216319.67048  20803214.674    20803220.886
  21374162.322   -21099995.39749 -16428905.31847  21374161.586    21374167.145
  23465564.122    -4342404.36649  -3376738.51346  23465563.039    23465571.160
  23696552.406   -10228588.99749  -7952597.04245  23696552.088    23696558.755
  22749800.707   -11974115.86249  -9321262.53346  22749800.551    22749806.663
  22196456.461   -17183733.65149 -13379865.20346  22196455.664    22196462.838
  20362640.474   -28266464.93249 -22008430.47048  20362639.668    20362645.824
  22613705.000   -14918715.69949 -11611543.47147  22613703.879    22613708.702
 04  7 14  3  8 30.0000000  0  8G27G28G10G29G13G31G 8G19
  20806058.257   -23381442.97449 -18204678.03148  20806057.666    20806063.926
  21364174.715   -21152480.78049 -16469802.99547  21364173.960    21364179.428
  23473549.639    -4300440.66749  -3344039.57846  23473548.610    23473556.625
  23678821.214   -10321767.63749  -8025203.75745  23678820.843    23678827.473
  22769109.208   -11872648.68549  -9242197.26046  22769109.114    22769115.278
  22177235.972   -17284737.17249 -13458569.18946  22177235.260    22177242.480
  20358493.466   -28288257.50749 -22025411.69748  20358492.659    20358498.818
  22620089.559   -14885164.62949 -11585399.78347  22620088.459    22620093.262
 04  7 14  3  9  0.0000000  0  8G27G28G10G29G13G31G 8G19
  20808950.560   -23366244.05249 -18192834.72448  20808949.944    20808956.175
  21354251.525   -21204627.00449 -16510436.39747  21354250.810    21354256.268
  23481622.517    -4258017.56549  -3310982.65346  23481621.442    23481629.533
  23661129.592   -10414738.05349  -8097648.20146  23661129.171    23661135.916
  22788467.087   -11770922.47349  -9162930.14146  22788466.953    22788473.211
  22158069.733   -17385456.05549 -13537051.38046  22158069.048    22158076.294
  20354400.797   -28309764.60349 -22042170.47048  20354399.992    20354406.187
  22626578.204   -14851067.07349 -11558830.25747  22626577.027    22626581.872
 04  7 14  3  9 30.0000000  0  8G27G28G10G29G13G31G 8G19
  20811892.178   -23350785.53149 -18180789.13448  20811891.607    20811897.841
  21344393.034   -21256433.59149 -16550805.14947  21344392.335    21344397.843
  23489782.438    -4215136.93149  -3277569.22146  23489781.402    23489789.443
  23643478.028   -10507497.67049  -8169928.40146  23643477.541    23643484.392
  22807873.925   -11668938.90749  -9083462.49646  22807873.847    22807880.077
  22138958.279   -17485886.99749 -13615309.20146  22138957.619    22138964.819
  20350362.595   -28330985.39949 -22058706.15048  20350361.808    20350367.972
  22633170.572   -14816423.70749 -11531835.43347  22633169.423    22633174.276
 04  7 14  3 10  0.0000000  0  8G27G28G10G29G13G31G 8G19
  20814883.459   -23335066.28049 -18168540.37548  20814882.847    20814889.082
  21334599.299   -21307900.05449 -16590908.86747  21334598.545    21334604.070
  23498029.135    -4171800.60949  -3243800.69746  23498028.024    23498036.183
  23625867.022   -10600043.68849  -8242042.15746  23625866.603    23625873.579
  22827329.440   -11566700.02749  -9003795.90246  22827329.328    22827335.556
  22119902.301   -17586026.60149 -13693340.00746  22119901.621    22119908.851
  20346379.083   -28351918.96949 -22075018.02348  20346378.265    20346384.393
  22639866.746   -14781235.56849 -11504416.11347  22639865.537    22639870.383
 04  7 14  3 10 30.0000000  0  8G27G28G10G29G13G31G 8G19
  20817924.357   -23319086.11049 -18156088.30548  20817923.791    20817930.003
  21324870.107   -21359026.62449 -16630747.73447  21324869.390    21324874.937
  23506361.962    -4128011.42249  -3209679.28846  23506360.895    23506369.078
  23608297.021   -10692374.20749  -8313987.98046  23608296.616    23608303.700
  22846833.004   -11464208.53049  -8923932.46546  22846832.856    22846839.073
  22100902.337   -17685872.10649 -13771141.64146  22100901.594    22100908.824
  20342450.318   -28372564.69949 -22091105.60748  20342449.505    20342455.639
  22646666.269   -14745504.08749 -11476573.39747  22646665.020    22646669.844
 04  7 14  3 11  0.0000000  0  8G27G28G10G29G13G31G 8G19
  20821015.154   -23302843.92249 -18143432.06148  20821014.552    20821020.775
  21315205.856   -21409812.76249 -16670321.33547  21315205.131    21315210.681
  23514780.644    -4083771.34749  -3175206.54046  23514779.577    23514787.692
  23590768.671   -10784486.23049  -8385763.55946  23590768.281    23590775.327
  22866384.374   -11361466.15549  -8843873.54546  22866384.172    22866390.350
  22081958.886   -17785420.02749 -13848711.39346  22081958.189    22081965.404
  20338576.563   -28392921.31449 -22106967.90148  20338575.757    20338581.912
  22653569.010   -14709230.05449 -11448307.92347  22653567.781    22653572.595
 04  7 14  3 11 30.0000000  0  8G27G28G10G29G13G31G 8G19
  20824155.914   -23286339.16349 -18130571.22148  20824155.307    20824161.527
  21305606.376   -21460258.30149 -16709629.52447  21305605.626    21305611.215
  23523284.574    -4039082.75049  -3140384.29746  23523283.490    23523291.692
  23573282.262   -10876377.61249  -8457367.21846  23573281.847    23573288.920
  22885982.900   -11258475.22249  -8763620.93246  22885982.724    22885988.923
  22063072.784   -17884667.37749 -13926046.93146  22063072.023    22063079.200
  20334758.066   -28412987.96549 -22122604.25148  20334757.240    20334763.338
  22660574.713   -14672414.49849 -11419620.47747  22660573.531    22660578.358
 04  7 14  3 12  0.0000000  0  8G27G28G10G29G13G31G 8G19
  20827346.780   -23269570.73549 -18117504.92248  20827346.218    20827352.475
  21296071.728   -21510363.02049 -16748672.13647  21296071.017    21296076.595
  23531873.525    -3993947.63949  -3105214.12946  23531872.463    23531880.655
  23555838.323   -10968045.34049  -8528796.59245  23555837.943    23555845.143
  22905628.417   -11155237.64449  -8683176.14546  22905628.214    22905634.443
  22044244.421   -17983610.67649 -14003145.55146  22044243.688    22044250.887
  20330994.910   -28432763.50749 -22138013.76848  20330994.066    20331000.177
  22667683.262   -14635058.62549 -11390512.01547  22667682.120    22667686.928
 04  7 14  3 12 30.0000000  0  8G27G28G10G29G13G31G 8G19
  20830587.972   -23252538.39649 -18104232.98148  20830587.374    20830593.625
  21286602.012   -21560126.95349 -16787449.19947  21286601.273    21286606.843
  23540546.997    -3948368.58749  -3069698.01446  23540545.870    23540554.045
  23538437.365   -11059487.26349  -8600050.01745  23538437.039    23538444.237
  22925320.470   -11051755.74549  -8602540.97246  22925320.232    22925326.482
  22025474.574   -18082247.14949 -14080005.08347  22025473.812    22025480.942
  20327287.184   -28452247.66049 -22153196.22148  20327286.362    20327292.532
  22674894.368   -14597163.70849 -11360983.51947  22674893.248    22674898.021
 04  7 14  3 13  0.0000000  0  8G27G28G10G29G13G31G 8G19
  20833879.489   -23235241.01249 -18090754.50648  20833878.916    20833885.203
  21277197.085   -21609549.93649 -16825960.59047  21277196.334    21277201.950
  23549304.399    -3902347.96949  -3033837.82546  23549303.307    23549311.435
  23521079.866   -11150701.01149  -8671125.63846  23521079.556    23521086.846
  22945058.350   -10948031.86749  -8521717.23446  22945058.217    22945064.516
  22006763.583   -18180573.56449 -14156623.01547  22006762.855    22006769.995
  20323635.131   -28471439.33449 -22168150.77248  20323634.301    20323640.444
  22682207.969   -14558731.02349 -11331035.96547  22682206.815    22682211.559
 04  7 14  3 13 30.0000000  0  8G27G28G10G29G13G31G 8G19
  20837221.471   -23217679.23549 -18077070.01448  20837220.862    20837227.093
  21267856.909   -21658632.71149 -16864206.89047  21267856.209    21267861.748
  23558145.303    -3855889.02849  -2997636.09346  23558144.186    23558152.319
  23503766.331   -11241684.78749  -8742022.03346  23503765.932    23503773.183
  22964841.909   -10844069.21149  -8440707.44846  22964841.680    22964848.043
  21988112.109   -18278587.90349 -14232997.77147  21988111.337    21988118.455
  20320038.691   -28490338.44449 -22182877.34648  20320037.891    20320044.065
  22689623.375   -14519762.74149 -11300671.07947  22689622.211    22689626.993
 04  7 14  3 14  0.0000000  0  8G27G28G10G29G13G31G 8G19
  20840614.037   -23199850.90149 -18063177.81148  20840613.473    20840619.709
  21258581.822   -21707373.91049 -16902187.02447  21258581.080    21258586.550
  23567069.421    -3808992.94049  -2961093.73046  23567068.228    23567076.379
  23486497.103   -11332435.05749  -8812736.48946  23486496.717    23486503.964
  22984670.528   -10739868.62149  -8359512.24046  22984670.414    22984676.805
  21969520.751   -18376285.66049 -14309125.84347  21969520.018    21969527.121
  20316498.346   -28508943.25749 -22197374.60148  20316497.571    20316503.700
  22697140.740   -14480258.65749 -11269888.67747  22697139.617    22697144.343
 04  7 14  3 14 30.0000000  0  8G27G28G10G29G13G31G 8G19
  20844057.510   -23181755.73049 -18049077.68248  20844056.910    20844063.144
  21249371.627   -21755773.94349 -16939901.30547  21249370.867    21249376.324
  23576076.082    -3761662.76149  -2924213.11946  23576074.913    23576083.114
  23469272.676   -11422949.73049  -8883267.37146  23469272.311    23469279.478
  23004543.999   -10635432.73049  -8278133.69546  23004543.895    23004550.388
  21950990.139   -18473664.27249 -14385005.23347  21950989.486    21950996.552
  20313014.116   -28527253.20149 -22211642.08848  20313013.294    20313019.402
  22704759.762   -14440220.77349 -11238690.32347  22704758.543    22704763.322
 04  7 14  3 15  0.0000000  0  8G27G28G10G29G13G31G 8G19
  20847551.749   -23163393.38049 -18034769.36048  20847551.171    20847557.369
  21240226.251   -21803832.91149 -16977349.83547  21240225.508    21240230.958
  23585165.031    -3713900.91149  -2886996.14146  23585163.821    23585171.952
  23452093.435   -11513226.74349  -8953613.06546  23452093.074    23452100.274
  23024461.949   -10530764.24749  -8196573.90946  23024461.677    23024468.253
  21932520.997   -18570720.89549 -14460633.72247  21932520.242    21932527.272
  20309586.063   -28545267.47149 -22225679.18148  20309585.267    20309591.371
  22712479.879   -14399650.53749 -11207077.15647  22712478.738    22712483.611
 04  7 14  3 15 30.0000000  0  9G27G28G10G29G13G31G 8G19G26
  20851097.029   -23144762.89349 -18020252.10248  20851096.446    20851102.663
  21231145.843   -21851550.56349 -17014532.39447  21231145.104    21231150.529
  23594335.543    -3665709.53049  -2849444.46846  23594334.372    23594342.489
  23434960.102   -11603263.11649  -9023771.25446  23434959.715    23434966.876
  23044423.557   -10425864.93749  -8114834.24846  23044423.378    23044429.974
  21914113.640   -18667452.09849 -14536008.63547  21914112.865    21914119.871
  20306214.603   -28562984.98149 -22239485.03148  20306213.791    20306219.855
  22720301.297   -14358548.97849 -11175049.96447  22720300.104    22720304.929
                  -1044636.17349   -800791.11643
 04  7 14  3 16  0.0000000  0  9G27G28G10G29G13G31G 8G19G26
  20854693.538   -23125863.24249 -18005525.11348  20854692.957    20854699.152
  21222130.438   -21898926.41449 -17051448.62347  21222129.725    21222135.167
  23603587.449    -3617090.89949  -2811559.87946  23603586.258    23603594.381
  23417873.105   -11693056.09349  -9093739.77846  23417872.774    23417879.848
  23064428.804   -10320736.61449  -8032916.14546  23064428.688    23064435.249
  21895768.874   -18763854.52349 -14611127.36747  21895768.075    21895775.020
  20302899.804   -28580404.21049 -22253058.45648  20302898.976    20302905.080
  22728223.546   -14316917.25649 -11142609.66747  22728222.379    22728227.174
                  -1145182.54349   -879139.30043
 04  7 14  3 16 30.0000000  0  9G27G28G10G29G13G31G 8G19G26
  20858341.302   -23106694.11649 -17990588.13748  20858340.711    20858346.923
  21213180.127   -21945960.81949 -17088098.78547  21213179.382    21213184.832
  23612919.991    -3568047.86849  -2773344.58246  23612918.896    23612926.933
  23400832.783   -11782603.62149  -9163517.03346  23400832.421    23400839.437
  23084477.140   -10215382.31449  -7950821.95446  23084476.949    23084483.568
  21877487.105   -18859925.47749 -14685987.80447  21877486.332    21877493.282
  20299641.811   -28597525.08349 -22266399.40148  20299641.021    20299647.103
  22736246.350   -14274757.05749 -11109757.56947  22736245.235    22736250.064
                  -1245517.07549   -957322.00743
 04  7 14  3 17  0.0000000  0  9G27G28G10G29G13G31G 8G19G26
  20862040.496   -23087254.63349 -17975440.49148  20862039.920    20862046.137
  21204294.756   -21992653.45149 -17124482.63147  21204294.013    21204299.466
  23622332.935    -3518582.72449  -2734800.37546  23622331.869    23622339.916
  23383839.738   -11871903.05649  -9233100.98046  23383839.295    23383846.254
  23104568.093   -10109803.88549  -7868553.11946  23104567.910    23104574.552
  21859269.047   -18955661.74449 -14760587.43947  21859268.244    21859275.221
  20296440.759   -28614346.85349 -22279507.27248  20296439.917    20296446.009
  22744369.537   -14232069.50549 -11076494.54647  22744368.411    22744373.213
                  -1345636.98749  -1035337.41545                  23991488.206
 04  7 14  3 17 30.0000000  0  9G27G28G10G29G13G31G 8G19G26
  20865791.026   -23067545.46349 -17960082.69948  20865790.424    20865796.676
  21195474.175   -22039005.67549 -17160601.23347  21195473.459    21195478.900
  23631825.614    -3468699.11049  -2695930.08446  23631824.478    23631832.423
  23366894.111   -11960953.08849  -9302490.59146  23366893.676    23366900.481
  23124701.082   -10004004.92449  -7786112.44946  23124700.803    23124707.442
  21841114.910   -19051061.54749 -14834924.90347  21841114.181    21841121.135
  20293296.471   -28630869.87749 -22292382.35448  20293295.664    20293301.785
  22752592.616   -14188857.21849 -11042822.63847  22752591.429    22752596.282
  23972469.673    -1445541.05249  -1113184.66645  23972469.625    23972476.304
 04  7 14  3 18  0.0000000  0  9G27G28G10G29G13G31G 8G19G26
  20869593.240   -23047564.72749 -17944513.29748  20869592.642    20869598.898
  21186718.646   -22085016.37749 -17196453.71547  21186717.910    21186723.334
  23641397.575    -3418398.60149  -2656734.94646  23641396.432    23641404.391
  23349996.513   -12049750.24349  -9371683.15646  23349996.054    23350002.836
  23144875.679    -9897986.47749  -7703500.74346  23144875.516    23144882.080
  21823025.759   -19146120.77749 -14908996.98847  21823024.964    21823031.947
  20290209.586   -28647091.84349 -22305022.85348  20290208.761    20290214.836
  22760915.401   -14145120.81249 -11008742.32447  22760914.207    22760919.116
  23953500.123    -1545225.60549  -1190860.84945  23953499.507    23953507.022
 04  7 14  3 18 30.0000000  0  9G27G28G10G29G13G31G 8G19G26
  20873447.111   -23027312.15549 -17928732.07748  20873446.524    20873452.831
  21178027.993   -22130685.95549 -17232040.38947  21178027.237    21178032.671
  23651048.296    -3367684.14649  -2617217.23546  23651047.101    23651055.047
  23333147.497   -12138292.51649  -9440677.08646  23333147.069    23333153.816
  23165091.612    -9791751.29349  -7620720.13946  23165091.411    23165098.007
  21805001.899   -19240836.58249 -14982801.46447  21805001.102    21805008.064
  20287179.993   -28663012.01849 -22317428.18548  20287179.178    20287185.311
  22769337.605   -14100861.84449 -10974254.82547  22769336.357    22769341.372
  23934573.007    -1644688.07449  -1268364.00345  23934572.520    23934579.739
 04  7 14  3 19  0.0000000  0 10G27G28G 7G10G29G13G31G 8G19G26
  20877352.868   -23006787.45049 -17912738.81148  20877352.260    20877358.576
  21169402.179   -22176014.81849 -17267361.57247  21169401.458    21169406.833
  24447349.721    -4066253.19949  -3159848.78545  24447348.493    24447359.249
  23660777.273    -3316558.48949  -2577379.12546  23660776.076    23660783.999
  23316347.239   -12226577.62249  -9509470.64646  23316346.829    23316353.703
  23185348.298    -9685301.92449  -7537772.64746  23185348.138    23185354.730
  21787043.892   -19335206.46149 -15056336.38947  21787043.104    21787050.042
  20284207.938   -28678630.39249 -22329598.35548  20284207.135    20284213.242
  22777858.912   -14056082.21949 -10939361.62147  22777857.687    22777862.663
  23915688.529    -1743926.32749  -1345692.43345  23915688.114    23915695.337
 04  7 14  3 19 30.0000000  0 10G27G28G 7G10G29G13G31G 8G19G26
  20881310.187   -22985991.53449 -17896534.20848  20881309.600    20881315.890
  21160841.067   -22221004.16549 -17302418.19747  21160840.305    21160845.612
  24427228.269    -4171992.49449  -3242242.86045  24427226.853    24427237.579
  23670583.606    -3265025.84649  -2537223.87446  23670582.476    23670590.396
  23299596.171   -12314604.69149  -9578063.12046  23299595.785    23299602.750
  23205645.021    -9578642.33949  -7454661.36346  23205644.816    23205651.497
  21769152.020   -19429228.78349 -15129600.49347  21769151.220    21769158.128
  20281293.191   -28693947.59349 -22341533.83948  20281292.364    20281298.476
  22786478.770   -14010785.08649 -10904065.16147  22786477.550    22786482.407
  23896846.884    -1842939.26149  -1422845.32745  23896846.577    23896853.704
 04  7 14  3 20  0.0000000  0 10G27G28G 7G10G29G13G31G 8G19G26
  20885320.224   -22964918.90249 -17880113.98048  20885319.624    20885325.895
  21152345.336   -22265649.30749 -17337206.61447  21152344.587    21152349.880
  24407110.378    -4277711.68849  -3324621.29245  24407108.991    24407119.687
  23680467.863    -3213083.93449  -2496749.71546  23680466.754    23680474.730
  23282895.670   -12402366.35749  -9646448.80646  23282895.297    23282902.190
  23225981.994    -9471770.06949  -7371384.33646  23225981.997    23225988.714
  21751327.756   -19522895.90049 -15202587.81347  21751326.960    21751333.863
  20278436.774   -28708958.02649 -22353230.28548  20278435.971    20278442.053
  22795197.670   -13964967.05249 -10868362.81347  22795196.444    22795201.234
  23878049.491    -1941719.59649  -1499816.98445  23878049.181    23878056.326
 04  7 14  3 20 30.0000000  0 10G27G28G 7G10G29G13G31G 8G19G26
  20889382.902   -22943569.66749 -17863478.21848  20889382.291    20889388.522
  21143914.962   -22309951.22249 -17371727.56247  21143914.233    21143919.491
  24386996.580    -4383409.22349  -3406982.84845  24386995.405    24387005.931
  23690429.361    -3160736.21149  -2455959.32546  23690428.257    23690436.190
  23266245.970   -12489860.98149  -9714626.40046  23266245.564    23266252.482
  23246359.071    -9364688.21649  -7287944.01046  23246359.070    23246365.790
  21733571.472   -19616205.50649 -15275296.54947  21733570.682    21733577.601
  20275638.833   -28723661.51449 -22364687.55148  20275637.998    20275644.099
  22804015.334   -13918630.54749 -10832256.44247  22804014.030    22804018.761
  23859296.760    -2040265.35449  -1576605.84645  23859296.533    23859303.808
 04  7 14  3 21  0.0000000  0 10G27G28G 7G10G29G13G31G 8G19G26
  20893498.048   -22921944.42949 -17846627.38948  20893497.423    20893503.657
  21135549.734   -22353910.95649 -17405981.87347  21135548.964    21135554.235
  24366887.198    -4489083.86249  -3489326.57545  24366885.896    24366896.375
  23700467.404    -3107986.18449  -2414855.47946  23700466.219    23700474.268
  23249647.341   -12577087.18049  -9782594.83346  23249647.004    23249653.855
  23266775.542    -9257400.16949  -7204343.02346  23266775.327    23266782.118
  21715883.592   -19709155.69849 -15347725.22847  21715882.797    21715889.749
  20272899.096   -28738058.46249 -22375905.95548  20272898.285    20272904.455
  22812930.999   -13871778.00149 -10795747.97947  22812929.807    22812934.505
  23840589.112    -2138575.02649  -1653210.77545  23840588.744    23840596.048
 04  7 14  3 21 30.0000000  0 10G27G28G 7G10G29G13G31G 8G19G26
  20897665.890   -22900042.12349 -17829560.66048  20897665.267    20897671.497
  21127249.571   -22397528.43849 -17439969.50747  21127248.790    21127254.098
  24346782.655    -4594732.89349  -3571650.35745  24346781.425    24346791.903
  23710581.462    -3054836.40949  -2373440.12146  23710580.336    23710588.430
  23233100.240   -12664042.39149  -9850352.11146  23233099.880    23233106.746
  23287230.567    -9149907.71749  -7120582.74646  23287230.565    23287237.341
  21698264.713   -19801743.26849 -15419871.34647  21698263.925    21698270.856
  20270218.073   -28752147.43449 -22386884.38448  20270217.251    20270223.404
  22821944.779   -13824410.90849 -10758838.56047  22821943.487    22821948.206
  23821926.672    -2236645.70049  -1729629.44245  23821926.454    23821933.667
 04  7 14  3 22  0.0000000  0 10G27G28G 7G10G29G13G31G 8G19G26
  20901886.484   -22877862.90249 -17812278.15448  20901885.855    20901892.092
  21119014.446   -22440804.19549 -17473690.87047  21119013.681    21119018.943
  24326683.363    -4700354.78149  -3653952.97745  24326682.069    24326692.569
  23720771.050    -3001289.93249  -2331715.65446  23720769.943    23720778.000
  23216605.199   -12750724.47349  -9917896.54346  23216604.819    23216611.674
  23307724.052    -9042214.32949  -7036665.89646  23307724.029    23307730.756
  21680715.337   -19893965.89949 -15491733.09547  21680714.504    21680721.366
  20267595.689   -28765928.07349 -22397622.54548  20267594.886    20267601.062
  22831055.799   -13776531.50249 -10721529.93646  22831054.570    22831059.301
  23803310.210    -2334475.40549  -1805860.35645  23803309.962    23803317.363
 04  7 14  3 22 30.0000000  0 10G27G28G 7G10G29G13G31G 8G19G26
  20906159.919   -22855405.65449 -17794779.00748  20906159.297    20906165.539
  21110844.432   -22483738.02049 -17507145.78647  21110843.647    21110848.905
  24306589.721    -4805946.64849  -3736232.21245  24306588.419    24306599.045
  23731035.633    -2947349.13249  -2289683.90346  23731034.517    23731042.668
  23200162.565   -12837130.78949  -9985226.11046  23200162.212    23200169.052
  23328255.792    -8934321.51249  -6952593.65046  23328255.475    23328262.159
  21663235.926   -19985820.12249 -15563307.77247  21663235.144    21663241.957
  20265032.191   -28779399.58549 -22408119.83248  20265031.381    20265037.503
  22840264.268   -13728141.04049 -10683823.08646  22840262.955    22840267.686
  23784740.017    -2432061.16349  -1881901.17045  23784739.828    23784747.343
 04  7 14  3 23  0.0000000  0 10G27G28G 7G10G29G13G31G 8G19G26
  20910486.358   -22832669.80849 -17777062.76548  20910485.752    20910492.005
  21102739.387   -22526330.04249 -17540334.36047  21102738.618    21102743.896
  24286502.159    -4911506.25749  -3818486.31845  24286500.945    24286511.491
  23741374.726    -2893016.89049  -2247347.13446  23741373.570    23741381.813
  23183773.033   -12923258.88149 -10052338.88246  23183772.638    23183779.360
  23348824.562    -8826231.81649  -6868367.98246  23348824.375    23348830.955
  21645827.309   -20077303.03149 -15634593.10947  21645826.516    21645833.272
  20262527.512   -28792561.53149 -22418375.89148  20262526.685    20262532.824
  22849569.546   -13679241.17449 -10645719.30046  22849568.243    22849572.999
  23766216.683    -2529400.40349  -1957749.85045  23766216.551    23766224.394
 04  7 14  3 23 30.0000000  0 10G27G28G 7G10G29G13G31G 8G19G26
  20914865.983   -22809654.94749 -17759129.11348  20914865.340    20914871.609
  21094699.383   -22568580.55549 -17573256.81648  21094698.624    21094703.909
  24266421.056    -5017031.42849  -3900713.58945  24266419.997    24266430.426
  23751787.567    -2838296.14649  -2204707.65146  23751786.530    23751794.888
  23167436.832   -13009106.34449 -10119232.97846  23167436.358    23167443.071
  23369430.293    -8717947.97849  -6783991.03645  23369430.180    23369436.795
  21628489.807   -20168411.92849 -15705587.00447  21628489.018    21628495.795
  20260081.969   -28805412.87249 -22428389.92848  20260081.178    20260087.291
  22858971.376   -13629833.77949 -10607220.03546  22858970.114    22858974.987
  23747741.180    -2626490.43049  -2033404.38045  23747741.021    23747748.777
 04  7 14  3 24  0.0000000  0 10G27G28G 7G10G29G13G31G 8G19G26
  20919298.847   -22786360.18849 -17740977.35848  20919298.211    20919304.486
  21086724.399   -22610489.42149 -17605913.06148  21086723.615    21086728.895
  24246347.185    -5122519.53849  -3982911.98245  24246346.284    24246356.536
  23762274.091    -2783189.28349  -2161767.29546  23762272.991    23762281.452
  23151154.396   -13094670.74649 -10185906.50646  23151153.980    23151160.707
  23390072.802    -8609471.87349  -6699464.29545  23390072.510    23390079.109
  21611224.072   -20259143.61849 -15776286.97847  21611223.292    21611230.106
  20257695.802   -28817952.26049 -22438160.88048  20257694.980    20257701.110
  22868469.505   -13579920.33549 -10568326.44646  22868468.279    22868473.266
  23729313.564    -2723328.52549  -2108862.61045  23729313.298    23729321.119
 04  7 14  3 24 30.0000000  0 10G27G28G 7G10G29G13G31G 8G19G26
  20923784.966   -22762785.12849 -17722607.18548  20923784.336    20923790.678
  21078814.310   -22652057.03749 -17638303.39848  21078813.531    21078818.832
  24226280.691    -5227968.49849  -4065079.86145  24226279.926    24226290.182
  23772833.509    -2727699.22049  -2118528.34246  23772832.390    23772840.838
  23134926.403   -13179949.71049 -10252357.62646  23134925.974    23134932.590
  23410751.244    -8500806.20249  -6614789.80745  23410750.924    23410757.562
  21594030.649   -20349495.32749 -15846690.86047  21594029.884    21594036.725
  20255369.143   -28830179.07149 -22447688.26748  20255368.340    20255374.420
  22878063.672   -13529502.47549 -10529039.80446  22878062.427    22878067.439
  23710934.231    -2819912.27349  -2184122.66445  23710934.102    23710941.776
 04  7 14  3 25  0.0000000  0 10G27G28G 7G10G29G13G31G 8G19G26
  20928324.578   -22738929.21349 -17704018.17148  20928323.963    20928330.293
  21070969.209   -22693283.24549 -17670427.70148  21070968.422    21070973.751
  24206222.005    -5333375.85449  -4147215.32945  24206221.462    24206231.621
  23783465.419    -2671828.18349  -2074992.52745  23783464.351    23783472.710
  23118753.314   -13264940.52649 -10318584.21746  23118752.810    23118759.375
  23431465.350    -8391953.08049  -6529969.27345  23431465.034    23431471.746
  21576910.128   -20439464.11149 -15916796.36447  21576909.347    21576916.205
  20253102.091   -28842092.70449 -22456971.61948  20253101.270    20253107.366
  22887753.550   -13478582.02349 -10489361.54646  22887752.309    22887757.254
  23692603.876    -2916238.94349  -2259182.38945  23692603.742    23692611.420
 04  7 14  3 25 30.0000000  0 10G27G28G 7G10G29G13G31G 8G19G26
  20932917.771   -22714791.89749 -17685209.87648  20932917.153    20932923.492
  21063188.971   -22734168.45349 -17702286.29448  21063188.228    21063193.542
  24186171.914    -5438739.55749  -4229316.77045  24186171.202    24186181.518
  23794169.154    -2615579.68649  -2031162.59545  23794168.110    23794176.575
  23102635.348   -13349641.18949 -10384584.70846  23102634.819    23102641.363
  23452214.702    -8282915.02049  -6445004.63845  23452214.310    23452220.993
  21559863.005   -20529047.28849 -15986601.39147  21559862.208    21559869.025
  20250894.740   -28853692.37949 -22466010.32448  20250893.928    20250900.009
  22897538.624   -13427161.00349 -10449293.23146  22897537.355    22897542.345
  23674322.952    -3012306.10749  -2334039.91145  23674322.807    23674330.393
